GFSSW_500_spd_003.txt.gz
Wind_Speed
25 26 28 30 32 35 36 34 33 34 37 41 43 42 41 40 40 39 37 40 42 39 42 46 48 50 47 42 47 42 43 37 33 32 32 39 34 28 27 29 29 24 25 23 19
26 27 29 32 33 35 30 30 30 31 33 37 38 39 43 44 45 42 43 41 43 42 42 46 47 52 53 47 46 47 44 38 33 35 37 41 33 31 25 30 31 28 26 22 22
28 28 30 32 34 34 31 31 33 34 35 38 40 43 45 47 48 46 45 46 47 46 46 47 50 49 54 53 46 49 48 39 36 38 40 42 33 32 26 27 31 31 27 22 23
28 29 30 29 33 35 33 30 30 34 37 39 42 45 47 47 46 45 47 48 49 49 48 49 52 52 51 56 51 48 49 42 40 39 42 41 35 31 28 25 32 29 26 23 26
28 30 29 30 32 35 35 33 34 33 38 39 41 41 42 44 46 47 49 47 51 53 54 52 54 54 51 52 55 54 45 44 42 42 44 42 35 31 26 29 34 31 28 25 27
30 31 30 30 31 34 34 34 36 36 37 38 39 41 43 45 48 49 51 54 54 55 56 57 56 57 55 53 57 54 47 46 46 47 46 42 36 36 25 40 30 26 27 26 27
31 31 31 31 31 34 36 35 38 39 38 39 41 47 48 48 48 52 53 53 53 53 55 58 56 60 58 56 55 55 51 49 49 49 47 43 39 34 34 37 32 28 27 25 26
32 32 30 31 33 35 38 35 38 42 42 44 48 50 48 47 50 50 51 54 54 51 52 56 57 59 61 61 58 59 55 53 49 49 46 45 35 37 38 31 31 27 27 26 23
34 33 30 32 34 37 39 36 38 39 38 43 45 47 48 43 46 49 53 53 54 53 53 56 60 59 60 60 59 58 60 54 53 51 46 49 37 38 38 33 30 30 27 25 22
37 34 32 31 34 38 42 38 37 37 41 42 45 46 45 42 45 48 49 49 50 50 54 54 56 64 64 64 66 59 59 56 53 54 47 45 39 40 40 35 29 30 28 26 24
37 36 33 31 33 38 43 38 41 42 43 42 43 46 41 41 43 45 45 46 49 46 49 52 59 59 57 62 60 55 58 55 51 50 48 42 40 39 39 36 30 26 29 27 27
38 37 34 32 34 37 42 40 42 43 44 41 46 44 41 42 43 44 47 46 49 53 53 60 67 61 54 63 65 62 57 51 49 52 45 41 38 37 39 35 30 28 28 27 28
39 36 34 33 35 38 38 39 40 41 44 45 45 45 40 43 45 43 43 42 44 51 51 53 52 54 62 66 61 61 52 52 51 52 42 42 36 33 35 36 31 30 30 28 29
38 35 33 33 35 37 35 36 41 46 48 48 44 39 42 41 40 41 38 37 36 37 38 45 45 55 58 64 58 58 57 41 53 47 42 41 33 36 34 33 32 30 31 30 29
37 33 32 32 34 35 34 37 43 44 46 47 40 33 34 29 32 34 27 30 30 30 41 41 43 51 58 59 57 52 33 53 54 46 44 40 35 28 31 33 32 29 32 31 30
34 32 31 31 34 34 35 39 46 40 47 44 39 33 33 30 22 27 22 24 28 35 33 41 40 50 59 54 60 51 47 45 49 47 42 35 31 30 31 32 32 30 30 30 31
33 30 29 30 30 33 35 38 38 39 37 32 33 29 27 23 22 17 16 22 29 28 45 34 46 51 57 62 55 48 53 56 49 45 39 36 31 25 31 30 30 29 30 30 32
31 28 27 28 30 32 31 35 33 35 31 30 32 28 20 21 20 20 19 25 33 29 33 37 51 49 54 64 47 61 40 43 51 43 36 29 29 31 28 27 30 26 30 31 32
27 25 24 26 27 28 29 30 29 31 28 29 33 21 15 19 19 21 20 23 34 26 33 45 44 47 41 50 44 50 36 48 45 40 32 32 27 28 28 28 27 28 26 31 33
24 23 23 23 25 26 28 26 26 24 23 26 22 6 7 14 23 19 21 35 44 41 39 47 41 48 51 51 52 39 41 44 43 35 29 28 27 28 26 24 25 25 28 32 33
22 21 23 21 23 21 26 21 22 21 22 15 7 7 9 16 17 19 40 34 44 43 33 30 36 41 32 51 48 46 41 42 38 34 28 21 23 28 23 24 23 23 27 29 31
21 20 21 20 21 17 22 17 19 17 18 6 3 5 7 13 20 26 23 32 49 43 36 26 21 43 42 50 46 24 41 38 35 32 29 25 24 23 22 22 22 25 27 28 29
20 20 18 19 18 14 18 12 14 16 14 3 6 12 13 22 31 25 28 47 45 39 25 19 24 42 29 48 43 46 26 34 32 32 30 28 27 24 21 24 23 23 25 27 29
21 20 17 17 18 16 19 10 12 13 8 2 11 14 20 20 26 30 31 41 46 29 28 31 28 38 32 27 27 27 27 32 29 28 32 31 29 26 28 25 24 24 26 28 29
21 20 17 14 16 15 19 11 10 14 5 4 11 12 20 21 24 28 31 33 37 36 26 33 28 29 37 34 35 36 32 29 32 27 26 27 28 30 30 26 24 25 29 29 29
22 19 18 16 16 17 19 8 4 12 16 6 9 14 13 18 22 29 30 31 32 33 30 29 28 27 27 27 29 36 35 35 33 29 27 30 27 26 26 27 25 26 27 27 26
23 21 19 17 16 15 18 13 8 14 13 15 12 14 18 22 24 30 31 23 25 29 26 27 28 28 29 30 31 34 34 36 33 32 32 28 24 37 29 30 28 26 26 24 25

GFSSW_500_spd_006.txt.gz
Wind_Speed
27 27 26 25 25 26 29 29 31 34 35 34 34 35 39 44 43 40 40 40 38 35 35 37 37 39 40 40 44 41 40 42 36 33 30 30 35 29 28 25 28 26 29 35 23
28 29 28 27 27 27 29 28 30 32 33 32 32 33 34 42 44 42 43 42 41 39 39 40 42 40 41 42 43 46 42 37 37 35 36 36 38 29 27 26 28 29 32 37 28
29 29 29 27 29 28 29 29 29 32 34 34 35 33 33 35 41 45 44 43 43 43 43 42 42 44 42 43 43 45 43 37 39 38 40 41 36 30 29 26 28 31 36 37 29
29 30 29 29 29 28 29 29 30 31 34 34 34 35 34 36 40 41 41 41 46 47 46 44 44 46 45 44 44 44 43 43 37 41 44 42 37 35 29 24 30 32 34 31 27
30 30 29 30 29 28 29 29 29 31 34 36 37 37 34 35 33 39 43 41 43 44 46 49 49 49 49 49 50 47 45 45 42 42 45 45 41 35 31 27 31 36 33 31 29
32 31 31 31 28 28 29 29 30 31 35 38 39 39 38 37 37 40 40 42 43 45 47 48 49 50 50 52 54 50 49 46 45 43 46 48 41 40 28 31 34 37 30 25 27
36 34 34 31 31 29 29 29 31 31 35 39 41 40 41 36 39 43 46 45 48 47 48 50 54 56 55 56 57 55 54 50 47 48 46 49 46 42 29 35 37 33 31 27 27
37 37 37 34 33 31 31 29 33 30 36 38 39 42 43 43 46 46 48 50 51 51 53 56 58 60 60 60 58 57 53 52 44 51 49 49 50 39 37 40 34 30 33 30 26
39 40 39 38 35 34 33 32 33 30 36 40 40 40 42 42 44 49 48 48 51 51 52 55 58 59 58 57 57 59 58 49 48 50 51 48 48 39 38 40 34 31 31 31 28
44 41 41 40 38 36 35 35 34 32 35 38 40 42 43 44 45 45 47 49 50 51 53 54 55 56 58 59 61 58 59 53 50 47 49 49 48 41 41 38 34 32 32 26 29
49 42 42 42 40 37 36 37 37 36 38 40 43 43 46 44 43 45 48 49 48 48 48 50 53 57 55 52 50 50 54 52 50 47 50 49 47 41 41 39 38 34 33 30 29
49 44 42 42 41 38 36 37 38 37 42 42 42 42 46 44 43 46 47 46 44 44 45 51 55 48 48 50 52 52 52 48 49 44 49 51 48 45 42 41 37 34 33 31 29
47 46 43 41 40 38 36 37 36 38 45 44 42 47 44 45 44 42 42 42 43 44 47 51 44 44 47 51 53 51 50 44 47 42 45 50 50 44 42 41 36 35 32 30 30
44 45 45 40 39 38 35 34 35 39 47 46 48 41 41 42 39 35 40 44 43 39 44 51 46 53 54 50 50 55 46 46 51 47 53 51 49 43 40 39 37 33 35 29 32
41 43 42 39 36 35 34 34 36 41 48 45 48 44 41 33 32 33 37 40 39 40 43 42 45 51 58 55 53 57 48 59 54 37 48 49 45 42 46 41 33 32 32 30 30
42 42 40 36 36 33 31 33 37 41 46 47 42 41 36 34 34 32 34 32 32 35 38 38 38 41 43 52 60 56 58 61 43 49 56 47 46 44 46 34 33 33 32 28 29
44 40 39 34 32 30 31 33 38 38 41 42 41 39 39 38 30 30 30 29 28 28 31 31 28 33 37 36 54 66 58 56 46 46 36 50 32 37 41 36 32 29 29 28 29
42 40 39 33 28 28 30 34 36 35 41 39 39 39 38 38 25 23 25 21 20 19 20 21 26 32 38 44 52 65 61 45 51 47 56 44 45 40 38 28 26 28 27 26 29
44 40 33 31 24 28 29 30 31 33 36 37 34 36 34 14 15 19 20 18 16 20 18 5 27 30 30 42 50 60 56 43 21 23 39 41 40 36 35 29 26 25 21 23 28
44 38 30 29 23 25 27 28 28 30 31 30 30 25 17 6 9 15 16 12 14 21 18 16 22 21 30 44 57 51 42 36 28 35 32 37 37 35 30 25 23 21 21 21 24
42 36 30 26 23 22 22 23 24 24 26 26 19 17 10 5 5 11 10 14 20 24 8 15 27 31 38 45 30 41 39 46 22 35 38 38 32 32 26 21 21 19 20 24 24
40 36 29 25 22 20 19 20 18 17 21 21 9 10 10 7 1 6 6 11 19 8 22 26 27 30 54 50 35 31 37 38 32 36 36 32 27 25 23 19 20 21 23 24 24
38 35 28 22 18 18 18 17 14 14 19 12 2 3 4 13 11 15 14 14 17 19 14 23 10 28 23 32 35 39 35 31 36 34 30 27 26 18 19 19 21 21 21 21 23
39 33 25 18 19 19 17 16 14 13 14 8 5 6 8 16 11 14 13 14 23 20 13 10 25 13 22 34 30 31 36 31 33 33 28 25 24 22 21 18 19 17 17 19 22
37 30 23 20 20 18 16 14 13 13 13 6 5 13 12 11 12 15 15 26 31 24 15 13 11 22 23 29 32 28 19 24 32 28 26 25 25 26 26 22 20 23 21 22 23
35 30 22 22 21 19 15 13 10 10 14 6 7 15 16 14 15 17 24 27 25 17 13 14 15 20 23 17 23 22 22 23 27 26 26 22 20 26 29 28 23 23 23 25 27
34 28 25 23 20 17 15 13 10 11 14 13 10 16 20 18 18 18 16 18 21 21 12 13 15 19 21 20 19 20 23 22 21 19 26 26 21 26 25 26 25 25 23 24 25

GFSSW_500_spd_009.txt.gz
Wind_Speed
33 34 33 31 31 29 29 28 26 25 26 26 27 28 32 32 34 37 37 39 36 35 34 34 35 36 36 34 34 37 37 33 27 33 26 32 32 28 23 20 22 23 26 34 30
32 33 32 33 33 31 30 28 27 26 26 26 25 27 31 31 31 29 38 42 40 40 39 37 37 38 37 36 36 36 33 31 31 31 33 35 37 34 25 20 20 23 26 38 33
31 32 31 33 34 33 31 28 28 28 26 26 25 26 29 32 34 28 29 36 42 42 42 40 40 40 39 39 39 38 33 33 32 33 35 38 42 37 27 22 22 24 29 37 35
32 32 31 31 33 33 32 31 28 28 27 26 26 25 28 31 33 31 29 32 36 40 41 42 42 43 42 43 41 40 39 37 33 38 36 40 44 38 33 25 24 25 28 34 33
34 33 32 32 31 32 33 33 30 28 27 28 27 26 28 31 34 36 30 30 32 36 38 40 42 45 46 45 45 42 42 41 36 38 40 39 46 38 37 30 27 28 32 33 33
38 35 35 34 32 32 32 33 31 29 28 28 29 28 29 30 35 40 37 34 34 34 36 37 40 44 45 46 48 46 46 43 42 39 41 44 41 44 35 33 32 30 32 30 30
38 38 37 36 34 33 31 33 32 29 29 28 29 33 27 34 36 41 43 39 38 37 38 40 43 44 46 47 48 48 48 46 44 43 42 47 45 40 34 37 37 36 31 29 29
43 40 39 37 36 35 34 34 33 31 29 31 29 34 28 34 36 40 44 43 43 45 44 44 45 46 47 47 46 47 50 50 48 47 45 52 38 40 36 41 42 35 31 27 30
47 46 44 42 39 37 35 35 36 34 33 33 32 35 32 34 36 39 42 43 45 46 47 48 48 46 47 49 51 53 54 55 52 49 49 54 45 40 34 44 43 38 32 30 27
48 48 48 46 44 42 38 36 37 38 36 35 34 37 36 34 36 40 40 42 46 45 43 43 46 46 48 52 54 54 55 56 54 48 51 52 48 41 36 44 45 39 36 31 26
51 49 47 48 47 45 42 37 39 40 39 38 38 36 37 33 38 38 40 41 42 44 44 44 47 52 48 45 45 47 49 51 51 50 51 50 49 41 39 43 42 40 37 33 25
54 51 48 47 47 45 44 39 40 41 42 39 37 37 36 37 38 42 44 43 43 45 49 52 53 45 43 44 48 49 51 51 51 49 52 51 49 40 43 43 40 39 39 32 26
49 52 49 48 46 45 45 39 40 43 43 40 37 39 37 38 42 37 41 42 46 50 50 51 50 43 46 46 47 49 51 47 49 45 46 48 52 44 44 41 40 40 40 31 26
50 49 48 45 44 42 43 40 40 42 44 43 41 31 34 41 42 38 42 44 46 44 44 49 46 46 47 48 47 49 43 42 42 43 45 46 53 44 44 42 42 41 39 30 26
51 47 48 46 49 40 42 38 36 42 45 43 40 40 41 42 43 39 39 40 42 42 45 45 45 42 46 39 42 38 41 43 41 44 43 44 46 40 38 44 46 41 38 31 27
51 47 45 46 46 39 39 33 37 42 43 43 42 40 42 43 42 41 42 39 38 38 42 43 43 45 42 42 44 43 40 43 41 44 47 42 47 42 40 41 39 39 37 29 27
50 47 45 46 44 38 36 32 38 36 37 41 40 39 42 41 41 39 39 34 35 35 41 41 38 38 39 41 43 50 49 44 44 47 56 38 44 40 34 38 37 38 34 28 27
46 46 45 42 42 38 33 34 35 33 35 37 37 38 38 37 36 34 27 24 24 28 33 33 30 33 35 42 43 47 50 49 50 58 44 38 47 30 37 40 40 35 33 25 26
44 43 42 38 41 35 34 33 27 30 33 32 33 33 29 29 27 18 13 20 21 21 20 19 14 20 20 27 36 45 56 46 47 46 45 46 35 31 25 23 36 29 28 25 25
40 41 39 38 38 34 32 25 24 30 28 28 27 24 23 22 15 12 10 9 12 13 19 18 18 11 10 25 32 44 50 55 51 41 51 59 46 39 25 24 22 23 21 22 19
35 39 39 39 36 35 25 22 23 24 23 23 20 18 19 16 5 4 4 8 8 14 20 7 10 15 20 17 31 38 54 59 58 24 34 35 30 29 25 22 20 19 18 18 18
38 42 40 40 38 28 25 22 19 18 21 21 16 15 14 8 5 4 3 4 9 12 5 4 4 4 11 15 30 20 40 64 56 20 21 42 29 31 27 22 18 18 20 20 19
36 41 39 38 33 25 23 20 15 15 18 12 13 9 1 11 1 5 5 8 13 8 5 10 8 3 16 19 29 37 47 54 36 18 32 35 32 30 25 24 23 20 19 18 17
45 38 40 38 28 28 24 16 13 18 16 6 9 6 4 8 5 7 6 6 9 9 12 13 11 11 22 26 25 28 33 37 15 14 30 28 28 26 23 22 19 19 16 14 14
36 43 35 32 30 29 23 14 14 16 15 4 7 8 6 4 2 2 7 10 5 16 16 12 10 28 29 22 20 22 28 35 17 25 26 25 24 21 18 17 13 13 13 11 11
35 33 35 32 28 27 16 13 15 16 14 9 12 13 11 11 8 5 7 12 9 8 14 11 23 24 16 18 20 17 14 16 22 21 22 19 17 18 17 16 16 14 13 14 15
34 37 36 34 27 22 16 17 17 16 16 11 14 13 13 13 14 15 15 17 14 2 4 9 22 18 18 12 12 7 5 11 15 25 21 17 19 18 18 18 18 18 17 19 20

GFSSW_500_spd_012.txt.gz
Wind_Speed
34 32 33 35 34 34 33 33 32 31 29 28 26 27 27 27 26 24 27 33 35 35 34 33 32 32 32 31 32 30 32 28 29 29 27 33 35 36 28 27 24 21 23 27 31
31 32 30 31 32 32 34 34 33 33 31 29 27 27 28 25 24 17 28 26 30 37 40 38 37 35 35 34 36 34 30 26 25 29 29 37 39 38 34 29 24 22 24 28 31
30 31 29 29 30 30 31 32 34 34 32 30 29 29 27 26 24 19 26 28 29 31 40 44 42 40 39 37 36 34 28 28 26 28 36 35 43 41 36 29 24 25 26 27 30
31 30 30 29 29 29 30 31 32 33 33 32 30 29 28 28 26 20 27 29 32 32 34 43 46 44 42 42 39 37 34 33 29 30 34 40 39 44 39 30 30 28 28 30 30
34 32 31 31 31 29 28 29 30 31 31 32 29 28 28 29 29 26 23 27 32 33 34 36 41 44 42 43 41 40 39 38 36 34 36 39 43 41 41 37 32 31 30 31 35
37 36 35 33 33 32 30 29 29 29 30 31 30 29 30 32 32 31 27 26 31 35 35 37 37 41 44 43 45 43 42 43 42 38 38 41 42 46 38 37 39 35 31 34 37
42 40 39 37 35 34 34 31 31 30 29 29 31 30 30 33 33 33 32 29 30 36 40 39 40 39 39 40 43 43 43 42 44 44 43 43 42 40 40 35 42 38 37 35 33
42 44 43 41 39 36 34 33 31 32 31 31 31 31 30 32 33 33 36 32 33 35 40 43 42 42 41 41 42 43 44 44 44 46 48 48 37 40 42 40 38 42 41 37 34
46 44 45 45 43 41 37 35 33 31 32 32 32 31 30 30 33 35 37 36 35 36 38 43 47 46 46 46 47 48 46 46 47 48 48 49 42 42 44 40 41 41 41 38 33
51 49 46 45 46 45 43 40 38 36 34 34 33 34 34 33 34 35 36 38 38 37 38 39 46 50 50 49 47 47 47 46 48 45 48 47 47 45 45 44 40 43 42 41 34
47 51 51 48 46 46 45 44 42 39 40 38 36 34 32 34 35 37 38 39 40 39 38 40 46 48 45 45 47 49 47 47 49 53 53 55 52 52 47 45 44 46 40 43 36
55 50 49 52 50 47 44 44 45 44 41 39 38 37 39 37 35 37 40 41 42 40 43 46 45 43 47 49 49 49 49 48 50 53 55 54 55 56 52 47 46 48 43 41 37
59 56 52 50 52 47 46 43 43 43 44 40 42 40 40 41 40 38 38 42 42 43 44 44 44 47 50 52 54 53 53 51 51 48 54 56 57 57 53 49 48 49 45 41 37
60 59 55 52 47 47 45 43 41 40 44 41 43 43 40 38 40 44 45 43 44 42 44 48 47 49 49 51 51 50 47 46 46 48 51 49 57 57 52 50 51 48 47 41 36
53 58 56 52 48 43 45 42 39 40 44 44 43 40 40 42 45 42 44 47 44 43 45 47 45 47 53 46 45 47 43 46 47 48 49 47 56 55 53 52 51 47 43 39 35
47 48 56 51 47 43 41 40 40 41 44 42 39 40 43 43 44 44 45 46 45 44 46 47 50 50 48 47 48 46 44 45 47 46 52 47 52 53 48 50 49 44 44 36 35
35 39 46 51 47 43 40 40 39 41 39 37 37 38 40 42 42 43 45 41 38 40 42 41 40 39 41 41 43 45 46 45 46 49 58 47 50 52 43 44 43 44 44 36 32
36 40 42 48 46 41 40 39 39 38 33 34 37 37 38 39 39 38 39 35 34 32 32 34 34 41 38 37 38 41 43 46 47 47 45 42 50 47 38 38 39 44 41 34 32
31 31 35 42 42 41 40 38 32 32 31 35 33 36 34 34 35 36 33 26 18 16 20 23 31 33 36 37 37 34 43 35 45 42 37 42 45 44 30 38 41 43 37 34 27
27 31 40 40 39 41 39 34 31 30 33 31 31 30 27 29 29 26 24 17 16 16 19 17 20 24 31 32 34 38 33 42 45 46 44 47 50 42 29 32 39 39 29 28 28
41 42 39 36 39 41 36 29 29 32 30 28 26 24 21 17 6 7 9 5 4 9 14 16 22 24 28 26 27 33 41 37 42 46 44 35 42 35 33 35 28 30 25 22 24
46 38 35 39 39 39 34 29 30 27 27 24 21 19 8 6 5 4 7 8 10 11 14 14 14 11 15 24 20 25 33 37 43 46 35 31 32 32 37 33 23 22 26 25 23
43 39 38 36 37 37 27 28 27 25 24 21 17 14 9 13 9 11 13 19 19 14 17 11 3 6 3 12 9 20 36 43 40 43 31 27 22 29 26 29 25 24 21 21 20
46 41 38 43 35 32 29 26 25 24 22 16 16 13 10 16 14 10 12 17 18 11 8 14 9 3 3 5 12 7 23 38 42 43 42 18 30 23 21 22 22 21 20 19 18
40 43 40 44 36 29 29 26 24 22 18 18 18 11 10 16 13 6 8 14 12 8 3 9 23 18 4 10 10 10 22 32 42 42 24 14 31 23 27 24 22 20 18 16 15
36 42 34 31 31 30 28 22 24 22 19 23 17 12 8 9 9 8 8 1 8 11 10 17 27 16 16 16 13 15 17 27 23 18 11 33 38 28 24 21 19 17 17 15 13
38 33 26 28 28 27 25 25 25 19 22 21 15 12 12 15 11 6 9 5 5 10 18 23 22 15 4 12 14 11 15 16 15 23 37 28 24 24 20 18 18 16 15 14 13

GFSSW_500_spd_015.txt.gz
Wind_Speed
37 37 36 38 39 39 37 36 36 34 35 36 34 32 32 31 31 27 28 30 30 32 33 34 33 32 32 32 33 34 38 28 25 27 26 31 36 38 36 33 33 30 28 27 29
35 33 32 32 33 34 35 35 34 32 32 33 34 32 32 33 30 26 31 28 29 26 29 34 37 37 37 33 35 36 35 25 21 23 27 37 38 40 39 35 33 29 29 28 29
35 33 32 30 29 29 31 31 31 32 32 32 32 33 33 32 30 26 28 27 26 28 27 30 36 41 42 39 37 36 33 30 27 27 29 37 43 39 41 38 32 31 32 32 30
35 35 33 31 29 27 27 28 28 30 31 31 31 31 31 31 30 26 30 27 27 28 28 31 33 34 42 46 42 43 37 34 29 29 29 33 40 41 39 39 36 34 35 34 33
37 38 35 33 31 29 27 27 26 26 29 29 29 29 29 31 31 29 27 28 29 29 31 32 33 37 36 44 47 47 39 38 35 33 33 33 37 39 39 38 41 37 37 35 33
35 40 39 36 34 31 29 28 27 26 26 27 28 28 28 30 31 28 27 28 30 30 31 32 34 36 37 36 44 47 47 44 43 38 38 38 37 41 38 41 36 40 38 37 35
41 38 40 40 37 35 33 31 28 28 26 26 26 27 28 29 28 29 29 30 31 31 33 34 33 35 37 37 40 42 47 48 46 43 42 42 41 40 37 40 37 37 40 39 40
48 44 39 42 41 39 36 34 32 31 29 27 27 26 27 28 27 27 28 28 30 32 34 35 35 36 40 40 42 42 44 46 47 46 46 44 38 39 41 40 40 38 38 41 42
42 49 47 42 42 43 41 38 36 33 31 29 27 26 27 28 29 27 28 30 32 33 34 36 38 36 37 42 46 45 44 43 45 45 48 49 42 40 42 44 40 38 41 41 45
50 44 51 50 45 43 43 42 39 38 35 31 29 29 29 28 29 30 30 30 31 33 34 37 39 39 40 38 42 45 48 49 50 51 51 50 48 48 45 48 46 39 39 44 43
53 53 49 52 51 48 44 43 42 41 38 36 35 32 32 31 31 32 32 32 33 34 35 38 40 41 40 38 41 47 54 55 54 54 54 54 53 51 49 48 49 42 42 43 43
56 57 55 50 50 53 49 44 43 43 41 40 39 36 34 33 33 34 34 34 36 37 39 40 40 42 44 44 46 48 51 53 54 53 56 56 56 55 53 49 49 48 44 46 43
59 59 59 54 52 49 49 48 47 43 42 41 40 39 39 39 38 36 38 37 38 41 43 43 41 45 49 49 49 48 50 52 53 52 53 58 55 54 52 53 51 49 47 48 48
58 58 57 60 57 50 44 47 48 44 45 41 40 41 41 41 42 43 39 39 41 43 47 48 46 47 48 49 49 50 49 52 54 57 57 56 60 52 51 49 50 51 51 47 49
46 50 49 62 58 50 46 48 44 44 45 41 40 40 40 41 42 42 43 44 44 47 50 49 48 50 52 51 55 56 53 54 56 58 60 58 64 55 54 51 50 51 52 51 50
48 49 46 50 58 52 51 47 43 41 44 40 39 38 40 41 41 41 44 47 48 51 51 50 51 53 51 52 56 55 54 55 56 57 64 58 60 58 51 49 50 53 53 51 49
46 45 41 41 40 48 51 47 44 42 37 38 37 38 40 41 40 38 42 47 49 49 49 48 47 49 51 51 54 54 50 51 53 57 67 62 60 59 49 48 51 50 48 48 46
50 42 38 42 34 47 51 48 45 39 35 36 36 38 36 34 34 40 45 43 43 45 45 47 49 44 42 42 40 42 41 46 50 54 58 54 65 56 50 45 43 48 47 49 48
45 41 50 41 42 43 49 48 41 35 36 35 36 35 31 31 37 36 35 39 38 33 28 27 27 23 26 31 34 40 41 33 40 46 47 48 52 51 42 38 37 42 45 50 43
57 50 48 37 36 37 46 45 39 36 34 34 33 29 28 32 29 23 20 16 9 12 16 20 22 24 29 34 36 38 37 34 37 38 43 40 39 39 33 31 38 40 40 42 38
60 35 43 40 35 37 47 41 38 34 34 33 27 26 29 26 13 8 10 6 10 15 18 21 21 16 25 23 27 32 34 39 39 42 37 39 38 30 32 32 31 38 38 34 32
28 37 44 35 37 28 37 38 36 34 34 27 26 28 23 16 14 14 12 20 19 20 19 23 27 26 28 33 32 35 32 34 41 36 40 36 35 25 21 32 25 34 39 35 36
41 24 36 39 33 30 32 31 33 32 28 24 27 20 16 13 17 20 14 20 23 26 20 19 26 29 22 19 23 33 38 34 33 32 36 36 18 20 24 32 33 30 36 37 35
28 24 32 35 38 22 27 29 29 27 25 26 20 15 14 18 23 20 15 17 19 19 16 20 23 26 23 21 16 15 14 18 34 34 23 30 25 23 27 30 22 36 39 35 32
24 21 24 41 31 31 30 30 27 25 27 23 15 13 14 16 21 23 14 17 12 9 8 15 24 24 14 1 9 10 6 11 23 15 25 24 27 35 24 31 26 27 29 31 28
21 33 29 32 23 26 24 24 24 26 23 16 14 15 12 14 19 15 12 15 5 12 13 17 27 13 5 10 10 1 8 12 18 22 24 20 30 32 36 32 28 28 22 20 21
39 31 33 24 26 27 22 20 23 20 18 15 18 13 11 21 15 13 9 10 13 16 12 17 22 17 6 8 8 5 12 20 22 22 11 31 34 35 34 30 26 24 22 18 17

GFSSW_500_spd_018.txt.gz
Wind_Speed
35 34 36 36 37 39 38 41 43 45 44 44 42 41 41 42 42 37 35 36 34 32 31 30 31 32 31 31 35 36 40 34 30 30 27 33 36 36 36 38 37 34 31 29 29
37 35 36 36 36 37 37 36 39 42 41 41 41 40 39 38 37 32 36 35 32 30 29 28 30 33 34 32 34 35 34 26 24 27 29 35 41 42 38 39 38 36 35 34 31
39 36 35 37 35 34 34 32 33 36 37 38 38 36 36 34 32 30 32 32 32 29 28 28 28 29 32 35 35 37 35 29 27 30 30 33 38 42 41 37 38 40 40 37 35
42 36 34 37 36 35 34 31 30 32 33 35 36 34 33 32 31 28 32 33 30 28 29 27 27 27 27 29 35 41 39 36 31 34 34 34 37 39 37 35 37 40 42 38 36
36 40 35 36 38 36 35 33 31 29 28 31 33 33 33 31 30 29 30 30 30 27 30 27 27 28 28 29 32 36 36 42 38 37 37 36 35 35 34 33 36 37 40 40 38
37 37 41 35 38 38 36 35 34 31 29 28 29 31 31 31 30 27 26 28 29 28 29 27 27 27 28 29 31 33 35 35 43 40 39 38 35 39 28 33 34 34 36 40 39
41 38 42 41 37 40 39 38 35 33 29 27 27 27 27 29 28 27 27 27 27 28 29 30 30 30 28 28 31 32 35 35 37 40 42 43 42 39 34 37 38 34 32 36 41
37 42 40 44 41 39 42 40 38 35 32 29 26 25 25 25 25 25 25 25 26 28 29 29 30 30 32 32 32 34 34 35 36 39 45 48 45 40 40 41 40 40 33 34 37
44 43 45 42 46 43 41 43 41 38 35 31 28 26 25 24 23 24 23 24 24 26 28 28 29 31 33 34 34 34 34 35 38 42 46 50 54 48 47 43 42 42 38 35 34
48 48 50 47 45 49 45 43 43 40 38 34 31 29 27 26 26 25 25 24 24 25 26 27 29 31 33 34 35 36 38 39 39 43 49 50 55 52 50 46 43 45 42 37 36
52 53 52 53 51 47 51 45 42 43 40 37 34 33 30 29 27 26 26 25 25 27 27 28 29 29 31 34 36 39 41 44 44 43 49 53 53 52 52 51 47 45 43 41 37
55 56 60 57 55 53 49 50 44 42 42 41 38 35 33 32 30 29 28 29 30 30 30 31 31 32 36 39 41 42 44 47 48 47 48 51 54 56 54 52 49 49 48 45 42
56 60 62 54 50 58 51 49 50 46 42 41 39 37 37 35 33 33 33 34 34 35 37 37 37 38 42 44 45 46 46 48 51 51 52 53 50 57 54 54 53 51 49 48 46
53 61 61 48 38 58 56 50 48 48 47 41 39 38 37 36 36 36 38 38 40 40 42 42 39 43 46 50 52 51 52 53 55 56 55 54 56 52 56 54 53 51 51 51 45
48 58 57 52 46 53 50 51 47 44 48 45 42 37 36 36 35 36 37 39 41 41 43 44 45 47 50 50 55 55 54 56 56 58 58 56 61 51 50 49 50 48 49 50 49
42 53 64 58 44 44 44 49 49 47 45 41 41 37 36 36 36 36 36 38 39 42 43 43 47 51 52 52 55 56 56 58 60 61 65 60 65 52 53 47 45 48 48 48 48
37 42 53 63 51 42 46 47 50 49 42 34 32 34 36 35 35 35 36 37 37 40 44 48 51 54 54 53 54 54 53 55 59 63 66 64 66 56 54 46 47 46 51 50 50
37 47 47 58 49 47 42 43 50 47 41 35 31 30 31 32 33 31 31 31 38 44 48 50 52 50 50 48 48 52 51 50 52 59 63 63 68 59 58 54 48 42 46 48 50
49 45 56 60 44 38 40 42 48 45 39 34 31 30 29 31 28 27 28 32 36 38 38 34 25 25 23 26 30 34 42 39 44 45 47 55 67 65 64 56 52 46 42 47 46
62 45 59 53 49 40 36 34 41 42 37 35 32 29 31 26 25 26 27 28 24 20 22 24 26 24 29 29 29 31 33 31 36 44 48 46 44 46 49 47 47 43 45 47 48
61 45 48 37 41 43 27 27 37 40 38 36 33 32 25 24 25 25 23 22 18 19 24 26 28 34 33 33 35 37 36 34 37 44 45 45 40 31 30 27 33 36 44 47 45
64 34 40 29 39 33 28 28 33 37 38 35 33 30 22 25 23 23 23 23 16 21 26 32 42 36 34 34 36 35 39 42 41 36 36 37 41 31 30 23 31 35 41 38 36
36 29 35 40 34 28 28 25 35 36 36 35 32 24 25 21 21 24 25 22 19 25 30 31 38 36 30 32 32 34 31 29 41 40 39 36 21 22 24 21 25 34 37 36 35
32 32 42 39 41 25 22 28 32 31 31 30 25 25 19 18 22 22 20 17 20 23 29 26 24 28 33 34 32 35 31 22 22 29 18 21 11 19 26 16 27 31 33 35 36
32 36 44 45 31 21 22 24 25 24 25 24 24 19 16 17 19 16 15 12 18 15 15 20 18 21 14 13 16 17 12 11 3 3 13 9 19 23 25 27 26 28 34 39 39
28 37 37 36 25 30 21 21 20 20 21 23 17 17 17 10 14 9 10 9 18 14 13 9 16 14 12 16 20 14 9 9 6 8 7 6 25 26 28 25 31 26 37 37 35
26 21 19 27 22 26 19 19 20 20 16 17 17 17 11 10 8 11 8 10 12 11 6 10 13 14 18 16 19 15 2 9 8 14 13 12 15 23 31 27 19 30 41 36 31

GFSSW_500_spd_021.txt.gz
Wind_Speed
30 31 31 34 32 33 33 34 36 37 40 43 43 44 44 44 44 41 38 40 40 40 37 33 32 30 31 30 30 32 34 30 27 29 30 34 37 36 35 34 42 39 36 34 32
30 32 34 35 34 33 33 34 36 35 37 39 39 42 43 43 44 41 40 39 40 39 35 34 32 31 32 32 32 33 34 25 25 29 34 38 41 43 40 37 36 40 42 38 37
27 34 34 37 36 34 32 32 34 36 37 38 38 39 41 42 43 41 40 37 38 38 35 34 32 30 30 30 30 31 30 27 23 25 31 37 42 46 43 38 36 37 37 42 40
30 30 37 37 39 36 34 34 36 35 34 35 36 37 38 39 41 39 40 36 37 35 33 33 32 30 28 28 25 24 24 27 26 28 30 33 39 42 41 29 33 35 37 34 41
34 34 34 41 40 38 35 36 38 35 34 34 33 33 35 36 37 38 40 37 35 32 31 32 31 29 27 25 25 24 23 23 25 30 32 33 35 38 38 29 33 33 34 35 33
35 38 38 41 39 41 36 38 39 37 36 33 32 32 32 34 37 35 35 34 33 32 31 31 30 29 26 24 25 25 24 24 24 25 30 37 35 46 35 34 33 30 27 30 34
41 39 39 39 43 39 41 38 39 38 36 34 31 30 30 33 35 34 34 35 33 32 31 31 31 30 27 25 24 26 25 24 23 24 27 35 44 42 37 40 36 35 30 28 28
48 43 41 40 46 41 45 38 40 38 37 35 32 29 28 29 31 33 33 33 30 29 29 28 28 28 29 29 29 29 29 25 25 25 25 29 34 42 41 41 41 38 38 33 30
52 48 44 44 45 45 41 45 39 40 38 36 34 30 27 27 27 28 28 29 29 28 27 27 27 27 28 29 29 28 28 28 29 29 28 26 29 37 46 46 44 43 42 39 34
52 51 50 47 47 50 46 44 43 40 40 36 34 32 29 27 26 26 24 25 24 24 24 24 25 27 27 27 28 31 32 33 33 31 32 30 33 29 40 50 52 49 47 43 37
50 55 55 53 54 51 53 46 47 40 39 37 37 35 32 30 28 27 25 23 21 21 22 25 25 24 26 28 30 31 33 34 36 36 35 36 42 39 34 41 50 52 51 48 44
41 54 61 60 58 41 54 48 42 45 40 41 40 36 35 32 29 27 25 21 21 21 22 23 24 25 27 28 31 33 35 37 40 41 47 46 50 48 43 39 44 49 53 52 48
35 47 60 61 58 57 56 52 46 45 45 41 40 39 37 35 32 29 26 24 24 24 24 26 29 31 34 36 38 39 42 45 48 49 50 55 59 52 48 45 43 48 50 49 49
28 37 52 58 64 61 45 48 48 45 49 44 39 40 38 36 34 31 29 28 27 27 29 32 33 37 40 42 44 48 48 50 53 57 58 54 62 57 50 44 46 46 50 49 48
19 34 41 54 54 43 44 39 45 47 45 48 43 37 35 36 33 31 30 30 30 31 32 33 36 39 43 44 48 50 53 55 58 60 62 62 66 61 58 49 44 45 49 51 50
27 27 38 48 53 46 41 41 46 47 48 43 45 40 36 33 30 31 30 29 28 31 33 36 41 43 43 46 50 53 56 58 60 61 65 61 64 59 56 56 47 44 47 49 51
17 12 36 50 60 56 33 50 44 45 47 41 35 38 36 33 31 31 30 29 31 33 35 37 37 40 44 49 53 57 59 61 63 65 67 65 65 58 56 56 58 50 48 48 51
11 8 35 66 64 56 33 46 37 38 43 39 31 32 32 33 31 30 30 30 30 31 32 33 35 39 40 37 34 30 32 37 42 49 56 59 69 62 58 61 59 56 49 48 52
10 20 43 68 63 49 34 36 33 31 35 39 34 28 24 23 24 25 26 24 24 26 28 31 30 25 21 25 36 37 39 35 39 37 42 40 40 55 60 59 61 60 50 46 45
14 30 42 73 52 50 34 35 39 27 31 37 36 30 26 24 22 22 21 21 23 25 26 23 18 19 27 34 41 46 45 42 43 42 46 48 43 32 23 35 32 51 55 46 47
25 37 35 50 46 39 43 37 27 25 31 37 32 29 27 26 25 18 18 21 23 25 21 22 23 23 32 39 44 43 45 47 48 49 50 50 45 31 29 26 28 25 33 48 47
31 43 42 54 45 42 32 31 28 24 33 35 35 32 32 29 18 17 19 25 24 22 23 24 28 33 31 33 36 34 33 39 43 40 45 47 31 31 29 24 30 30 29 34 48
37 34 50 50 43 38 35 25 19 26 34 37 35 34 31 21 19 18 23 25 24 21 20 25 31 27 24 22 25 32 31 34 37 36 34 42 29 28 23 31 26 24 34 39 48
27 28 42 39 39 33 26 22 17 24 33 34 34 30 23 19 19 21 23 22 16 18 19 21 22 24 20 20 25 25 19 20 22 28 18 16 10 10 12 21 23 27 33 43 44
22 28 30 41 33 31 22 19 18 23 27 27 26 25 20 18 20 20 19 14 13 12 15 19 13 15 11 17 19 12 14 9 6 5 2 5 5 13 22 24 27 25 28 36 40
23 24 32 34 33 24 20 20 23 22 21 21 23 20 18 18 17 15 11 9 7 7 11 10 8 9 14 16 15 13 6 6 4 5 2 9 13 19 20 12 22 23 26 33 38
22 27 27 28 26 16 17 17 19 20 19 19 19 17 18 17 13 12 9 5 3 5 3 3 8 10 15 17 20 9 2 1 1 1 7 11 10 9 13 26 22 21 33 32 30

GFSSW_500_spd_027.txt.gz
Wind_Speed
23 25 23 26 28 36 32 34 34 34 37 41 43 44 47 48 48 46 43 45 46 44 45 44 44 43 41 40 38 40 41 36 32 26 25 35 33 37 34 31 29 32 38 39 32
28 29 28 28 27 29 37 35 35 35 36 37 39 41 44 46 47 47 46 46 45 44 45 44 43 44 43 39 37 40 41 36 29 29 32 36 35 41 35 35 35 32 34 36 39
31 31 32 31 31 28 32 43 35 36 35 36 38 40 40 44 46 44 46 46 45 45 44 44 43 43 45 40 37 39 40 34 35 31 32 34 33 41 39 38 36 36 36 37 33
38 36 34 34 33 33 33 35 38 38 38 37 38 39 39 41 44 42 46 46 45 46 44 43 42 43 46 41 38 40 38 37 37 32 35 33 33 39 38 40 38 40 40 33 33
45 43 40 38 37 36 37 37 36 40 40 39 38 38 39 39 40 39 41 45 45 46 44 42 43 43 46 43 41 38 38 38 35 34 34 35 34 33 40 39 39 37 35 33 33
46 49 47 45 42 41 40 39 38 37 43 41 38 39 39 38 36 38 39 43 43 44 44 41 42 45 46 45 39 40 40 35 34 31 34 33 34 35 35 33 38 38 33 32 32
49 51 51 52 49 45 44 42 42 41 40 42 41 40 39 38 35 35 37 40 42 44 44 41 42 43 44 45 42 41 38 37 33 32 32 31 30 32 31 34 37 39 38 35 34
57 57 58 58 58 53 48 46 44 44 41 41 41 41 40 37 33 33 34 38 40 42 42 41 42 43 42 42 39 41 39 37 36 33 33 32 29 31 31 31 34 37 39 38 35
76 69 64 63 63 60 56 49 47 45 44 42 42 40 39 36 32 31 32 35 37 40 41 40 41 42 40 39 40 41 39 38 38 35 36 35 32 30 29 30 30 33 33 36 37
73 67 57 57 61 62 61 51 43 44 46 44 44 40 37 36 32 31 31 32 36 38 40 39 39 41 39 38 38 40 42 40 39 38 37 36 35 33 33 32 31 28 28 28 30
45 42 38 36 37 50 56 48 47 53 46 42 38 38 35 35 33 30 28 30 34 38 39 39 38 35 35 37 38 38 38 37 37 38 39 40 39 38 38 35 34 33 32 31 31
26 20 20 25 32 44 54 51 53 47 45 38 39 39 37 35 32 30 28 29 32 33 35 36 34 31 32 31 32 32 32 34 34 36 38 39 38 39 38 37 39 39 38 35 35
5 1 5 10 32 43 50 56 47 45 49 46 43 43 39 37 33 31 29 28 29 30 30 32 30 27 25 25 26 26 28 29 31 32 34 38 39 39 41 40 39 39 41 42 41
3 5 7 9 23 41 61 53 53 48 47 43 45 42 39 38 35 33 31 27 26 24 27 28 23 23 22 22 24 25 27 30 33 36 38 40 47 44 47 48 48 48 50 51 51
7 4 10 12 17 36 70 62 44 41 37 40 45 43 40 40 36 33 29 27 26 25 24 24 21 20 20 23 25 28 30 34 37 41 44 47 54 48 54 55 58 61 61 60 60
15 12 11 10 16 40 76 51 41 43 43 43 44 42 41 40 37 34 31 28 25 25 24 23 21 21 23 25 27 29 33 37 42 46 49 53 57 51 59 63 69 71 72 70 66
18 15 13 11 25 50 72 46 47 49 42 34 40 40 40 36 37 35 32 28 27 25 23 23 22 24 25 27 29 33 35 39 44 47 49 51 58 56 48 57 56 61 66 70 69
9 14 7 15 27 63 54 48 49 47 42 32 33 37 40 34 36 34 32 29 28 26 24 24 25 25 25 29 32 32 34 34 42 44 46 51 50 50 54 51 53 48 39 40 50
15 3 6 22 40 65 50 46 36 43 37 23 30 34 38 36 30 31 31 29 26 25 25 26 26 26 28 29 29 29 33 36 39 44 51 54 54 53 57 52 51 59 61 55 52
6 6 10 27 54 61 45 29 31 38 37 25 22 27 29 33 30 27 26 26 26 25 26 25 27 27 26 27 28 33 34 36 41 49 51 54 54 58 48 42 44 52 48 40 48
7 4 14 33 49 46 41 29 33 37 28 23 22 28 21 26 28 28 28 27 26 27 28 27 27 23 24 27 30 32 35 39 42 46 49 54 44 46 42 46 48 41 43 28 31
12 20 23 45 56 40 28 27 35 31 26 21 25 28 25 25 28 31 30 29 29 27 24 24 22 21 24 27 30 34 34 37 43 43 50 55 37 45 44 44 37 38 37 32 31
23 36 35 42 41 37 24 28 28 25 22 25 27 31 27 24 26 26 25 24 22 24 22 19 20 21 24 24 31 30 32 35 43 46 47 48 44 35 48 42 38 36 36 38 37
31 34 37 36 30 33 28 29 24 19 20 25 32 34 28 25 23 23 19 19 20 17 17 18 18 19 20 24 27 27 28 33 39 45 42 39 43 34 43 35 36 40 40 36 38
33 27 38 37 34 36 37 28 16 17 15 20 29 32 33 25 23 20 16 16 16 16 17 16 14 17 18 20 22 25 29 33 35 33 38 32 39 33 40 39 29 25 30 32 34
32 20 30 36 30 29 25 23 18 15 16 19 28 31 29 27 21 18 15 17 17 15 15 12 14 14 14 18 18 17 22 23 23 26 31 34 35 40 31 28 24 16 15 23 29
34 19 24 23 22 22 17 15 14 13 12 17 25 28 28 24 20 17 16 15 13 13 11 12 10 9 12 12 10 10 17 19 19 19 22 27 31 24 21 16 11 9 11 16 17

GFSSW_500_spd_030.txt.gz
Wind_Speed
30 30 31 30 31 33 33 36 37 39 38 40 48 50 50 50 48 46 44 45 46 44 45 45 44 43 41 40 40 40 42 41 33 31 24 29 35 40 29 34 33 29 24 37 37
37 35 33 34 34 34 35 33 38 37 38 38 40 45 49 50 50 47 47 46 47 46 45 45 45 45 43 42 44 42 41 37 34 31 32 36 38 39 31 37 35 32 32 30 32
42 41 39 37 37 37 37 36 36 39 36 37 38 38 42 46 49 46 48 49 49 47 45 46 47 46 45 44 44 43 42 37 34 33 38 35 36 34 35 37 33 36 34 35 35
44 45 44 44 43 39 39 39 37 35 41 37 39 37 39 40 44 43 47 49 50 49 47 47 46 46 45 45 43 42 44 42 36 36 36 34 35 37 36 34 39 39 38 38 34
41 45 49 48 48 46 43 41 41 39 37 40 38 40 39 38 40 38 41 45 46 47 47 47 47 47 46 45 43 42 45 43 39 38 34 35 37 37 36 37 34 37 37 37 31
47 47 47 51 52 53 50 46 43 41 41 39 42 38 39 38 39 37 38 42 44 46 47 47 46 46 47 46 44 43 45 44 42 36 34 37 37 39 39 34 36 39 36 34 33
56 54 57 57 58 57 56 52 48 45 42 41 40 41 38 38 39 37 38 39 41 43 44 46 46 46 47 45 45 44 41 43 44 36 38 38 37 37 38 38 37 36 36 33 33
75 75 73 71 64 63 61 58 53 49 46 43 41 42 40 38 37 37 36 37 38 38 39 44 45 45 46 45 45 43 45 43 42 40 40 40 34 33 38 36 34 34 34 33 30
67 63 61 62 62 58 65 63 57 53 48 44 43 40 41 39 36 36 36 35 36 35 37 39 43 44 45 43 43 43 43 42 43 42 41 41 37 36 38 33 30 32 32 29 25
52 49 45 42 39 42 56 64 60 54 49 43 45 42 37 39 39 36 35 34 32 33 29 36 40 41 42 40 37 39 42 43 41 44 42 42 39 39 38 35 32 32 31 30 28
40 36 29 24 23 30 43 57 59 53 51 50 43 39 36 38 39 38 35 33 31 32 34 34 34 35 32 36 36 41 41 40 39 40 42 41 41 40 40 39 35 35 36 35 34
26 7 10 10 10 24 40 50 55 54 53 46 39 40 38 38 36 35 34 32 30 29 32 32 31 28 33 35 34 36 36 35 35 38 43 41 41 42 42 40 41 40 41 40 39
13 6 3 4 7 14 36 47 52 47 50 48 43 38 37 39 37 34 33 31 29 27 27 28 28 29 30 31 31 33 35 33 34 35 36 41 42 41 43 41 41 42 42 43 43
13 5 2 7 4 8 31 48 51 46 51 46 45 40 39 41 36 35 34 32 28 26 26 27 27 27 27 26 27 29 30 28 26 28 30 32 41 36 36 40 41 42 45 46 47
13 2 5 6 8 10 31 63 42 45 46 45 42 39 38 41 36 34 33 29 27 23 22 21 22 24 23 23 24 23 23 23 25 28 29 31 38 38 39 41 46 51 53 55 55
12 11 5 8 7 11 34 65 42 49 42 46 45 41 39 39 36 34 31 28 24 23 20 21 19 19 19 20 21 20 22 25 28 32 35 37 40 36 48 48 52 57 61 64 66
14 15 18 13 8 19 46 46 46 37 31 48 43 36 37 35 33 34 29 27 25 21 19 18 18 20 19 19 20 22 24 29 33 35 37 43 45 40 47 48 52 52 49 50 56
18 10 9 5 16 29 49 47 39 22 22 42 35 33 34 36 33 33 31 29 25 22 20 19 20 19 19 20 21 24 27 29 35 39 42 43 45 42 40 43 49 54 55 52 52
16 9 8 16 22 33 36 38 22 21 23 28 32 30 34 36 32 33 30 27 25 22 21 21 20 20 20 22 25 25 28 32 36 38 44 45 40 39 44 44 47 47 51 53 51
14 9 8 18 23 43 38 20 17 27 30 19 20 29 31 34 27 30 29 26 24 23 22 20 21 22 22 23 26 30 29 31 34 40 43 43 43 44 46 40 43 48 51 54 57
12 9 12 24 35 37 22 13 21 29 26 23 22 22 23 29 25 25 27 25 25 24 23 21 23 20 21 24 26 28 30 32 37 39 45 45 47 49 38 43 48 48 50 54 52
23 16 38 60 47 32 22 25 32 31 29 17 23 26 28 30 27 26 25 25 24 23 22 23 22 21 23 24 28 29 27 32 38 38 44 46 48 35 37 45 48 53 49 52 44
24 28 52 43 29 20 23 24 30 25 21 20 24 25 26 28 29 27 24 23 22 22 21 20 20 20 22 27 26 25 29 33 35 38 37 39 35 35 39 47 53 54 51 49 40
23 29 39 32 26 26 26 27 23 19 15 20 21 26 23 25 27 27 25 23 22 20 19 20 19 22 25 25 21 23 24 28 33 33 34 31 36 32 44 54 53 53 48 43 30
35 29 23 23 25 23 24 22 13 15 16 18 22 25 20 21 22 21 20 18 17 17 17 18 19 21 22 21 22 18 19 22 27 28 31 30 32 35 47 49 42 39 43 35 22
25 16 14 16 23 22 21 14 10 10 8 12 21 24 24 20 17 17 16 14 13 14 16 17 17 17 19 18 13 14 15 18 15 20 26 29 30 36 39 35 33 26 26 33 14
12 10 14 16 22 24 16 13 11 6 5 7 14 21 22 22 17 13 12 12 11 15 15 14 14 13 13 11 10 9 12 13 15 22 29 21 25 32 28 29 25 21 15 4 2

GFSSW_500_spd_033.txt.gz
Wind_Speed
40 34 37 38 39 38 35 36 36 37 41 37 38 48 53 52 51 50 48 47 46 46 45 43 42 42 42 42 40 40 42 36 29 28 20 25 30 36 38 30 28 33 27 30 30
48 43 36 40 41 42 41 40 38 36 38 42 44 39 46 53 53 50 50 50 47 46 48 46 46 45 44 43 43 42 40 33 31 30 27 31 35 38 39 28 27 34 29 30 32
49 49 46 40 43 43 45 43 41 38 37 39 43 44 41 45 54 50 51 50 50 48 49 49 49 48 48 46 45 44 40 36 36 35 35 35 35 37 38 34 24 35 30 33 34
55 56 54 46 44 46 45 46 44 42 39 39 41 44 45 41 47 51 53 50 51 51 49 49 50 50 49 47 46 44 42 41 38 38 39 35 33 34 35 36 30 33 37 31 32
66 56 50 52 48 48 47 47 47 45 42 39 40 43 45 42 39 42 49 51 52 52 50 48 48 49 48 47 48 46 45 44 40 41 42 37 32 33 35 36 31 32 38 35 30
73 72 65 60 56 53 53 49 49 48 45 43 39 40 43 41 41 38 40 46 49 52 50 49 48 48 48 48 49 48 48 46 43 40 41 37 33 35 36 35 33 36 38 37 33
79 73 71 64 66 66 60 58 53 50 48 44 42 39 43 39 41 35 36 39 42 45 47 48 49 49 48 47 48 48 47 45 42 40 40 41 38 38 36 37 36 36 39 38 34
68 59 53 48 44 53 64 68 60 53 51 46 45 39 35 43 38 33 36 35 36 38 41 43 44 46 47 47 47 47 47 45 39 42 42 43 37 37 37 37 37 37 37 37 35
56 44 40 37 34 36 33 51 67 58 53 48 44 41 36 36 36 33 33 35 36 36 37 38 42 45 45 47 47 48 46 44 41 43 44 43 41 39 41 39 37 36 34 35 35
42 34 30 26 23 24 25 33 51 61 53 41 42 44 37 34 35 35 32 34 34 32 34 33 38 41 43 46 44 40 43 45 44 45 46 45 44 41 41 40 36 36 36 37 35
30 24 14 8 10 9 19 29 44 50 56 51 49 43 39 37 36 36 33 32 31 31 32 34 36 33 31 35 40 43 44 42 43 42 44 43 42 41 40 41 40 40 39 39 37
23 5 6 4 5 8 14 29 45 55 58 52 49 46 40 35 35 36 34 30 29 29 31 32 32 31 31 35 38 41 39 35 37 40 43 42 41 42 42 41 43 42 42 40 40
18 7 1 4 3 5 11 24 50 69 55 53 47 43 36 33 33 32 32 30 28 28 26 29 30 27 29 31 29 31 34 34 36 36 36 40 39 37 40 41 41 42 43 44 45
14 3 1 3 8 9 10 18 53 64 55 47 43 43 37 34 35 34 34 32 31 31 31 30 29 30 29 27 26 26 28 27 27 27 31 35 41 33 36 39 41 42 45 46 47
13 5 5 10 7 6 1 26 55 61 50 45 42 39 37 35 34 35 34 33 30 29 27 26 25 26 25 24 25 22 22 21 23 25 26 27 37 33 29 34 37 38 40 43 44
25 17 11 13 18 3 21 40 46 52 42 42 45 41 39 35 33 33 33 30 29 27 26 25 25 23 23 21 20 18 18 19 20 21 26 24 30 34 33 35 37 42 46 49 52
27 18 10 14 3 19 51 44 48 36 37 41 45 41 34 30 32 32 28 28 26 25 21 19 18 20 20 20 17 16 16 18 21 22 25 27 30 29 35 40 41 46 46 47 51
19 19 12 11 21 48 47 28 29 43 45 44 39 36 30 29 31 30 29 27 25 21 22 20 21 21 19 17 16 16 17 20 23 25 28 32 33 35 37 40 43 43 44 47 47
14 14 16 20 42 56 39 22 25 38 37 38 40 30 32 30 30 30 30 25 24 22 19 20 20 18 17 17 16 15 18 20 25 29 32 34 35 37 38 38 40 44 48 49 48
18 17 18 38 44 37 26 24 24 24 31 33 32 29 25 28 28 29 29 26 23 20 21 19 18 17 17 16 16 18 20 22 25 30 33 35 36 34 35 35 39 41 44 47 54
22 25 46 54 41 25 27 23 30 40 31 29 24 24 26 26 29 26 27 25 23 23 21 19 18 16 16 17 16 18 21 25 27 29 34 33 35 37 32 36 38 42 48 52 55
37 48 36 29 29 35 26 21 24 29 30 27 24 26 25 24 27 22 26 25 23 22 20 18 16 15 16 15 18 20 22 23 26 28 29 36 32 27 27 32 36 43 45 49 53
44 32 38 30 32 23 25 26 24 24 21 20 20 26 27 27 25 22 24 24 23 22 19 16 15 15 16 18 19 18 20 24 25 28 24 32 26 25 29 35 40 46 51 52 49
24 30 26 30 30 24 22 20 17 15 12 16 16 20 21 26 23 20 21 21 22 18 17 15 13 16 18 18 16 18 18 21 22 22 17 19 22 22 31 36 43 47 49 47 40
22 22 19 24 29 26 19 17 13 10 12 13 18 16 20 22 23 20 19 18 16 15 14 14 15 17 19 15 15 14 16 14 17 16 22 16 16 21 32 37 35 37 46 34 20
16 16 14 21 21 19 17 10 8 8 7 9 12 17 14 16 19 18 17 15 14 14 14 15 15 15 16 16 12 12 8 9 13 12 16 14 13 22 33 36 33 30 33 26 14
3 5 10 10 11 10 9 10 9 8 4 2 6 12 14 15 16 15 16 15 13 12 12 12 12 14 16 12 9 8 8 8 8 14 18 17 17 22 24 30 32 27 26 22 10

GFSSW_500_spd_036.txt.gz
Wind_Speed
42 42 41 42 38 39 35 42 42 39 37 38 42 42 50 58 59 57 53 53 51 50 49 45 41 40 43 45 46 44 46 41 33 31 25 28 31 33 35 34 30 29 29 27 29
49 48 48 48 47 45 45 41 46 44 41 37 38 47 40 49 59 57 56 56 54 50 50 47 44 42 43 44 46 46 46 38 33 30 29 34 38 38 37 33 28 28 29 30 29
54 57 58 57 55 53 46 45 48 49 45 41 40 41 49 43 50 55 56 55 55 52 51 51 50 46 46 47 47 46 45 37 34 31 36 38 38 38 38 34 26 27 31 33 32
62 65 67 65 64 61 52 47 51 50 49 44 41 43 43 47 43 48 57 55 55 54 53 50 52 50 48 48 47 46 43 40 36 38 38 37 38 39 40 33 26 27 31 33 31
75 76 77 76 71 66 59 54 53 51 51 48 43 42 42 45 40 40 48 55 54 54 53 51 51 51 51 50 50 49 46 43 41 41 41 38 36 38 38 35 31 28 34 36 32
73 70 67 64 63 60 67 63 58 54 52 48 45 43 40 35 42 41 41 49 55 53 52 52 49 50 51 52 53 51 50 49 46 43 42 39 34 35 36 39 38 31 34 37 35
71 61 54 45 40 40 50 63 63 59 52 48 45 44 41 40 42 39 40 41 47 53 51 50 51 51 49 50 51 53 52 50 47 43 44 44 38 35 38 42 43 36 34 36 37
63 53 40 32 28 29 33 43 66 64 55 49 47 44 40 41 39 37 38 39 41 46 49 51 51 50 49 50 49 51 50 50 44 46 46 48 38 38 40 43 44 41 37 37 35
59 45 29 21 19 19 22 26 47 69 59 52 46 45 40 39 34 36 38 37 37 38 39 46 48 50 51 51 50 50 50 48 45 46 46 47 42 38 43 44 44 43 38 36 36
57 37 21 10 9 10 12 21 35 66 65 54 46 42 38 34 36 38 36 37 35 35 34 33 42 46 49 51 50 48 46 47 46 47 47 46 45 39 40 43 43 43 42 39 37
54 30 6 8 5 6 7 16 26 51 64 55 49 43 39 37 39 36 35 35 32 34 33 34 35 40 43 41 44 46 48 49 46 45 46 44 45 40 37 42 44 44 45 43 41
48 23 10 6 4 5 5 5 23 47 55 55 49 47 41 36 33 32 37 33 34 31 32 33 31 30 31 33 40 42 44 42 40 44 46 44 43 41 39 40 44 44 44 45 44
40 31 17 14 10 9 9 4 25 50 53 47 43 42 34 34 33 33 28 32 30 29 26 27 27 29 30 28 30 30 37 37 38 41 41 41 42 39 37 39 40 42 44 47 46
29 22 12 10 18 12 8 11 39 57 52 42 43 39 37 34 33 33 32 32 29 30 29 28 26 26 26 32 34 32 32 32 33 34 38 38 42 31 34 36 36 38 42 42 41
22 24 12 9 17 13 5 34 55 68 42 39 42 44 39 33 30 34 31 30 32 27 28 28 26 26 27 28 27 27 26 24 26 30 33 28 38 29 26 30 31 30 34 38 40
22 23 6 9 14 1 24 63 65 46 40 49 48 45 41 35 33 34 30 32 28 33 31 26 25 24 24 27 26 23 23 22 22 22 28 20 30 33 20 25 29 34 35 37 39
25 21 11 8 6 17 43 66 45 26 46 38 48 40 37 32 31 32 31 30 28 27 27 24 23 23 23 23 22 20 21 22 21 19 17 17 23 27 25 27 31 36 39 41 45
27 26 36 34 35 35 34 46 31 35 36 42 43 37 33 31 30 29 28 26 25 23 19 17 21 23 23 23 22 21 21 18 16 15 17 20 22 26 29 32 35 39 42 45 48
43 45 43 51 49 42 35 31 21 34 26 39 38 32 33 30 28 27 25 27 24 22 22 21 22 20 20 19 19 17 16 16 16 18 20 22 24 27 30 32 37 41 43 45 48
44 34 39 37 37 34 36 32 26 24 29 31 33 35 28 26 26 26 26 24 23 21 20 22 21 20 19 17 16 16 15 15 16 20 21 23 25 26 27 30 34 39 43 47 49
33 29 34 43 39 34 29 28 23 27 31 28 27 23 24 22 24 25 23 23 22 23 21 21 20 18 16 17 16 14 14 14 17 21 24 21 21 23 24 28 31 34 38 42 45
34 28 29 27 31 32 29 24 22 24 26 26 21 21 18 21 21 23 22 24 22 22 20 18 17 18 18 14 13 11 14 17 20 21 20 24 15 22 25 22 27 32 37 41 47
29 27 14 17 24 30 32 25 22 20 19 18 17 20 20 22 24 22 21 22 21 20 17 16 16 16 14 13 12 14 17 18 19 16 16 24 17 22 11 19 26 33 36 39 44
17 20 15 8 3 21 22 23 20 18 15 14 16 17 21 20 22 19 20 21 20 18 17 16 14 14 14 14 14 14 16 16 13 13 13 20 10 15 16 23 26 30 33 37 43
13 13 14 15 12 11 13 17 14 12 10 11 9 15 17 19 21 17 18 20 20 18 15 13 14 14 14 15 12 13 15 13 12 13 9 14 14 12 20 23 26 30 32 35 42
12 11 7 9 12 6 9 8 10 12 10 6 8 9 12 20 19 17 15 15 15 15 14 14 15 15 14 12 12 13 12 12 9 9 7 7 8 14 20 21 25 28 29 34 36
8 4 5 4 6 8 9 10 8 4 4 4 4 9 8 11 17 16 16 16 15 14 15 14 13 12 14 14 13 11 10 9 7 5 5 8 11 13 19 24 24 27 28 30 33

GFSSW_500_spd_039.txt.gz
Wind_Speed
49 47 48 46 48 49 49 46 42 38 40 43 41 39 50 49 59 60 55 53 53 50 49 47 46 48 51 52 52 52 51 46 40 35 33 36 38 39 37 33 33 33 30 29 30
54 54 57 58 57 56 56 57 52 46 43 46 44 43 42 49 51 58 58 59 55 51 49 48 46 46 47 47 50 52 50 45 42 36 36 39 40 40 38 38 33 30 29 29 31
64 65 69 70 70 70 68 66 60 56 48 48 48 44 43 42 54 49 60 59 58 54 51 50 50 48 46 45 47 48 48 45 39 37 37 39 42 43 41 39 31 28 28 28 30
74 78 73 68 67 66 64 71 69 61 53 53 49 45 45 44 43 48 52 58 58 56 55 51 50 50 47 45 45 45 46 43 38 38 38 42 45 44 41 36 33 28 28 28 31
82 79 69 65 60 57 59 63 68 64 58 56 52 50 48 42 39 47 44 53 58 56 55 53 50 48 49 47 45 43 44 42 39 40 41 42 43 40 37 36 38 32 32 33 35
81 70 62 58 44 34 36 44 57 64 61 58 54 53 44 45 49 44 45 41 53 53 54 54 52 49 49 50 48 47 46 45 43 43 43 42 39 38 35 38 41 35 36 38 36
77 62 56 53 30 23 23 28 40 57 63 59 54 54 50 38 45 42 46 38 43 51 52 50 51 51 49 50 51 51 49 49 46 44 44 44 41 37 36 39 42 40 39 40 39
64 56 53 38 22 16 17 16 19 45 65 59 55 53 53 39 41 42 41 40 39 46 51 52 50 51 49 50 50 52 52 50 47 46 46 48 42 41 41 40 42 43 43 40 37
58 45 45 22 13 12 12 17 18 36 64 60 54 52 51 44 39 41 38 41 39 41 45 48 50 50 50 51 49 51 52 51 48 48 49 48 45 41 44 43 43 44 42 41 40
50 39 24 7 7 10 11 12 15 26 59 58 54 50 46 40 40 41 39 41 36 34 38 43 49 49 49 51 51 50 47 46 46 48 49 48 47 42 43 43 43 44 45 45 42
44 30 19 14 8 6 7 11 8 22 54 56 52 49 45 40 36 39 39 36 34 33 35 37 38 47 47 47 47 49 50 49 47 46 47 45 46 43 40 44 44 45 47 48 46
35 25 17 16 15 11 9 6 5 23 52 56 52 45 43 38 31 37 38 37 36 33 32 32 32 34 41 45 45 46 47 47 46 45 47 44 44 42 40 42 43 45 47 46 46
24 22 18 13 9 16 9 7 8 29 56 54 47 38 41 36 35 34 31 35 35 33 28 31 31 25 26 30 36 41 42 42 42 43 46 45 45 42 39 40 40 42 44 46 44
27 25 21 9 12 19 11 7 17 48 59 52 45 38 34 35 30 35 26 34 32 32 27 27 29 28 30 27 31 33 33 36 37 38 40 40 41 32 35 36 36 37 38 40 41
36 26 16 9 12 16 6 18 36 55 58 50 45 35 33 37 33 36 29 32 30 27 29 25 26 28 30 36 33 27 26 26 27 30 34 33 39 27 28 29 30 30 33 36 39
39 32 18 9 9 5 27 44 49 52 42 48 43 36 35 32 32 32 27 24 33 30 29 27 24 24 25 27 29 27 26 27 26 25 31 24 32 32 21 24 24 24 26 31 34
56 37 30 19 20 37 57 59 23 42 43 36 35 34 31 31 33 32 26 23 31 32 34 34 27 24 22 22 22 22 22 24 25 24 23 20 25 24 13 18 22 24 29 33 36
46 51 53 29 40 57 39 30 47 52 34 40 44 39 34 29 27 30 28 23 22 28 25 22 22 21 21 22 21 21 24 23 21 18 17 18 22 18 17 20 24 29 34 37 40
46 42 33 42 53 32 27 35 30 38 30 41 39 31 31 28 25 30 28 26 25 21 23 24 24 23 23 24 23 23 22 19 17 18 18 18 18 18 20 25 29 32 34 38 41
48 39 24 28 31 27 27 26 29 23 30 35 30 29 26 25 23 26 26 24 23 24 23 21 21 20 20 19 19 19 19 18 17 18 18 16 17 20 24 27 29 33 35 37 41
36 41 24 18 21 22 13 18 20 21 24 31 24 21 20 18 20 22 21 23 22 22 22 21 18 17 18 18 19 19 17 16 15 15 16 16 16 21 21 23 25 28 31 33 37
32 28 30 18 12 11 9 5 13 15 18 19 21 21 16 17 17 20 20 20 22 20 17 18 17 18 19 16 14 13 13 13 16 16 17 20 17 18 23 25 24 21 24 28 32
27 24 18 22 16 9 10 13 11 12 17 16 17 17 15 17 20 21 19 19 16 16 17 18 18 18 15 14 13 13 14 14 16 17 15 21 19 24 21 21 21 26 27 29 28
18 21 15 12 13 20 20 16 12 12 11 9 11 13 13 16 17 19 16 18 17 17 18 17 16 15 14 14 13 14 15 16 15 16 15 16 13 19 19 15 24 21 25 27 29
14 12 13 8 10 12 13 12 10 9 7 5 5 10 12 14 14 16 13 16 16 15 16 16 15 15 14 13 13 16 17 16 15 16 8 13 19 11 12 14 20 21 24 27 28
11 7 9 8 8 7 10 12 11 10 7 6 6 7 11 13 18 15 15 16 16 16 14 16 16 14 14 14 16 16 15 14 12 10 9 9 7 6 10 16 20 25 25 29 27
11 6 4 2 3 5 7 7 6 4 4 5 4 3 6 11 18 14 15 15 17 16 16 15 14 15 16 16 16 15 14 13 12 9 8 6 5 11 15 17 18 20 25 27 25

GFSSW_500_spd_042.txt.gz
Wind_Speed
56 57 55 55 56 55 53 53 51 53 51 48 44 45 44 43 53 57 55 54 55 52 54 52 54 53 52 52 52 51 51 48 42 39 34 36 39 41 39 36 36 36 33 30 30
62 64 66 65 67 65 60 59 64 62 60 56 52 47 48 47 44 55 52 57 57 53 53 51 49 51 54 53 52 52 50 45 42 40 36 36 40 39 39 37 37 35 32 30 30
69 73 76 75 72 64 59 62 68 72 70 63 58 54 51 49 44 41 56 52 57 54 52 52 52 51 50 52 53 52 49 46 44 43 39 38 40 41 41 40 37 34 33 31 29
77 81 82 65 58 55 52 58 59 68 71 66 62 58 53 50 47 45 50 52 53 55 54 53 52 50 49 48 48 49 48 47 45 44 42 41 42 43 44 39 39 35 33 31 27
85 85 66 57 53 49 49 51 39 56 65 66 64 60 55 53 47 46 44 49 50 54 53 53 49 47 46 46 45 44 43 42 38 38 40 42 44 46 44 40 40 35 33 33 31
86 72 54 52 44 42 40 30 25 31 49 59 64 62 56 52 39 45 44 43 42 48 51 52 50 47 46 44 45 45 43 39 35 34 37 43 47 47 42 41 40 38 36 37 37
81 56 49 44 41 30 19 20 22 25 32 55 64 63 58 54 42 32 47 36 40 39 47 48 49 50 48 46 45 47 45 42 37 35 39 44 46 45 40 41 41 41 38 39 40
68 47 39 35 21 14 10 12 16 13 18 52 63 60 56 53 43 35 45 36 42 38 44 47 47 49 49 48 46 48 47 45 39 37 41 45 43 45 42 41 40 42 40 38 39
63 37 30 23 12 12 12 11 9 16 17 41 61 57 56 50 43 28 38 39 36 41 42 47 48 48 50 49 48 47 46 46 43 41 42 44 44 44 44 41 41 41 43 39 37
58 30 24 18 15 12 8 10 12 17 19 44 57 55 53 51 32 37 38 40 35 37 36 41 48 47 49 50 49 49 47 46 43 43 43 44 46 42 42 43 43 43 44 45 43
53 30 22 16 13 12 14 10 9 7 20 48 53 52 50 49 35 31 36 34 35 32 25 37 36 48 46 46 46 46 47 46 45 45 45 44 46 42 41 43 43 44 46 47 46
51 37 26 18 7 12 13 11 11 4 31 53 51 48 48 51 35 30 36 30 33 33 33 30 39 34 47 46 46 47 47 44 42 42 43 43 45 43 39 40 43 45 46 46 46
52 37 22 17 12 13 15 10 8 12 46 52 48 46 46 44 36 33 36 30 28 34 34 29 28 33 33 43 43 42 43 41 40 41 43 43 43 39 37 39 40 43 43 44 45
62 37 23 13 11 16 15 6 9 31 54 51 47 45 45 42 32 32 34 29 28 34 31 29 24 26 23 25 38 42 40 38 38 40 42 42 42 33 38 40 40 40 40 41 42
56 43 31 20 13 9 7 15 29 52 55 46 41 44 39 40 26 34 34 26 28 26 27 27 26 28 26 26 25 31 33 34 35 37 38 36 38 26 31 35 33 32 34 37 39
48 50 52 47 35 28 29 41 50 52 48 40 37 37 35 35 26 30 31 25 28 26 26 26 24 28 26 29 29 26 26 26 28 28 31 25 28 23 24 27 29 28 29 32 36
53 51 51 56 47 37 47 49 45 52 46 41 37 37 34 30 29 31 25 25 29 28 29 26 21 24 26 28 28 27 25 24 25 25 26 20 22 22 17 18 22 26 30 33 35
45 55 51 59 49 32 45 35 41 43 41 31 25 28 34 27 25 28 24 21 30 29 28 28 23 24 23 24 24 23 24 25 24 21 19 16 19 18 16 15 22 27 30 31 33
37 43 44 51 50 30 25 35 37 33 30 29 28 25 27 24 25 30 25 17 27 24 24 26 24 21 22 22 21 19 20 21 20 19 18 17 17 18 19 22 23 25 27 30 32
31 34 38 34 38 34 19 24 17 16 23 24 21 24 21 18 22 23 23 19 19 21 23 20 21 20 21 19 20 22 21 21 19 19 18 16 15 16 21 23 24 25 26 29 32
27 26 29 24 27 24 13 13 17 19 19 20 14 10 14 13 14 19 20 17 18 17 17 20 20 21 21 22 20 21 21 22 20 18 15 14 15 20 22 23 23 26 29 29 29
25 18 25 26 18 13 12 10 12 15 18 12 10 12 12 11 13 17 18 17 15 16 17 18 18 18 18 17 16 18 16 16 15 14 14 15 17 19 20 22 24 24 25 24 30
20 16 17 22 25 16 18 8 5 8 11 12 9 10 11 13 16 19 17 17 17 16 16 17 17 16 15 15 14 14 15 15 14 13 13 17 18 18 19 20 23 18 20 26 27
16 15 14 15 16 20 17 15 12 11 9 9 9 10 10 12 15 18 19 16 14 17 17 16 16 15 14 14 13 14 13 14 13 14 16 18 15 18 15 13 13 17 21 21 23
11 10 10 10 10 11 10 10 10 7 4 4 6 9 8 13 14 15 13 15 16 15 15 15 15 14 14 14 13 13 14 13 14 16 13 16 14 13 11 9 11 14 15 18 22
7 5 7 6 2 5 8 8 9 10 8 6 3 8 10 13 14 16 15 17 17 17 17 16 15 13 13 13 13 14 14 14 15 14 13 12 9 5 10 11 15 17 17 20 20
6 6 4 1 1 2 2 3 5 4 3 4 4 3 5 8 11 15 12 13 15 16 16 16 15 14 13 13 14 14 15 15 15 13 12 9 8 8 13 18 21 22 21 20 21

GFSSW_500_spd_045.txt.gz
Wind_Speed
53 56 60 64 64 65 65 62 61 61 59 62 58 54 50 49 48 54 55 52 56 55 55 62 55 54 51 51 51 51 52 50 43 41 38 38 38 39 38 35 35 32 32 32 33
60 64 69 74 77 77 74 66 63 64 67 67 66 60 55 53 51 46 47 56 57 57 54 55 56 57 52 52 52 52 51 46 41 43 39 39 40 41 39 36 34 33 33 30 31
67 73 77 78 75 63 57 56 60 63 67 72 73 67 61 56 52 47 50 55 54 55 55 52 54 51 53 51 52 51 49 46 43 42 40 41 42 42 41 37 35 35 32 31 30
74 75 69 66 64 53 49 49 53 54 58 68 68 69 65 60 56 49 52 52 54 52 54 54 51 53 54 51 52 52 50 48 44 43 43 43 44 45 43 37 37 36 32 32 31
74 71 69 65 47 42 43 39 39 41 46 57 63 59 66 62 54 51 49 51 51 49 49 53 49 50 52 49 46 51 50 48 44 45 44 43 44 44 42 40 37 36 36 33 33
74 73 67 40 35 35 32 28 29 33 39 46 57 58 62 63 52 46 47 48 46 46 46 50 50 46 46 51 46 44 46 46 43 44 44 44 44 45 41 44 40 39 37 36 34
76 67 47 31 30 20 12 10 9 15 20 30 37 56 60 61 53 51 34 45 42 45 47 46 49 47 46 46 47 47 44 41 39 40 42 42 42 42 45 46 44 42 40 38 35
72 57 37 26 23 14 12 11 5 9 10 18 28 51 57 58 53 49 40 41 41 38 45 47 47 50 49 46 46 47 47 44 39 38 38 37 36 40 43 45 44 41 40 38 36
73 44 36 22 21 13 10 13 9 10 14 11 24 49 58 57 51 48 39 39 40 32 42 48 49 50 49 49 46 47 43 43 39 36 34 34 34 40 42 44 42 41 40 38 36
67 40 37 22 17 14 11 12 13 7 19 13 27 53 57 55 53 38 23 35 40 36 40 42 46 49 49 50 46 44 49 41 38 38 37 34 36 38 42 42 41 41 40 40 39
71 50 31 19 16 11 10 11 10 10 17 21 39 54 54 51 49 39 26 32 33 33 34 35 40 45 45 47 50 44 45 47 41 38 38 38 39 35 39 40 41 42 43 43 43
72 62 32 16 13 13 11 11 9 10 12 30 50 53 53 49 46 30 29 32 27 29 34 31 34 40 41 42 44 47 46 45 43 40 38 38 40 36 37 40 43 43 43 43 44
68 66 43 19 14 9 10 7 7 5 25 46 51 51 53 51 39 35 31 31 33 28 27 25 31 39 43 44 44 45 46 46 43 41 40 38 39 37 37 40 42 42 41 42 43
75 66 54 33 22 15 11 11 19 38 46 46 45 49 53 45 30 35 38 34 31 24 35 24 31 34 33 41 43 42 41 40 39 41 40 40 41 33 37 37 37 38 39 40 41
72 70 55 45 34 27 27 40 53 54 46 37 41 46 50 44 28 31 31 27 23 23 23 38 34 27 28 22 37 40 38 37 37 39 38 38 39 33 35 36 35 36 37 39 41
62 68 51 44 36 41 49 57 57 46 39 40 43 38 47 40 29 25 28 23 18 17 23 29 27 25 29 26 24 29 35 39 38 37 35 34 34 31 30 33 32 32 32 34 36
48 59 48 47 43 46 48 46 39 41 41 43 40 42 39 25 31 29 28 20 19 20 24 21 23 25 19 26 24 21 27 32 34 35 32 29 29 26 23 25 26 28 29 31 33
38 43 47 35 30 37 40 36 34 35 38 37 35 33 33 22 29 29 24 17 21 22 20 21 20 24 26 26 27 26 23 25 26 26 23 21 23 21 20 21 23 25 26 27 29
35 32 36 36 33 27 25 25 33 35 27 30 29 27 25 21 21 28 17 15 22 24 22 24 23 21 23 25 25 25 23 23 23 23 21 20 20 19 18 18 19 19 21 25 28
27 30 24 25 24 19 22 13 16 16 19 21 19 20 17 17 19 23 16 13 22 22 23 26 27 21 22 20 19 20 20 20 19 21 20 18 19 18 18 19 20 21 23 25 27
22 25 24 17 17 15 11 15 17 16 21 20 20 12 12 10 12 17 15 11 15 19 17 18 23 19 20 15 18 19 20 21 20 18 16 16 16 18 21 21 20 22 23 26 29
17 19 21 19 18 13 14 17 7 13 14 11 10 10 10 10 11 14 17 13 16 17 18 20 16 17 20 20 22 21 20 20 18 16 16 16 17 18 19 18 21 23 26 27 26
13 14 14 17 16 17 10 11 11 7 5 5 6 7 8 9 12 17 17 16 16 18 17 16 18 18 17 17 17 18 18 17 17 15 13 15 16 16 16 18 23 22 24 23 23
9 8 9 10 10 12 14 12 12 9 6 4 4 6 7 8 11 15 16 18 16 15 15 14 16 16 15 15 15 16 15 15 13 13 13 13 14 16 14 16 18 18 20 21 18
9 5 2 5 6 5 7 8 6 4 4 4 4 6 7 8 11 13 16 14 15 14 16 14 13 14 15 15 15 15 15 13 12 12 10 15 12 13 11 11 11 11 11 14 18
10 6 2 4 5 5 3 6 7 6 5 4 7 9 9 10 12 14 15 16 16 14 15 15 15 14 14 14 14 14 13 11 12 12 13 12 12 11 9 7 10 14 19 24 25
11 12 8 7 8 6 5 3 2 4 3 4 6 9 10 11 12 13 14 13 15 15 15 14 14 14 14 14 14 13 13 12 13 13 13 13 12 11 9 10 15 16 15 17 20

GFSSW_500_spd_048.txt.gz
Wind_Speed
53 54 57 60 64 68 71 73 73 71 69 68 67 65 64 60 54 54 51 51 60 59 59 59 57 56 54 54 52 52 53 53 48 43 43 43 44 43 42 39 37 34 32 30 29
58 61 64 67 69 66 63 62 59 59 66 72 75 73 70 66 60 55 48 51 60 59 60 58 58 56 60 55 53 53 52 49 47 44 43 42 44 44 42 40 37 35 32 30 28
64 68 74 73 62 56 59 60 60 57 58 66 73 78 77 71 65 56 51 52 53 60 59 58 59 57 59 57 56 52 50 50 44 43 43 46 46 44 42 41 39 36 33 30 29
71 70 66 64 51 40 33 35 36 38 44 55 62 71 78 75 68 60 54 53 55 58 57 58 59 55 59 57 58 52 51 49 44 43 44 47 48 44 42 43 40 37 34 31 30
69 68 67 47 32 31 30 28 28 31 37 41 49 60 62 75 67 60 58 53 54 54 56 54 56 54 55 57 59 54 51 48 46 44 45 49 51 49 43 43 42 39 36 32 31
72 71 59 37 32 26 17 14 13 18 25 30 40 38 53 61 66 62 52 56 53 48 54 52 52 53 53 55 59 58 51 47 47 46 46 49 51 51 45 44 44 41 38 35 32
75 67 45 34 26 23 12 10 9 6 11 22 30 39 43 47 58 58 53 50 48 49 46 51 52 52 50 49 48 59 49 46 46 45 45 48 50 48 46 46 45 44 40 38 34
78 66 37 35 22 17 13 10 7 4 3 8 16 30 40 47 51 54 50 47 45 43 44 51 49 53 52 47 47 57 44 42 41 43 44 44 44 47 46 46 45 45 43 40 37
77 62 40 25 20 15 11 11 8 8 8 7 11 23 42 47 51 47 39 43 43 40 38 49 51 52 53 49 47 47 52 41 37 38 42 43 44 44 43 44 45 45 45 42 40
78 57 40 24 15 17 9 12 9 6 14 13 12 25 48 51 55 51 37 35 40 43 38 40 46 52 55 49 42 42 48 47 38 36 36 38 41 39 41 42 43 43 44 43 41
76 58 47 26 13 13 9 10 8 6 12 14 20 31 44 48 56 49 42 28 31 33 34 43 39 43 50 49 44 41 37 38 39 39 38 38 39 36 37 38 39 41 42 42 42
74 66 50 32 15 12 9 11 7 4 14 14 29 51 50 51 51 42 35 35 32 35 30 41 35 40 50 53 47 43 41 42 41 35 35 38 38 36 37 35 35 36 38 41 43
68 65 54 38 26 17 10 6 5 14 20 32 50 54 42 57 49 38 38 30 36 33 30 31 35 35 46 50 50 46 44 40 40 41 39 35 36 36 37 34 35 37 39 41 42
59 61 56 48 39 34 31 35 42 49 42 46 49 44 53 54 39 35 27 25 26 30 29 30 30 35 42 46 46 47 46 45 41 38 39 40 39 36 35 36 37 37 38 39 40
51 50 51 54 53 50 47 50 46 41 38 42 47 52 53 45 37 34 21 26 35 26 22 29 28 33 40 40 43 43 44 45 43 42 40 39 40 39 37 36 35 35 36 37 39
45 40 38 39 41 38 36 34 37 43 46 48 52 49 40 39 36 35 20 32 30 29 23 24 28 26 27 34 38 38 39 38 38 40 40 39 39 40 37 36 35 34 35 36 38
33 32 39 42 39 36 33 34 40 49 42 44 52 40 34 32 33 29 17 24 18 18 20 28 32 30 30 27 27 40 40 38 40 41 40 37 37 37 35 35 35 34 34 34 35
26 21 28 35 35 29 26 31 36 38 40 42 39 27 28 27 18 19 19 12 17 18 21 24 26 26 29 28 24 23 31 40 41 40 37 34 34 34 31 31 31 30 30 28 28
25 14 19 25 29 24 28 24 25 26 31 37 33 23 21 18 21 19 15 13 14 18 22 22 28 30 27 27 26 26 22 26 32 32 31 31 32 30 29 28 28 27 26 26 25
20 17 13 17 20 19 13 16 17 22 25 26 23 13 14 19 21 20 13 11 14 18 21 23 22 25 24 23 22 24 25 23 24 24 24 24 25 24 24 23 24 25 24 24 25
13 16 10 10 17 17 16 10 14 19 20 21 16 14 14 14 21 19 8 7 14 20 20 22 22 21 22 22 22 23 23 26 25 23 22 22 23 23 23 24 24 23 24 24 24
8 9 11 11 8 15 14 9 12 15 16 16 11 10 10 11 14 16 12 9 11 18 16 16 23 23 17 19 17 20 22 23 22 19 17 18 22 24 25 23 21 24 24 25 26
7 4 5 8 7 8 12 16 12 13 13 14 12 9 8 9 12 17 16 13 13 17 18 16 15 17 18 20 21 20 19 18 19 20 20 20 22 23 22 19 22 23 25 25 26
7 5 0 1 4 6 10 13 13 11 11 10 10 9 8 7 8 13 17 16 13 19 19 17 18 18 18 18 20 20 22 21 19 19 19 20 21 21 18 20 21 22 22 22 21
10 6 7 4 1 1 2 4 7 8 8 8 7 8 8 9 10 13 14 15 13 16 17 15 14 16 18 18 18 17 17 17 18 20 18 19 17 17 17 18 18 18 18 20 21
14 10 10 11 8 5 2 3 3 5 7 8 10 10 12 11 11 13 14 14 15 16 16 17 16 17 17 18 18 17 16 16 16 14 16 16 16 15 15 15 13 12 13 17 20
17 16 12 11 16 13 10 7 5 5 5 6 8 11 12 12 12 14 15 16 18 16 15 16 17 17 17 18 18 17 16 15 15 15 16 15 16 16 15 14 11 12 16 18 18

GFSSW_500_spd_051.txt.gz
Wind_Speed
52 57 59 62 63 60 57 62 69 76 76 75 73 72 67 65 62 62 56 52 50 55 60 59 61 56 54 53 52 51 55 53 50 47 41 45 45 43 43 43 37 38 39 33 30
59 61 60 67 62 56 58 62 63 60 68 69 70 75 75 70 68 65 58 53 54 53 56 59 57 59 55 55 57 51 54 49 43 47 44 46 39 44 42 42 40 38 37 35 32
63 62 69 67 56 51 49 38 38 41 51 59 63 67 76 76 72 64 62 58 56 52 53 59 59 61 59 57 57 61 55 45 50 49 49 44 42 48 44 45 41 40 42 35 33
62 71 71 59 43 35 31 35 35 35 36 38 52 59 66 78 74 69 65 60 57 52 52 57 59 58 64 56 53 56 55 57 53 46 44 47 44 48 45 47 47 43 37 37 34
67 72 66 48 37 34 28 28 24 20 23 30 36 40 56 69 76 73 64 62 56 52 50 53 57 57 57 57 54 55 54 57 53 42 42 47 48 45 47 49 44 44 40 39 36
71 74 64 43 30 29 21 21 16 15 13 19 27 38 38 51 65 73 67 60 55 54 49 48 54 54 54 60 58 56 60 54 49 43 43 46 50 49 46 49 45 44 41 39 36
72 72 62 40 25 29 21 19 17 10 10 13 18 32 37 30 54 67 61 59 56 51 47 46 53 54 54 55 61 55 61 57 50 44 45 47 51 51 47 47 46 45 43 41 37
70 72 61 37 23 22 20 14 13 9 6 1 16 26 31 32 42 48 54 53 54 49 45 45 51 52 54 54 54 58 54 56 51 44 43 47 48 52 48 49 48 47 45 43 39
67 71 66 39 19 17 17 12 14 13 9 3 9 18 29 35 39 46 54 45 49 48 44 45 48 50 54 53 54 53 53 52 50 43 42 43 47 51 50 48 48 48 46 44 41
62 71 70 49 24 17 16 12 12 7 7 6 10 20 31 40 39 41 48 48 43 43 43 43 40 48 53 56 51 49 48 46 52 43 41 43 46 49 48 46 46 47 46 44 43
59 65 71 60 32 15 17 12 10 5 1 9 12 27 40 41 39 38 42 45 42 41 39 41 36 38 46 50 51 50 44 42 44 46 41 41 45 47 43 44 43 43 45 43 43
54 62 66 62 43 20 10 8 5 3 8 9 23 43 51 56 42 38 42 41 37 39 36 35 31 30 44 50 50 49 43 44 42 42 38 40 41 43 41 40 39 39 39 41 42
51 57 59 55 57 54 30 17 21 24 31 35 44 45 55 40 47 40 44 39 35 35 35 29 28 33 36 49 52 49 42 42 36 45 41 38 38 39 36 36 35 34 36 36 38
44 53 52 47 40 39 43 39 42 50 47 48 36 42 52 57 46 35 34 33 30 31 28 26 30 32 35 45 49 48 43 42 34 34 37 38 39 42 36 34 34 34 33 33 34
35 44 44 45 38 34 35 32 40 35 30 37 38 51 23 41 34 31 22 25 26 32 29 25 33 31 32 38 47 50 43 41 38 36 37 36 37 42 36 35 34 34 34 34 34
29 34 39 35 34 29 28 36 32 24 33 36 45 36 41 40 32 17 19 21 27 29 27 25 26 29 35 41 46 49 44 40 40 38 37 35 35 40 39 39 35 33 33 34 35
24 27 33 31 33 30 28 27 29 45 48 51 30 23 24 39 28 28 17 18 27 29 21 29 26 27 28 37 41 40 44 39 39 40 40 39 38 41 35 37 38 37 37 36 36
22 20 23 24 29 24 26 26 31 38 38 30 21 22 20 26 19 10 18 19 22 26 17 20 36 25 25 31 32 36 37 38 40 42 41 38 40 42 37 36 34 35 35 36 37
19 13 15 16 16 20 14 14 30 34 29 23 21 19 17 13 8 6 6 11 15 18 23 24 27 25 22 25 25 33 39 38 37 40 38 38 39 38 36 34 33 32 33 33 34
15 12 9 9 9 11 16 9 20 16 12 13 17 14 7 9 11 10 8 8 12 18 19 24 26 33 27 29 25 23 21 25 34 37 37 39 39 39 37 34 31 30 31 30 31
11 11 9 4 5 8 12 14 23 23 18 15 10 7 8 10 9 9 6 7 12 18 18 21 23 29 29 26 23 23 26 24 23 25 28 31 35 34 33 32 32 31 31 31 31
10 6 4 5 1 7 8 13 16 15 13 10 6 6 5 7 9 11 8 7 13 16 21 21 20 22 23 24 23 22 24 26 26 24 22 22 28 27 28 29 28 28 30 30 29
7 5 3 3 3 4 10 12 13 16 16 14 11 9 9 11 15 15 13 9 10 20 20 19 21 22 23 21 19 20 21 24 23 23 22 23 26 27 27 26 26 28 29 28 28
10 8 6 5 2 2 7 16 13 13 14 15 12 10 10 11 12 14 15 13 10 11 18 19 19 18 24 21 20 20 20 19 19 19 18 21 21 25 26 22 24 26 26 25 26
16 10 10 9 9 6 6 8 14 14 15 16 15 14 12 12 12 13 16 16 14 13 16 17 18 20 20 22 23 22 24 23 22 20 22 24 26 26 23 22 24 24 24 24 24
20 17 14 13 14 13 10 9 10 11 12 14 14 14 14 13 11 12 14 15 16 16 17 18 17 17 18 19 20 20 19 18 20 19 20 25 24 24 21 22 22 22 21 20 21
22 22 19 17 17 19 16 13 10 9 9 10 12 15 15 14 14 14 15 16 13 16 16 17 18 18 17 19 20 19 17 18 20 21 23 20 23 19 21 20 20 20 19 18 18

GFSSW_500_spd_054.txt.gz
Wind_Speed
50 53 56 59 62 64 62 61 63 63 64 69 74 72 71 68 64 61 57 54 51 47 51 55 53 55 56 54 54 49 52 43 49 42 43 32 43 43 41 40 41 36 44 41 30
52 54 57 62 62 59 49 46 47 50 58 64 66 68 74 75 69 64 62 58 55 52 48 50 55 54 57 53 54 61 57 40 37 40 43 39 36 46 42 39 37 39 37 36 33
55 59 61 66 64 50 40 31 27 29 35 41 53 64 64 73 74 66 64 61 56 53 50 48 55 57 57 57 52 55 56 40 43 45 43 46 43 44 43 42 40 41 39 39 34
57 60 64 70 62 37 32 31 27 29 29 28 35 37 50 60 74 70 66 62 58 55 50 48 50 58 58 58 52 47 45 47 46 51 42 45 50 38 43 43 44 45 48 38 36
60 61 67 73 59 32 29 28 17 24 19 17 19 30 36 50 67 69 67 63 57 55 52 49 47 51 55 52 56 48 49 49 49 48 45 44 44 42 45 45 47 47 39 36 39
60 64 70 73 57 22 26 23 14 21 14 13 11 23 29 40 50 64 65 57 59 55 54 47 45 44 52 53 55 52 50 52 54 49 43 38 42 51 42 48 48 44 41 41 40
61 66 73 73 50 19 20 21 15 16 13 12 11 19 26 31 46 56 61 56 55 57 52 49 45 44 50 53 52 56 56 54 56 51 49 47 44 48 48 48 43 43 42 41 39
61 67 75 75 44 18 17 15 13 12 13 8 5 12 22 29 30 44 52 58 46 54 51 47 44 43 45 51 52 54 59 52 54 49 45 45 46 46 46 46 42 44 42 41 39
58 66 70 66 52 16 17 13 13 11 6 4 3 14 26 29 29 38 42 56 47 43 50 47 43 41 42 47 52 54 55 51 49 50 44 43 44 46 43 49 45 43 43 42 39
54 62 64 62 59 25 16 14 13 11 5 4 8 14 26 26 35 43 40 48 53 39 42 42 42 41 39 48 47 49 49 51 45 47 48 48 42 48 47 44 46 42 43 43 41
50 58 58 57 55 33 15 11 8 9 7 7 12 18 27 33 45 39 40 43 46 47 41 39 37 34 29 35 42 46 48 45 43 47 45 49 48 44 46 45 44 46 45 44 43
46 54 54 52 43 37 26 17 14 13 8 12 18 26 40 37 29 35 41 39 33 42 41 33 31 30 27 36 46 46 45 44 45 44 44 44 51 45 45 44 43 46 47 44 42
43 47 45 43 37 44 47 35 25 22 23 30 40 46 44 41 35 42 57 42 47 41 35 32 31 29 27 36 42 49 45 45 45 37 35 45 48 45 42 41 42 40 43 45 44
38 40 39 34 34 42 44 50 45 37 31 39 45 41 31 39 37 39 34 29 29 31 31 32 26 28 26 30 40 46 46 44 43 34 36 43 47 45 42 38 40 41 40 40 40
31 33 36 32 23 33 39 29 27 24 28 34 26 29 27 13 37 32 32 27 25 24 27 29 25 25 27 23 30 43 43 43 39 39 39 42 45 44 44 36 33 34 38 36 34
25 27 32 31 22 26 30 32 34 41 34 32 25 25 33 43 32 30 34 30 31 30 26 23 25 24 30 24 29 36 43 41 39 39 37 33 44 42 41 35 34 32 31 32 33
21 22 22 26 28 30 27 26 31 34 32 25 29 23 31 27 20 20 21 23 27 30 28 22 19 23 26 27 28 30 40 41 41 39 36 32 37 40 41 43 36 35 33 33 32
22 16 16 17 18 20 25 21 14 24 32 29 15 21 33 23 25 19 16 21 25 24 24 21 20 25 26 29 33 30 33 39 41 38 35 32 33 35 43 36 34 36 39 37 36
19 15 10 13 13 13 15 15 10 10 15 18 21 16 19 8 14 18 20 14 21 22 19 20 28 25 26 23 26 29 30 35 38 38 36 35 34 33 35 32 31 32 32 34 35
16 17 7 5 7 10 16 17 10 8 7 4 7 8 6 7 8 12 11 15 19 22 21 16 26 29 22 26 24 26 27 30 32 34 35 36 34 33 31 33 31 31 31 32 33
14 12 12 3 1 5 10 11 11 4 8 10 7 3 2 4 5 6 8 9 15 17 19 18 17 23 24 23 24 21 23 25 28 29 31 32 35 35 32 34 34 32 32 31 32
15 12 10 7 4 4 7 14 14 9 6 2 2 3 2 3 6 7 4 5 10 16 18 19 18 28 23 24 22 19 19 19 18 22 21 27 33 33 34 37 35 33 34 34 34
16 13 11 10 6 7 10 13 21 16 11 10 6 4 2 3 6 8 6 7 11 15 17 19 19 23 27 25 22 18 18 22 23 22 20 22 24 22 24 25 27 30 31 31 33
19 14 13 13 11 6 9 13 15 17 16 15 13 9 8 7 8 10 11 10 9 14 17 19 19 20 21 20 21 20 21 23 22 25 21 23 24 21 22 24 24 25 29 29 29
22 17 16 15 16 12 8 14 16 15 15 16 16 14 13 12 11 10 12 13 12 10 12 22 20 20 20 21 23 20 23 22 21 21 23 23 25 23 25 21 20 25 25 26 24
28 21 19 19 19 19 16 13 15 18 18 18 18 17 16 15 14 13 13 14 15 15 15 15 18 20 22 22 24 27 25 21 23 23 23 21 24 24 21 20 22 23 23 23 23
30 22 24 22 21 23 20 17 15 15 16 15 17 17 17 15 16 16 14 14 14 15 15 15 17 17 17 19 22 22 20 20 20 21 23 23 24 23 19 18 21 22 24 24 22

GFSSW_500_spd_057.txt.gz
Wind_Speed
48 50 53 55 55 57 61 58 53 51 53 58 66 69 69 63 66 64 59 54 52 50 50 51 51 50 53 52 53 46 52 51 48 53 46 51 48 50 44 42 42 44 40 36 33
51 53 54 57 60 65 62 54 38 31 32 32 41 55 68 67 65 64 58 59 54 54 51 48 49 52 53 51 52 45 48 46 37 38 47 48 43 46 45 44 44 42 39 36 35
54 56 60 63 66 67 56 32 31 30 26 24 23 29 47 64 68 61 67 61 55 54 52 48 50 50 55 52 56 55 47 45 40 41 38 35 48 32 48 47 48 42 38 38 36
57 57 62 68 72 71 37 25 27 24 23 23 28 31 35 47 65 63 65 61 57 54 54 52 49 49 54 53 51 50 56 52 41 47 49 47 33 27 33 46 48 45 42 42 40
58 58 64 71 75 67 21 21 23 18 11 15 19 19 24 39 51 60 66 64 60 55 52 49 48 44 45 50 52 51 48 54 50 49 37 47 46 52 28 33 46 47 43 41 39
56 60 66 73 71 46 19 20 13 11 11 14 14 16 21 26 37 51 61 60 59 55 48 50 45 42 42 50 52 49 51 51 49 50 43 38 44 48 45 37 39 48 45 38 38
55 60 66 64 60 35 16 12 12 12 12 10 14 13 16 26 38 39 50 60 59 38 47 48 45 44 41 45 50 53 48 53 42 44 44 43 40 34 38 45 47 43 40 38 38
54 58 59 61 55 35 17 11 11 11 9 5 5 7 19 28 38 29 45 59 60 55 43 42 44 43 41 40 48 52 51 50 43 41 44 43 37 41 39 45 44 42 43 40 41
52 54 45 56 63 39 20 15 15 11 7 7 5 7 16 28 33 36 45 54 58 52 42 42 42 42 40 38 41 48 48 49 46 38 42 43 40 43 43 43 45 45 44 41 41
48 50 38 58 65 44 26 15 14 11 10 10 10 14 22 31 31 43 47 40 47 46 39 43 41 43 41 37 34 35 36 44 45 45 40 47 46 45 46 45 43 44 45 42 40
45 46 35 53 58 58 34 21 16 13 13 10 15 23 22 32 44 51 53 46 44 42 46 44 39 33 35 32 32 32 37 40 43 45 43 44 48 47 44 45 41 40 41 44 41
43 43 39 48 42 42 36 30 26 19 15 14 22 22 28 34 42 53 52 57 44 37 39 40 33 35 32 32 33 32 36 39 43 46 46 40 45 46 45 43 44 41 40 43 44
39 40 41 39 28 31 32 34 32 27 33 31 26 22 38 46 36 37 47 51 52 37 33 24 31 33 32 29 28 29 32 38 43 43 48 42 40 43 43 43 41 40 41 40 42
33 35 40 34 22 24 30 35 36 46 50 37 36 35 30 26 24 42 48 48 52 39 27 26 26 25 25 22 23 26 33 40 40 40 43 40 39 41 45 45 43 39 41 44 42
29 27 35 27 26 22 28 38 30 28 39 26 33 20 28 33 42 36 31 36 39 33 28 26 24 24 24 21 20 26 32 37 39 39 41 39 40 36 44 41 43 41 39 40 38
27 25 27 27 26 25 34 41 27 26 30 30 30 19 30 38 28 35 26 27 30 26 27 25 24 23 23 23 19 23 31 35 39 42 41 34 35 34 39 43 43 42 38 39 39
27 20 18 13 19 21 24 29 30 25 35 31 33 36 25 19 19 22 21 22 24 25 27 28 26 21 20 22 24 23 23 35 38 42 39 34 37 35 37 42 43 38 35 36 37
25 20 11 12 13 13 13 19 22 27 29 30 37 28 22 14 14 14 20 24 23 23 23 23 23 24 27 25 23 21 18 25 37 37 37 38 34 35 32 41 45 40 36 36 34
25 19 7 8 6 5 9 12 13 16 22 15 17 18 23 22 21 19 17 16 20 23 23 22 22 27 24 23 27 22 21 19 24 34 37 37 31 30 28 36 41 37 35 37 37
29 17 11 2 5 4 3 5 8 11 10 7 6 10 12 17 20 17 18 19 20 21 25 21 20 28 28 24 24 26 29 26 27 29 36 37 33 28 25 26 31 37 36 35 36
29 18 14 8 7 12 11 11 6 1 4 3 2 5 5 8 12 14 11 14 21 18 18 9 17 25 23 23 21 23 22 26 24 27 29 32 33 29 28 27 26 30 33 33 35
26 19 14 13 7 11 13 18 16 11 6 0 4 4 5 4 5 8 8 13 15 12 15 12 11 18 28 28 24 23 21 18 22 23 24 23 28 26 26 26 26 24 28 30 31
28 23 15 16 12 10 12 16 18 15 12 6 4 3 3 3 5 7 5 7 13 16 17 15 17 14 20 21 20 21 18 17 17 15 16 20 18 17 19 23 27 30 31 31 32
32 27 17 17 17 14 12 14 18 19 18 16 12 8 4 2 3 5 6 5 6 12 18 17 18 19 22 22 21 21 20 20 21 24 18 20 21 19 18 19 21 22 25 27 30
31 29 22 17 20 18 16 13 17 19 21 23 18 13 11 8 6 8 9 10 10 10 12 16 18 18 18 22 23 23 21 20 16 17 21 21 25 21 21 21 19 19 23 23 25
31 28 23 15 21 22 19 16 14 18 20 17 17 17 15 12 11 10 10 10 11 13 13 13 18 22 20 20 21 23 24 20 18 20 20 21 25 23 21 18 17 21 22 21 21
36 29 25 15 17 24 23 20 18 17 18 19 18 18 17 15 16 13 13 11 11 13 15 14 15 17 21 22 24 24 21 24 24 23 25 25 21 29 23 18 17 20 23 20 20

GFSSW_500_spd_060.txt.gz
Wind_Speed
47 43 45 52 56 58 61 62 60 58 50 52 58 63 67 69 67 66 60 56 62 53 52 50 53 52 55 53 60 46 59 61 63 54 54 56 57 57 52 46 46 45 40 38 36
46 45 52 58 61 65 60 62 33 29 32 30 30 37 49 67 71 67 61 62 63 56 54 51 52 52 52 53 56 53 60 53 51 57 55 59 59 56 55 51 49 46 42 38 36
47 50 55 60 62 61 65 50 20 21 33 28 28 26 23 39 67 65 64 64 60 60 56 54 54 53 52 51 56 46 52 50 49 57 58 58 60 56 54 56 51 48 44 39 38
48 54 57 63 60 69 58 21 15 19 22 21 22 23 27 21 42 61 68 66 64 59 58 56 54 53 52 49 52 57 46 44 43 56 54 58 59 57 52 54 55 48 47 46 43
54 55 62 57 66 67 30 15 15 21 20 20 14 19 28 31 30 48 69 63 63 55 59 54 52 51 50 47 48 54 52 51 49 53 51 53 45 50 54 53 54 49 48 48 47
53 57 55 60 64 52 24 14 12 11 12 15 15 17 17 18 35 39 59 65 63 56 57 52 51 48 49 46 48 46 51 55 54 54 52 55 41 45 48 46 45 50 48 46 45
52 55 53 51 60 59 33 19 14 12 15 18 17 16 16 23 33 34 54 61 60 56 54 49 48 49 44 45 45 49 51 61 58 50 52 59 42 37 35 39 41 43 46 43 43
52 49 42 51 55 58 45 23 21 12 7 3 8 11 14 22 40 27 51 59 56 55 49 46 47 46 47 44 45 49 54 58 54 47 53 52 47 32 40 31 37 39 43 42 40
49 49 36 48 55 54 57 35 21 17 12 8 4 4 14 26 49 38 48 56 51 50 46 47 45 43 46 43 42 46 51 52 44 47 47 52 38 42 39 39 50 46 39 39 41
44 48 29 44 52 56 48 43 25 17 12 8 10 10 17 32 41 38 52 54 45 41 46 46 45 46 44 44 39 35 33 44 43 41 44 42 44 39 39 42 43 46 41 42 42
40 46 26 37 45 49 47 39 30 19 14 12 9 15 15 37 36 47 61 59 49 52 50 46 45 43 38 37 34 27 27 37 37 44 43 35 40 41 42 42 42 39 37 41 41
36 41 29 43 44 42 44 43 42 28 19 16 12 18 33 35 40 46 70 71 49 45 38 34 33 38 34 31 31 27 28 29 36 38 42 46 42 45 48 45 38 38 38 38 43
33 34 17 35 40 41 41 37 43 44 28 17 19 21 26 33 51 49 51 57 56 45 36 31 30 34 31 34 32 28 26 27 30 35 39 44 43 45 42 45 43 39 40 40 40
29 27 15 28 31 38 40 36 38 31 28 30 38 30 24 45 46 43 36 39 42 39 46 31 25 31 31 30 29 25 27 26 30 31 33 37 44 40 42 43 43 41 40 40 41
28 20 8 22 27 35 39 36 32 30 30 21 23 29 21 23 24 17 25 42 43 43 36 33 32 30 30 28 25 23 23 24 27 30 33 35 42 42 42 41 36 39 41 41 40
24 13 10 13 22 31 34 31 30 33 31 23 33 40 33 26 20 21 34 40 46 39 35 31 30 29 27 26 25 24 24 26 30 31 32 32 35 44 41 36 40 39 39 42 41
27 15 11 7 13 21 23 26 25 37 36 30 19 24 19 24 20 14 29 27 27 24 25 28 26 26 26 25 24 21 21 22 27 31 33 35 37 43 42 38 39 41 41 41 44
31 14 6 2 5 10 15 14 13 19 25 27 30 19 19 21 19 20 31 24 27 22 23 21 21 20 21 23 24 20 21 20 23 29 30 34 37 32 40 41 38 40 44 42 42
46 20 4 6 7 11 8 7 9 8 7 16 18 19 7 10 13 17 23 24 27 22 23 23 24 23 21 23 27 25 20 16 17 19 25 33 33 32 32 37 36 37 41 42 41
53 30 9 8 15 13 8 3 6 2 9 12 13 14 15 8 12 10 16 19 21 23 23 23 24 24 26 28 24 22 21 18 20 21 19 22 30 30 31 29 32 33 41 42 41
51 31 17 9 10 19 17 14 9 4 9 7 7 8 9 11 9 9 11 14 16 20 21 21 16 19 27 29 25 21 20 19 21 25 25 22 24 29 29 25 26 30 40 43 41
57 36 26 12 10 12 17 18 20 15 12 5 1 4 5 7 7 7 12 14 14 14 18 18 14 21 23 22 24 25 24 25 26 25 23 23 22 23 24 29 27 22 26 38 40
65 47 30 18 13 13 13 17 19 16 13 12 5 2 2 3 6 7 7 11 19 17 18 18 16 14 24 26 28 26 23 22 22 20 19 23 19 18 19 22 24 23 26 26 32
63 53 38 22 13 15 15 14 16 20 16 14 12 7 3 2 4 7 8 9 13 17 19 18 17 18 15 19 25 28 26 26 25 19 12 12 12 14 17 18 19 23 25 29 30
65 59 47 23 14 15 17 16 14 15 18 15 15 14 10 7 6 7 9 10 11 11 14 16 17 17 19 19 21 19 21 22 22 20 23 14 19 18 18 18 19 18 19 25 27
64 61 44 26 16 15 19 18 18 15 15 17 16 13 11 12 11 10 9 10 11 14 14 14 17 19 20 20 21 23 24 23 19 19 18 17 19 18 20 19 18 18 20 21 21
61 62 52 29 16 15 18 21 20 21 18 18 19 18 15 13 14 13 12 12 12 13 17 18 16 17 20 24 25 24 20 24 23 23 21 24 16 25 20 15 15 18 22 22 20

GFSSW_500_spd_063.txt.gz
Wind_Speed
50 45 45 46 52 55 58 59 64 62 60 57 55 55 64 67 66 64 63 56 62 61 58 55 54 53 54 55 59 46 57 60 62 53 53 55 55 57 56 52 50 45 42 39 37
50 47 47 50 48 52 61 56 42 29 27 32 32 34 33 54 67 66 63 63 65 67 63 58 55 55 54 57 62 52 54 55 52 54 53 55 56 58 57 54 50 48 44 41 37
51 50 48 44 53 61 63 47 24 14 16 16 24 27 29 29 49 62 67 68 66 68 65 62 59 59 54 56 54 56 59 48 55 60 61 59 53 59 58 56 53 49 46 43 40
51 53 36 49 56 60 58 35 18 12 17 15 23 23 25 25 27 46 68 71 67 62 68 64 60 58 58 54 60 49 50 53 46 57 60 62 60 52 58 56 55 54 51 47 43
53 53 40 49 56 62 60 37 19 12 20 22 21 19 21 20 23 29 61 73 65 66 65 67 60 55 57 52 54 55 48 51 52 50 62 66 63 60 56 57 55 52 49 49 46
51 53 36 46 54 61 59 43 29 16 13 15 19 20 18 21 30 25 52 73 68 67 55 63 59 54 54 53 50 53 56 51 48 48 52 60 62 63 61 57 54 54 52 52 51
50 52 37 44 53 57 61 51 30 24 19 12 18 18 20 22 30 31 39 68 67 62 51 58 57 55 52 53 51 50 54 56 49 45 45 54 62 60 61 59 56 54 51 51 52
49 43 37 42 50 53 64 55 35 23 19 13 6 12 17 17 21 31 35 64 63 57 50 49 52 55 52 51 51 51 50 56 58 48 43 55 59 52 55 59 58 59 57 53 50
47 39 34 41 48 53 56 56 39 28 20 14 8 2 7 14 23 35 35 61 59 53 45 40 51 56 52 50 50 50 49 48 58 53 47 52 56 53 44 48 53 52 59 59 56
45 41 37 37 45 51 52 52 45 33 23 15 13 6 10 20 42 35 39 57 61 60 42 35 47 53 52 50 43 41 44 39 39 47 53 50 54 63 44 41 41 43 51 50 52
40 38 34 34 46 51 47 42 44 39 30 24 14 5 12 25 20 28 47 56 62 65 46 31 38 45 49 47 39 33 36 33 36 42 52 52 49 59 52 45 41 41 42 48 49
35 35 28 32 46 47 41 33 36 42 37 23 14 7 21 26 31 32 51 50 52 54 52 33 33 40 40 39 39 32 31 32 35 39 47 46 47 44 42 47 44 45 46 43 44
37 32 25 29 41 41 40 36 30 36 39 31 18 25 20 19 27 51 50 47 47 47 42 31 36 37 37 33 33 31 28 30 32 36 43 45 47 40 34 39 42 38 39 40 44
42 28 24 21 32 38 39 32 33 33 33 32 20 12 12 17 48 56 48 44 36 40 33 33 35 36 37 34 31 33 28 28 26 33 39 41 48 45 35 38 44 42 40 35 37
48 26 23 15 27 32 35 35 28 39 43 28 33 33 29 35 53 47 42 37 40 43 35 29 29 35 33 33 32 32 27 23 22 24 29 32 38 38 45 39 40 39 39 40 39
53 29 17 11 19 22 22 30 34 32 31 29 17 23 25 20 14 17 27 33 34 39 31 26 28 33 33 31 32 29 25 25 25 26 27 30 32 32 42 41 40 42 41 43 42
65 39 18 8 6 14 12 16 20 34 30 22 18 19 22 17 14 17 18 22 27 27 35 25 19 23 28 28 28 28 27 27 26 26 25 29 32 19 32 48 44 42 42 44 45
73 45 27 10 6 9 12 11 17 19 25 23 16 17 14 18 11 32 33 31 31 22 24 23 23 24 24 28 26 26 23 22 22 22 21 26 27 27 25 40 47 46 43 41 45
73 58 30 15 12 14 14 7 12 12 18 21 16 3 11 13 13 12 25 23 25 26 25 24 22 22 24 24 25 24 21 20 21 21 23 27 29 29 33 33 42 44 43 39 39
70 70 39 21 14 17 18 11 8 11 10 15 13 12 6 6 8 9 19 14 19 18 17 20 22 22 21 24 25 26 24 23 22 21 22 20 19 24 30 32 37 39 41 41 39
70 70 52 23 15 17 17 18 14 11 12 10 6 7 9 7 7 8 13 16 17 21 22 23 26 27 29 29 25 27 27 25 22 21 20 21 18 17 26 28 33 30 33 37 39
68 71 56 36 19 15 17 18 20 16 14 10 4 1 3 6 9 10 15 16 17 20 20 20 20 22 21 23 26 27 25 21 23 23 24 24 21 19 19 24 25 29 32 34 37
66 68 64 46 22 14 18 17 16 15 13 11 8 5 4 6 6 9 15 18 17 20 21 22 23 19 18 21 24 24 25 26 25 25 28 25 19 14 17 18 22 24 30 30 34
62 69 68 60 40 16 16 18 17 15 13 14 15 12 8 8 8 9 7 11 18 21 19 24 24 21 19 17 24 24 24 25 26 26 19 16 11 15 19 21 23 25 26 27 29
57 66 71 69 48 24 16 19 20 17 13 15 19 18 13 11 9 11 11 9 10 14 17 18 19 20 20 20 19 26 29 31 29 23 25 15 15 15 18 18 19 23 22 25 27
53 62 73 74 65 34 17 17 22 21 18 15 17 18 18 17 16 14 14 15 15 14 14 16 18 21 21 20 19 20 22 22 21 24 23 22 16 19 20 20 19 18 19 18 24
55 60 70 75 66 40 19 18 20 24 22 19 18 19 18 18 20 19 17 16 16 18 19 20 19 19 20 22 23 24 20 23 24 25 24 24 14 22 19 18 16 18 19 20 20

GFSSW_500_spd_066.txt.gz
Wind_Speed
70 52 52 42 36 42 48 58 60 45 38 37 34 40 55 59 64 63 59 58 57 63 62 63 57 54 53 52 64 68 55 54 55 58 52 53 55 55 53 51 49 47 44 39 39
75 56 51 37 39 46 57 61 59 33 19 17 21 32 36 38 56 59 62 62 61 66 60 61 59 56 54 53 56 67 53 48 52 53 53 56 55 56 54 53 52 49 45 41 39
76 56 47 39 47 52 55 59 58 32 17 12 17 24 30 28 30 49 64 65 65 63 64 63 64 58 56 54 52 61 59 42 50 48 56 58 58 57 56 55 53 50 45 43 42
78 58 44 41 49 54 55 61 59 42 14 11 15 15 20 25 25 29 55 68 67 64 58 64 65 59 56 56 52 56 56 45 47 46 51 61 60 59 58 56 54 51 47 44 44
80 56 48 41 50 57 54 58 57 49 26 21 24 23 21 21 23 24 37 68 68 53 64 59 61 59 54 54 53 51 57 53 47 46 47 59 62 63 58 57 56 53 49 44 42
74 54 48 45 50 56 53 55 57 46 32 17 24 23 22 21 23 23 28 58 69 67 65 57 57 59 56 53 52 48 54 59 50 47 41 57 63 63 59 57 55 53 50 48 44
70 52 45 43 52 55 54 52 57 44 30 21 12 19 18 20 20 19 21 45 66 64 63 54 58 61 56 52 52 50 52 56 41 50 42 51 63 58 55 57 55 55 52 49 48
74 51 42 43 54 55 54 51 55 47 29 27 23 9 19 20 20 22 24 34 61 59 58 47 52 60 56 53 53 51 53 61 39 42 52 43 55 61 58 58 58 58 52 51 48
71 48 39 44 50 54 52 50 51 50 30 26 17 9 7 17 19 22 26 36 62 50 55 51 42 59 58 53 54 55 51 53 46 45 40 42 45 63 62 61 61 59 56 51 51
72 46 37 42 49 50 48 49 47 49 36 27 19 11 3 7 14 23 26 41 52 47 51 51 37 55 60 54 48 41 46 51 53 47 34 41 44 52 65 57 61 61 58 54 52
76 44 35 38 45 45 45 47 43 47 39 35 19 11 10 19 23 25 22 51 45 50 53 35 39 48 50 50 46 41 46 44 40 47 48 48 45 51 62 63 61 60 60 57 53
79 49 34 31 38 43 43 45 44 44 40 29 27 15 15 10 6 22 33 51 37 49 53 38 34 42 50 49 47 42 39 42 42 37 39 54 53 49 50 66 47 49 51 55 53
79 54 30 25 30 35 43 51 45 42 47 26 18 13 8 8 14 22 48 51 53 52 33 31 30 39 48 48 44 39 34 36 39 39 38 40 48 52 44 51 59 38 50 54 57
78 63 32 19 23 26 31 42 49 37 41 36 23 13 5 3 9 28 46 51 59 50 31 33 30 39 43 45 39 34 30 34 37 36 37 38 49 44 46 46 48 49 38 44 43
76 73 40 20 17 20 25 35 39 34 33 34 38 26 24 28 32 34 39 45 55 43 23 27 27 37 37 35 33 34 33 31 30 32 35 35 48 49 51 46 38 45 48 44 38
73 74 50 25 15 14 22 28 31 35 25 30 28 35 34 23 24 24 37 36 37 37 26 15 29 34 35 32 31 33 34 29 26 26 25 24 24 26 42 46 43 36 41 42 44
69 73 60 35 19 15 17 22 22 29 26 25 24 22 18 13 12 26 31 32 34 36 22 19 26 29 31 35 33 31 32 30 26 25 20 23 22 11 23 37 44 44 40 44 47
63 69 67 50 28 19 16 17 18 17 25 21 19 21 19 14 9 13 27 33 32 28 19 20 24 27 30 30 30 31 31 32 29 25 21 20 20 20 25 26 33 39 48 45 44
60 67 71 66 38 21 18 14 14 14 15 19 11 15 18 11 8 5 13 26 32 21 21 17 11 19 27 28 29 28 29 29 26 24 21 20 20 23 25 32 35 33 43 48 44
57 63 69 71 52 32 19 18 15 12 11 12 13 5 9 11 8 9 12 15 22 14 23 17 16 20 22 26 27 26 25 25 23 24 23 22 18 18 24 30 36 38 37 45 44
54 60 66 70 64 46 18 18 15 14 13 10 6 8 3 8 7 12 15 15 14 17 22 18 17 17 19 22 23 25 27 28 26 26 24 19 15 18 23 23 31 36 37 38 44
53 58 64 69 69 51 18 15 17 14 13 14 5 1 1 5 12 13 16 16 14 18 20 19 18 20 21 21 24 26 29 30 32 28 21 21 19 19 21 23 23 32 34 31 35
50 56 60 64 69 61 28 16 16 14 14 14 12 8 6 5 7 12 19 20 20 18 21 23 23 25 25 26 26 28 29 27 27 24 26 25 21 13 21 23 21 27 32 32 30
49 52 56 62 68 66 35 16 14 15 12 15 16 14 12 12 11 10 12 18 22 24 23 25 25 24 23 22 21 25 25 25 27 28 27 24 18 13 17 24 24 27 32 34 37
46 51 53 58 65 65 34 12 16 16 16 14 20 20 18 15 14 15 15 14 17 20 21 22 24 26 26 26 24 22 26 26 27 28 26 19 17 15 21 24 29 31 31 32 32
45 47 51 56 62 66 44 18 17 14 19 18 19 23 24 21 18 17 17 16 15 16 20 20 20 23 25 26 24 22 21 21 25 26 30 24 19 19 21 21 20 23 27 28 28
42 45 50 56 59 64 57 27 14 15 18 21 20 23 25 26 24 22 19 19 18 18 19 20 20 22 23 24 24 24 17 20 20 19 22 24 17 22 20 19 24 26 23 24 28

GFSSW_500_spd_069.txt.gz
Wind_Speed
90 88 68 53 45 41 52 54 52 52 61 45 20 21 33 43 66 62 57 56 55 58 66 61 62 60 57 54 54 47 68 46 50 48 60 56 56 55 53 52 51 49 48 46 44
88 87 69 51 46 45 53 52 53 56 61 38 15 16 29 38 38 64 62 59 57 59 60 65 64 62 58 56 56 56 63 51 43 50 51 58 57 54 55 54 52 49 47 45 43
87 88 66 52 45 49 53 52 55 59 59 30 10 13 16 28 33 38 63 63 59 57 52 62 67 62 60 57 54 52 52 59 47 41 53 56 59 54 56 56 54 52 49 45 42
87 86 68 53 49 51 51 54 57 59 51 30 11 12 11 23 28 29 41 64 64 57 55 57 67 64 62 58 54 51 44 65 60 44 45 53 59 60 56 57 56 53 50 45 42
86 87 67 51 50 49 51 55 53 56 44 29 11 21 19 17 25 25 27 50 65 62 57 49 63 67 61 56 53 50 42 56 61 51 43 51 55 62 60 58 57 55 51 47 45
83 84 64 48 49 48 54 56 51 56 40 26 15 27 27 18 16 18 21 32 55 63 62 42 57 59 64 56 53 51 43 48 55 43 39 43 52 59 64 62 59 57 53 48 46
82 83 63 45 48 51 53 57 52 58 42 23 17 10 25 23 20 19 20 23 47 57 60 56 51 55 56 57 52 52 47 45 51 58 41 39 44 52 60 64 60 58 56 50 47
81 84 61 41 44 51 54 54 54 57 45 23 16 12 7 15 20 22 18 21 39 48 54 51 42 43 50 59 53 43 49 42 51 56 44 44 32 44 55 59 61 58 56 51 49
79 81 60 40 38 46 54 57 53 56 44 28 18 16 5 14 19 22 20 19 41 53 54 50 52 43 47 59 54 45 42 45 42 54 43 36 34 47 57 54 58 59 54 50 49
75 78 61 38 35 40 49 58 52 55 40 33 26 21 14 2 17 21 22 25 38 55 50 48 42 41 44 58 46 48 45 39 40 47 49 28 36 45 64 58 57 55 56 53 50
73 76 64 38 33 37 46 55 49 53 34 27 29 24 23 17 3 16 23 39 43 49 46 45 37 42 43 49 47 45 44 41 37 44 41 43 37 46 47 63 51 52 53 52 51
69 73 71 42 31 35 42 48 48 47 46 23 20 20 21 17 11 15 21 50 47 47 50 48 31 36 43 45 46 45 41 41 37 40 48 44 37 44 38 55 63 58 53 55 54
65 71 74 50 30 31 38 43 44 42 44 46 27 21 14 13 11 13 47 37 29 40 55 42 29 33 40 43 46 43 37 36 37 35 40 39 44 37 38 45 50 62 61 55 52
63 69 73 59 38 26 31 38 39 35 35 40 44 33 17 9 14 43 40 23 22 45 48 46 28 28 35 39 43 43 37 32 33 34 38 37 38 48 46 39 47 50 52 56 56
60 66 71 69 47 27 24 32 33 35 30 29 40 43 39 19 35 42 24 33 41 47 34 30 27 26 31 39 41 39 34 30 29 32 39 41 40 45 48 54 38 37 53 53 45
57 63 69 72 54 38 22 24 27 32 26 25 30 32 31 24 36 32 31 47 36 29 21 28 23 30 32 37 39 36 33 32 29 28 29 31 35 36 37 43 52 43 42 46 45
52 59 66 70 62 45 28 17 21 25 27 22 24 28 28 20 24 30 35 40 29 29 25 17 24 29 28 35 35 35 34 33 30 26 24 26 23 13 25 32 38 44 48 48 44
49 55 61 65 64 50 34 17 14 17 22 18 20 18 23 22 16 22 21 36 30 18 11 18 24 27 31 33 33 35 35 35 33 28 22 21 19 17 19 19 25 38 41 46 51
48 51 58 61 61 52 35 18 12 13 13 17 12 18 20 16 12 19 18 24 19 17 15 15 23 27 30 29 29 28 29 30 32 29 22 21 22 22 21 25 28 26 37 43 43
44 49 55 57 60 60 46 23 11 8 8 9 11 5 11 12 14 16 18 20 22 17 17 19 17 20 23 27 30 30 28 29 28 28 26 26 24 19 23 23 27 30 31 34 36
42 46 51 53 59 61 51 23 12 8 8 8 3 5 4 11 12 15 13 19 19 10 16 16 10 16 23 27 26 28 28 28 27 28 28 27 22 19 20 17 20 23 27 31 34
39 43 47 53 58 62 57 33 18 7 7 11 7 3 4 8 16 18 17 19 20 14 21 18 17 19 21 21 26 27 29 28 30 28 28 26 21 21 16 18 22 24 26 29 31
36 41 45 52 57 60 59 40 21 10 11 11 11 10 9 9 12 17 23 21 20 20 21 20 18 17 19 21 23 24 23 25 27 28 29 30 30 17 18 25 27 27 28 29 33
34 38 44 50 54 58 59 49 25 14 12 13 15 14 14 12 13 15 18 20 21 22 24 24 24 24 24 23 23 22 22 24 27 32 31 30 23 17 23 27 30 31 31 32 34
33 37 40 46 51 55 58 57 27 16 11 16 17 19 17 16 16 15 16 18 21 22 23 24 24 23 22 20 21 20 20 22 25 28 29 24 23 20 24 29 29 25 28 30 35
31 35 38 43 49 52 56 54 39 17 11 16 19 21 23 20 18 17 17 18 17 21 25 25 24 25 25 25 24 26 27 24 24 24 28 26 25 28 24 21 20 24 23 25 31
29 35 37 40 47 51 54 56 44 22 12 12 20 21 25 26 24 22 20 19 19 18 20 24 25 24 24 26 27 27 25 25 22 20 24 28 18 20 20 24 25 22 22 20 24

GFSSW_500_spd_072.txt.gz
Wind_Speed
69 77 82 78 59 48 43 47 49 51 52 60 46 28 18 23 41 52 67 60 59 60 68 64 64 59 61 60 56 55 58 53 53 58 60 61 63 56 55 53 51 50 48 49 42
68 76 80 76 59 51 46 49 52 52 61 53 38 13 12 19 37 40 65 64 59 61 65 68 63 65 68 65 64 59 58 48 50 53 55 49 60 61 56 56 54 52 51 50 50
69 76 80 75 56 48 49 57 56 55 62 47 32 11 10 12 35 29 45 65 62 57 61 65 69 64 63 70 64 59 49 46 56 56 52 50 52 63 59 59 56 53 52 51 50
68 74 79 76 57 47 51 59 61 59 61 44 25 11 13 12 30 28 34 63 63 59 56 57 56 64 65 65 62 55 53 50 51 60 50 51 48 59 66 61 57 54 53 51 51
67 73 77 73 57 47 51 58 64 61 60 39 18 10 15 17 21 28 30 45 65 58 55 50 52 54 63 61 62 55 54 52 51 63 54 47 47 57 65 67 58 55 54 53 51
65 72 76 70 55 44 51 57 63 61 58 45 20 9 21 18 18 21 26 31 59 59 54 53 45 60 62 62 58 54 51 54 43 56 56 44 50 49 61 65 64 56 54 54 52
63 69 75 70 55 43 49 56 58 57 52 47 29 15 14 26 18 25 25 24 41 59 56 51 50 47 59 60 58 52 51 45 43 42 55 55 44 48 56 64 65 59 55 55 54
62 68 74 71 56 43 46 53 55 56 47 37 34 32 8 23 26 19 21 21 26 49 60 51 44 39 52 58 57 54 52 45 43 45 45 45 38 40 53 61 65 65 59 55 54
60 66 73 74 57 42 43 50 51 53 46 35 31 31 22 1 20 22 20 19 20 43 56 55 42 37 45 54 60 54 53 47 38 43 49 44 39 41 56 55 60 64 62 58 54
57 64 71 73 58 41 39 46 49 47 48 36 29 28 25 11 13 23 23 22 21 41 48 56 39 34 42 52 56 52 49 45 41 40 46 46 44 40 40 49 54 62 63 62 55
54 61 68 73 60 42 34 41 45 45 45 43 27 21 19 15 11 22 23 22 47 44 48 54 50 31 38 46 51 53 48 43 43 36 42 51 52 39 37 52 55 51 54 59 58
51 59 64 70 60 45 29 36 42 43 42 44 27 18 18 15 12 17 24 35 46 33 47 51 45 37 35 45 42 45 45 40 37 39 36 44 54 49 31 39 59 53 47 48 52
48 55 62 67 64 46 31 30 37 41 40 40 34 17 16 10 13 15 17 46 35 24 50 56 37 29 33 38 38 42 43 44 37 34 34 35 47 50 27 40 47 60 48 46 45
46 52 59 64 65 51 36 24 31 37 37 35 37 21 17 18 25 32 31 33 40 49 48 54 49 29 29 34 35 41 40 38 35 35 33 32 43 49 42 37 43 45 59 52 48
43 49 56 60 64 54 41 22 25 31 33 36 32 27 37 38 33 23 25 28 37 41 43 35 32 27 29 35 37 42 37 32 30 32 32 31 34 44 41 32 34 34 51 65 59
39 45 53 57 63 59 42 22 18 25 27 31 23 28 36 21 25 27 20 29 37 50 38 28 22 23 23 32 37 36 34 31 29 28 29 28 32 39 42 42 38 40 39 47 52
37 43 49 54 60 62 47 24 13 18 24 24 19 26 26 18 20 26 33 36 40 37 29 24 20 20 29 32 35 35 35 33 31 28 26 23 27 30 30 37 40 36 47 47 48
34 40 45 53 58 61 51 28 13 9 15 18 16 26 19 16 20 36 38 36 24 21 24 25 25 22 26 25 29 33 34 32 32 29 26 21 24 23 23 29 33 44 39 44 46
30 36 41 48 54 59 56 31 19 5 6 12 11 17 19 13 18 27 29 27 21 16 16 21 23 25 26 26 30 33 34 33 33 33 26 22 23 22 20 25 24 24 39 41 45
28 32 37 45 51 55 58 46 22 4 2 4 7 5 12 13 19 17 23 17 10 14 13 16 17 20 23 24 27 30 30 31 31 31 30 28 25 24 22 25 25 26 27 28 35
26 29 35 41 48 53 56 54 34 12 7 6 2 4 7 14 17 19 20 15 13 9 12 14 17 19 22 25 26 27 30 30 28 29 30 31 28 25 25 26 25 25 25 27 30
25 27 32 38 45 49 53 56 45 20 6 10 7 6 8 13 21 16 19 17 19 14 19 16 13 16 21 23 24 27 28 27 27 28 28 29 29 26 24 24 25 24 26 25 26
23 26 31 35 41 45 50 53 48 26 10 11 12 12 10 12 17 23 22 21 24 15 18 22 17 18 20 24 27 29 28 28 29 29 31 32 33 22 17 21 24 27 27 28 28
22 25 29 34 38 41 47 51 49 34 16 8 14 15 15 15 16 18 20 22 27 21 18 21 20 19 21 21 22 23 26 29 32 32 27 31 27 20 20 27 33 33 30 30 32
20 24 27 31 36 40 44 49 49 40 23 10 15 17 19 17 18 18 19 22 23 24 24 23 23 23 22 23 22 22 24 25 26 23 29 23 28 24 26 30 35 35 32 30 29
19 22 25 29 33 38 42 45 48 44 26 11 11 19 20 21 19 19 19 19 20 24 25 27 28 29 28 28 27 26 26 26 25 23 24 26 26 25 27 32 31 28 29 25 24
17 20 23 29 32 36 39 42 45 46 33 14 8 15 22 23 24 21 20 19 19 18 20 24 26 27 26 26 27 26 24 25 27 25 25 23 21 27 25 28 31 31 27 25 24

GFSSW_500_spd_075.txt.gz
Wind_Speed
52 57 64 72 73 66 56 47 50 56 57 60 65 49 37 31 23 39 61 62 62 60 61 64 62 61 68 58 53 50 60 52 61 53 60 50 59 61 54 52 51 48 48 37 48
51 56 65 71 75 69 55 47 53 58 58 60 63 42 29 16 19 24 44 45 60 61 60 63 63 62 65 61 58 61 54 50 51 58 59 51 58 57 62 52 53 51 48 46 41
50 57 64 70 76 68 55 47 52 59 56 63 62 35 18 10 14 30 33 40 51 62 61 58 66 65 66 62 62 59 60 50 49 49 65 55 57 61 64 58 56 54 51 49 47
49 57 63 70 75 71 55 47 52 58 57 61 55 32 12 11 7 35 27 38 39 62 62 40 64 65 65 65 62 60 52 59 45 58 55 55 58 66 61 68 57 55 53 52 49
49 56 62 68 74 72 55 48 52 56 56 57 51 35 12 13 13 34 19 30 35 60 57 51 54 60 61 60 63 56 55 50 35 47 59 57 58 61 59 62 62 56 54 54 52
47 54 60 66 72 74 58 46 50 55 53 53 47 35 12 15 16 25 22 29 27 56 57 52 43 59 60 60 56 64 65 62 49 43 49 58 57 53 60 54 67 60 55 56 54
46 53 59 66 71 72 58 44 49 52 51 51 43 33 28 21 18 18 23 23 24 49 55 50 40 42 56 58 60 65 65 56 46 32 47 54 61 52 53 50 55 67 59 56 56
45 51 58 64 70 71 59 43 46 50 50 48 41 29 21 6 18 19 20 23 24 43 54 52 43 32 44 51 55 58 65 46 60 48 41 43 54 44 41 47 49 64 66 60 57
42 48 56 62 68 69 58 40 43 47 48 47 39 22 18 12 26 19 24 23 25 37 53 51 45 41 41 47 41 53 56 54 47 45 49 40 52 56 45 48 47 49 65 67 59
38 46 53 60 66 67 56 40 39 44 45 46 38 22 15 13 17 24 22 21 17 34 50 50 50 39 34 43 42 48 54 50 47 42 51 39 44 54 44 43 48 49 56 67 68
36 44 51 56 62 64 56 39 35 41 44 47 39 18 13 14 13 26 25 19 18 29 54 54 46 35 28 33 41 45 48 43 45 43 44 38 38 42 43 40 42 51 52 60 66
34 40 48 54 61 63 56 38 32 38 42 45 36 16 15 16 10 20 27 23 17 33 51 47 42 29 29 32 40 43 49 46 43 41 35 38 39 42 40 36 37 48 51 50 58
31 37 44 50 57 61 56 38 29 35 39 43 25 18 15 10 10 17 20 21 24 49 50 46 38 30 29 32 37 38 49 36 39 41 40 34 38 39 43 43 35 37 51 50 50
28 35 42 48 54 59 56 41 26 30 35 31 27 27 25 15 21 10 14 36 36 32 44 47 35 24 24 29 38 33 40 44 40 34 37 37 33 40 43 47 33 35 39 50 52
25 32 39 46 51 57 58 39 23 25 29 24 23 27 25 25 23 17 19 22 20 31 45 43 37 21 24 26 32 34 37 43 43 32 33 35 34 31 36 49 44 28 38 47 51
22 28 35 42 49 55 56 38 26 20 22 21 14 21 26 25 18 13 10 17 26 40 49 35 38 19 17 24 31 35 36 35 34 36 36 34 32 32 28 34 42 51 40 36 46
20 26 31 39 45 51 54 42 26 15 18 18 9 13 15 14 14 20 20 23 31 39 47 31 28 18 19 22 29 30 32 29 30 31 31 32 35 32 36 28 34 42 42 41 39
18 23 28 36 42 47 51 45 28 13 13 12 14 12 15 12 14 25 29 34 35 39 31 27 27 23 19 23 23 23 29 31 29 30 29 31 31 29 28 25 26 32 36 42 42
18 20 25 33 38 44 49 47 35 12 3 8 9 10 13 18 22 27 35 34 30 20 13 15 20 23 21 17 23 26 34 31 33 34 30 26 24 23 17 19 23 30 35 45 47
17 17 23 29 35 39 45 48 36 19 4 1 3 8 10 21 26 22 23 18 18 14 15 16 17 16 19 22 26 29 30 33 33 32 29 28 23 23 17 19 21 24 25 24 28
17 15 22 26 31 37 41 47 45 31 8 6 3 6 9 16 14 19 14 12 13 11 13 15 17 17 19 20 20 27 28 31 32 32 27 24 22 26 22 22 23 23 24 25 25
15 13 19 23 29 33 37 44 47 41 18 8 9 7 10 13 20 15 14 8 4 6 12 15 16 19 19 19 22 25 26 28 29 27 29 28 29 29 27 25 24 26 25 23 22
12 12 17 20 27 30 34 41 43 43 28 8 11 13 11 15 18 21 25 21 15 12 14 14 13 15 16 19 21 21 21 22 25 27 26 26 26 27 23 23 23 28 30 30 26
10 9 14 18 24 27 31 37 41 43 34 16 7 15 16 15 19 22 21 22 22 20 18 17 17 17 17 19 21 23 24 25 28 30 26 28 23 24 19 22 29 32 35 31 27
9 8 11 17 21 25 28 34 39 40 39 24 12 12 17 18 19 21 24 20 23 26 26 19 20 23 20 20 20 20 24 28 31 23 32 22 26 22 23 29 34 36 33 31 29
11 9 9 16 18 23 25 29 35 38 41 30 16 7 17 20 21 20 22 24 25 25 28 26 22 23 24 22 20 20 21 23 24 22 27 25 25 28 24 28 30 32 34 33 29
8 8 8 13 16 21 23 25 31 36 40 36 21 9 12 18 21 22 22 23 23 25 27 27 25 26 29 27 27 27 26 28 28 28 29 30 24 26 25 24 28 30 33 33 32

GFSSW_500_spd_078.txt.gz
Wind_Speed
43 42 48 54 58 64 69 72 66 54 48 52 56 61 64 50 35 31 33 54 60 56 57 61 63 64 68 66 62 60 61 61 57 59 52 54 52 51 52 51 53 51 49 41 40
41 42 47 52 58 63 69 72 64 55 50 54 57 61 63 48 21 15 16 29 58 57 55 61 61 65 62 72 62 54 61 58 52 59 48 48 54 51 52 50 57 51 53 43 42
38 41 47 51 57 63 69 72 61 55 52 55 57 59 58 42 10 11 20 25 51 58 56 58 52 68 61 72 67 64 58 53 52 56 52 49 51 52 53 56 52 56 54 50 43
38 42 46 50 56 63 70 70 62 54 52 56 57 57 52 37 11 8 10 23 38 47 53 55 57 58 60 62 64 60 64 55 55 50 51 57 52 52 55 51 55 57 55 54 49
38 42 45 49 55 63 69 69 62 52 52 56 56 55 44 38 12 12 13 15 30 40 45 51 57 54 55 56 58 59 50 55 57 41 60 48 51 53 52 51 53 54 58 52 54
38 40 43 48 54 61 67 67 59 50 52 54 55 54 36 29 10 16 13 15 26 38 38 54 45 47 52 57 56 45 63 51 50 59 45 54 55 56 54 54 49 59 57 55 51
35 37 42 46 53 60 65 65 56 50 52 53 54 50 28 24 11 14 19 15 21 27 44 50 51 41 54 55 59 55 67 57 55 50 59 34 41 46 57 56 52 54 57 61 55
33 35 41 45 51 58 63 62 53 49 50 52 55 43 25 20 11 13 16 18 24 28 49 42 52 38 45 52 55 59 53 51 46 47 52 47 32 50 54 57 55 52 59 59 65
31 33 39 43 50 56 60 60 51 47 48 51 52 36 22 22 7 14 14 19 18 29 47 45 45 34 46 47 55 53 56 62 38 55 61 40 31 46 52 55 53 49 54 56 62
30 32 36 41 48 54 58 58 49 46 46 50 46 35 24 21 6 15 18 18 20 26 46 42 37 36 44 42 50 52 49 53 46 41 44 36 24 38 49 54 51 48 50 64 54
28 29 33 40 46 52 56 54 48 43 45 44 39 29 21 21 8 17 22 18 18 24 46 48 39 41 33 36 38 41 49 47 48 56 53 32 23 25 39 45 50 45 49 58 59
27 28 31 38 45 50 54 52 45 39 40 36 33 30 24 20 7 20 20 17 15 24 46 49 43 30 35 38 38 36 40 42 46 52 51 52 38 31 32 42 48 42 36 48 61
26 28 29 36 43 48 52 52 43 33 37 29 30 32 29 25 8 18 20 17 11 24 44 45 43 33 27 26 34 31 32 41 33 45 45 27 39 36 31 31 42 45 43 45 52
24 26 27 33 40 46 50 53 40 30 31 24 26 26 28 28 27 9 16 19 14 35 38 31 38 30 26 28 26 29 27 35 39 29 40 31 31 31 31 30 30 41 39 40 44
23 25 24 30 36 42 48 50 39 30 27 25 21 17 20 24 24 17 20 15 20 40 36 31 32 26 24 26 26 23 28 29 30 31 34 34 34 30 34 33 35 37 41 35 36
22 21 22 28 33 39 46 47 41 26 20 23 15 11 8 10 12 13 6 22 32 29 38 32 28 26 26 26 28 25 22 30 37 30 29 37 36 29 34 31 32 32 41 38 34
19 19 19 25 31 36 42 43 39 25 22 18 14 15 6 4 2 8 9 15 17 33 37 31 20 17 18 19 27 29 21 25 31 38 33 31 34 29 34 34 28 26 35 44 43
18 17 16 21 27 33 39 42 39 35 13 14 11 13 12 6 5 11 11 15 22 36 40 32 17 18 13 18 20 25 30 26 26 31 33 35 34 36 33 30 32 27 27 34 37
17 15 13 18 23 29 35 39 40 35 14 10 9 9 8 9 15 13 13 23 36 35 29 26 21 13 12 14 19 23 26 26 28 28 28 32 29 32 28 27 29 28 27 27 32
16 13 11 14 20 26 31 36 38 36 15 4 7 8 11 19 20 22 27 30 32 28 22 23 20 19 18 13 17 18 24 26 28 23 24 25 20 21 18 18 18 18 21 24 29
13 12 8 11 17 22 27 33 38 40 28 3 2 9 13 15 16 13 14 13 6 7 14 18 21 19 17 15 15 21 23 26 28 29 20 19 24 21 16 16 14 14 15 17 19
12 9 6 8 14 19 24 32 38 39 40 16 5 7 12 14 8 12 9 8 8 5 8 11 14 20 17 15 14 14 24 23 27 25 25 23 20 24 18 17 17 18 19 20 20
11 7 4 6 12 16 21 28 34 36 42 30 2 12 12 14 18 18 14 11 8 5 6 10 11 12 15 16 18 18 16 23 24 25 25 25 26 25 25 19 21 23 25 26 23
8 6 4 4 9 13 17 25 33 36 41 40 21 7 16 15 17 19 21 20 17 13 11 11 9 9 11 12 14 15 18 19 23 24 21 24 23 23 19 21 22 26 31 31 25
9 5 5 2 7 11 15 22 30 33 41 42 35 12 9 17 17 19 20 21 20 19 20 19 16 15 17 16 15 18 21 24 27 19 24 18 20 20 23 22 25 28 30 28 26
13 8 6 0 5 10 13 18 26 30 38 41 37 25 7 11 17 18 20 23 22 21 23 24 23 21 16 17 16 15 15 18 19 19 23 19 22 21 23 22 22 24 26 27 28
20 12 8 3 3 8 10 15 21 28 36 39 39 32 17 5 14 19 20 22 24 24 25 25 26 27 26 21 20 18 15 17 18 18 20 20 19 23 25 25 24 27 28 30 32

GFSSW_500_spd_081.txt.gz
Wind_Speed
35 38 39 41 44 45 50 56 63 66 61 55 51 51 55 59 59 52 31 23 40 59 55 57 57 61 63 67 67 56 57 62 60 60 59 56 57 57 54 50 47 44 43 46 40
36 37 39 42 42 45 50 56 63 65 61 55 51 52 58 60 53 41 16 12 22 49 56 59 56 61 65 67 68 65 53 59 56 57 60 57 57 57 55 52 48 45 48 44 45
36 38 40 41 41 45 51 57 63 64 60 54 50 53 59 57 46 20 15 12 17 34 55 54 57 60 68 68 69 69 51 58 58 54 60 60 56 57 54 51 45 44 46 43 47
36 38 39 40 42 46 50 55 62 64 59 55 51 56 58 50 35 14 14 17 24 30 52 51 58 60 66 69 69 65 55 53 58 58 56 62 58 51 53 50 47 48 46 45 45
35 38 40 39 42 47 51 55 63 62 58 54 53 56 54 44 29 12 10 8 20 27 49 47 54 55 44 71 68 66 65 55 55 55 56 58 55 46 55 51 48 47 47 45 46
35 38 38 38 43 46 50 56 62 61 57 53 54 53 49 34 26 6 7 4 4 27 43 44 51 50 43 59 64 64 66 57 49 47 54 58 62 48 45 54 52 49 48 47 44
34 37 36 40 41 46 50 56 60 60 56 52 53 49 45 32 21 8 13 16 18 26 32 43 48 47 47 50 58 66 61 69 52 60 41 47 60 57 47 52 53 50 49 47 47
35 35 36 37 40 46 50 55 59 57 53 50 50 50 41 31 16 9 15 10 12 21 27 41 45 45 36 43 55 65 66 52 63 43 56 47 42 43 54 60 55 52 49 45 46
35 33 36 35 39 45 49 54 57 55 50 47 48 48 38 32 11 14 11 14 11 27 22 40 44 40 42 40 52 58 56 54 55 52 62 45 44 35 39 44 47 54 53 49 47
33 31 35 34 38 43 47 53 54 51 45 45 43 43 39 30 4 14 14 15 16 19 25 39 44 39 35 43 40 52 46 48 48 60 65 49 48 41 41 33 42 57 57 52 48
33 30 33 33 37 41 46 51 51 46 42 41 40 35 41 28 6 14 14 19 17 19 30 36 35 32 34 39 39 40 43 38 50 48 46 42 51 56 27 26 34 49 57 58 50
31 30 31 31 35 38 43 49 47 44 37 36 33 30 41 36 12 13 16 16 19 16 41 39 22 46 36 38 38 34 37 43 37 48 31 42 47 53 30 30 34 40 50 49 47
29 29 29 29 32 36 40 46 45 37 34 32 28 27 37 38 11 12 15 14 16 20 40 38 23 33 41 38 33 40 36 42 35 42 33 35 47 46 30 29 28 37 44 46 44
26 27 26 25 29 33 38 45 42 34 29 27 25 20 28 32 23 5 13 13 8 25 35 33 33 34 34 31 32 31 30 31 38 33 25 35 41 47 37 25 24 34 41 43 46
24 24 24 21 26 30 35 41 40 34 25 27 24 24 20 21 25 20 9 11 8 24 36 35 30 22 32 30 34 26 26 28 26 31 29 30 35 19 26 33 27 26 31 38 45
21 22 20 20 22 27 32 38 38 32 21 20 17 22 19 16 18 16 8 17 22 30 27 30 32 25 27 31 25 28 24 21 31 29 30 29 36 33 24 31 34 32 29 31 33
20 20 17 17 19 23 28 34 36 30 29 18 16 19 19 12 10 15 20 29 34 22 29 28 20 22 28 29 28 25 24 22 26 33 32 24 25 31 28 26 27 28 30 30 29
19 16 15 14 16 20 25 32 33 34 20 13 13 16 14 10 9 13 15 21 32 30 32 25 25 26 26 27 24 24 28 32 30 25 26 24 20 25 25 31 32 29 25 26 28
19 14 13 12 13 16 22 28 31 31 22 9 12 12 12 13 11 8 11 22 35 28 29 22 19 21 20 24 27 27 21 24 25 26 29 27 25 25 23 28 28 29 28 31 27
20 15 11 10 10 12 18 24 29 31 22 7 5 11 15 17 17 16 15 14 30 27 17 12 18 17 16 17 19 24 27 24 25 25 25 28 31 30 26 27 27 32 30 29 32
21 15 11 9 7 8 15 21 27 35 26 8 1 8 7 9 13 15 18 23 31 30 21 14 12 12 10 9 17 20 23 25 22 22 18 20 23 22 16 20 23 24 26 27 27
21 15 11 8 4 5 12 20 28 34 34 19 1 9 8 3 4 9 14 14 19 22 22 22 17 16 13 12 14 15 17 21 23 22 23 21 22 21 21 20 20 20 19 20 21
23 15 12 9 4 2 9 17 25 31 34 32 15 7 12 10 8 8 7 6 6 5 10 13 18 20 19 17 16 15 15 21 21 22 27 27 25 21 20 18 19 21 24 22 22
23 15 14 10 5 2 9 16 21 29 34 37 29 13 10 13 15 18 15 13 13 11 8 6 9 12 12 14 16 15 18 18 25 25 21 23 22 22 21 21 22 20 21 23 15
24 17 16 12 7 3 8 14 20 24 32 40 39 27 8 10 16 16 19 21 21 18 16 13 13 10 8 9 10 13 15 17 18 13 22 18 23 23 24 21 21 21 21 22 20
27 19 16 13 10 7 8 13 17 22 28 35 40 40 24 2 8 17 17 17 19 17 15 16 16 16 13 10 12 14 13 13 13 18 18 19 19 22 25 26 22 17 20 24 24
31 20 16 15 11 8 9 12 12 18 24 32 37 39 36 20 5 8 18 19 17 18 18 17 19 21 18 19 16 10 14 13 13 13 14 15 16 21 22 21 21 23 25 24 25

GFSSW_500_spd_084.txt.gz
Wind_Speed
32 35 37 38 40 41 41 44 45 52 58 62 63 63 58 56 54 54 51 43 32 28 42 57 57 58 63 62 65 50 74 62 60 63 60 57 58 59 57 53 46 47 44 52 47
34 35 38 39 40 42 41 44 46 52 60 62 64 62 58 54 53 53 40 36 21 19 36 45 57 59 62 62 67 53 73 57 61 58 58 58 59 59 57 56 52 45 48 53 42
33 37 38 38 42 41 41 45 46 54 61 63 65 63 58 54 52 41 37 20 16 16 25 39 47 59 61 63 75 52 71 61 61 57 58 56 60 59 57 57 54 50 47 46 37
33 38 39 40 41 40 42 46 48 57 62 63 64 62 57 52 44 37 23 9 13 20 18 43 45 58 60 63 68 69 64 65 59 59 54 59 59 59 57 54 53 51 49 46 45
34 38 39 39 40 41 42 46 50 59 62 64 62 59 56 50 40 30 1 9 16 26 20 43 45 56 58 55 65 64 62 68 50 62 53 60 60 60 58 54 52 50 46 42 44
35 38 38 39 41 40 42 46 52 60 62 63 60 57 51 47 40 6 2 11 13 23 23 43 45 51 53 54 61 57 61 68 44 61 56 54 58 61 58 56 53 51 49 46 43
36 38 38 39 40 39 42 46 53 60 62 61 56 53 49 46 34 16 8 13 8 15 20 39 40 47 51 50 63 69 35 67 53 60 54 49 52 61 60 57 55 51 52 48 45
35 38 38 39 40 38 42 47 54 59 60 59 52 47 47 44 26 21 5 6 4 17 29 40 30 44 51 45 66 60 58 69 62 38 58 62 53 58 61 57 54 52 51 48 45
34 37 37 37 39 38 41 46 54 58 58 56 48 40 44 41 10 19 12 9 10 22 20 42 35 46 50 33 61 59 58 62 61 46 50 41 56 51 62 56 54 59 54 50 46
32 36 37 35 38 37 40 45 53 56 56 52 45 38 39 39 10 14 14 10 9 22 24 37 37 43 42 46 40 62 58 51 57 49 59 29 46 62 58 60 48 49 50 48 47
32 33 36 32 35 36 38 45 51 53 53 48 40 31 34 39 11 11 15 10 12 21 17 30 33 37 42 33 38 47 56 49 48 54 51 29 35 35 52 59 60 58 52 48 45
49 32 35 29 31 32 35 42 48 50 48 44 36 29 30 36 18 9 13 14 12 16 18 30 34 34 40 32 32 36 44 50 49 52 51 39 34 47 38 39 43 42 48 51 50
51 34 34 26 28 28 33 40 45 47 42 38 32 29 26 28 21 8 9 15 15 16 25 26 36 26 38 31 28 34 40 45 52 33 34 45 40 39 42 42 30 36 37 37 36
50 40 35 22 24 25 30 37 42 42 40 35 27 28 25 24 21 7 6 12 13 17 39 29 21 32 28 36 36 31 30 40 37 26 26 40 36 42 45 43 38 29 33 39 32
49 40 33 20 20 22 27 34 38 39 35 38 25 27 23 22 20 2 8 9 15 20 34 26 23 28 27 31 27 22 20 25 30 27 33 38 24 35 38 43 40 34 35 44 42
49 46 30 20 17 19 25 30 35 35 28 25 20 22 21 20 17 13 13 10 13 19 24 26 20 31 31 28 19 19 22 23 22 22 27 30 18 21 31 33 37 32 25 26 34
49 47 28 18 14 16 22 26 31 32 31 24 17 18 18 16 17 14 12 14 21 27 24 19 28 34 25 29 27 23 22 21 22 24 23 24 21 19 26 41 31 29 31 25 25
49 38 28 16 12 13 18 22 27 30 26 17 12 16 16 11 15 21 28 27 22 26 19 21 29 30 26 29 25 25 21 19 25 30 20 23 23 24 22 27 23 31 35 32 31
51 41 28 16 10 11 13 18 22 25 23 11 9 13 20 15 12 12 22 26 25 24 18 20 28 36 37 30 22 21 23 21 22 24 25 25 24 21 23 31 28 26 29 29 26
53 39 28 16 11 9 8 14 19 21 22 11 6 11 12 17 13 16 30 23 28 23 19 24 28 27 25 23 20 19 22 27 22 26 20 22 26 23 20 25 25 25 32 32 30
53 37 27 17 12 8 4 8 15 18 23 14 3 8 7 11 17 13 25 26 20 18 15 25 18 17 17 18 24 25 26 24 22 21 21 23 25 24 26 28 28 28 29 31 33
52 37 27 18 14 9 2 8 13 19 26 18 4 9 6 5 9 17 17 26 19 13 8 8 9 9 10 10 13 20 26 27 26 23 22 22 23 23 26 29 31 31 29 28 31
48 36 26 21 17 11 5 6 13 22 27 29 11 5 9 6 8 13 18 16 20 17 11 12 11 13 14 12 7 12 18 20 25 25 21 23 21 21 23 24 23 23 23 24 25
37 37 26 23 19 14 10 10 12 23 30 33 28 15 7 13 13 11 11 15 13 13 13 12 14 12 11 14 15 16 18 19 23 24 22 23 23 23 22 20 21 22 24 25 24
40 34 29 25 20 16 13 13 14 20 29 33 36 28 7 10 15 17 17 15 14 13 13 11 9 9 11 11 12 14 15 18 15 14 23 19 25 27 26 25 26 25 26 26 24
43 34 30 27 22 19 16 13 15 19 26 33 36 35 25 8 11 18 18 19 19 17 14 14 15 13 12 10 7 9 11 12 13 16 18 19 26 29 29 28 28 28 27 28 29
41 35 31 28 23 21 17 14 15 18 25 31 35 37 33 25 13 2 13 17 17 17 16 15 14 15 17 17 14 9 10 11 13 15 18 21 22 28 28 27 24 22 24 27 28

GFSSW_500_spd_087.txt.gz
Wind_Speed
35 34 34 37 39 39 39 42 44 43 46 51 58 62 63 65 64 64 59 56 52 51 47 41 43 58 66 61 60 68 67 55 57 70 66 61 58 61 59 59 50 48 48 43 41
36 35 36 37 38 38 40 41 43 42 48 53 59 64 64 66 65 64 60 56 53 44 24 31 32 47 61 62 62 70 67 68 60 67 64 62 59 60 58 55 55 51 46 50 55
36 37 37 39 38 37 39 42 43 43 49 56 62 66 65 66 63 63 58 53 37 20 21 21 26 39 53 62 61 69 69 52 45 65 63 64 60 59 59 58 54 48 44 48 46
35 37 38 40 39 37 39 41 43 45 51 58 62 67 65 64 61 60 56 27 12 10 22 18 25 39 54 62 60 70 74 60 53 66 61 66 60 60 59 57 56 56 48 45 46
37 36 37 39 40 37 39 41 43 47 53 60 64 66 65 63 59 55 35 12 13 18 21 20 32 35 48 57 59 74 70 53 57 62 62 60 60 59 61 58 57 54 53 51 47
45 39 37 36 38 37 37 41 44 48 54 60 65 64 62 59 55 59 9 9 16 15 18 20 33 34 43 55 61 76 78 43 59 56 58 59 59 59 58 59 57 54 51 50 50
41 47 38 36 38 37 36 39 44 49 55 59 64 60 57 55 52 36 3 14 16 17 11 21 36 33 40 52 61 67 85 34 51 54 58 62 60 58 59 58 59 55 51 51 49
38 43 42 37 37 38 35 37 44 49 54 59 61 56 53 51 49 10 4 10 15 6 21 38 17 34 40 49 60 62 67 40 49 66 53 60 53 62 58 56 57 55 51 48 43
41 38 45 39 40 37 35 36 45 48 52 58 55 51 50 45 41 12 1 5 11 13 13 35 22 25 41 47 60 54 60 51 41 61 51 57 52 54 61 57 55 54 50 48 46
41 34 44 42 40 37 34 36 43 47 50 56 49 50 46 38 32 13 6 4 9 14 25 30 21 16 38 45 54 52 59 52 30 65 41 48 59 55 59 62 59 55 52 49 47
42 35 39 40 42 38 32 37 41 47 49 52 47 46 41 32 26 10 11 3 7 7 17 35 28 12 41 42 44 48 60 48 27 54 52 39 63 55 49 62 58 59 54 50 50
43 35 34 40 43 40 31 35 39 44 48 47 41 41 37 27 20 4 14 8 7 11 15 34 21 25 34 41 33 30 49 33 42 46 40 45 33 58 51 46 55 59 54 52 49
44 33 32 37 41 42 31 35 36 42 46 44 37 37 34 22 17 3 11 10 10 8 12 25 20 28 34 39 28 23 42 48 39 36 43 37 35 25 55 61 50 55 56 54 48
45 36 30 34 38 37 30 32 34 40 43 40 35 30 30 19 13 3 6 12 10 12 16 21 25 30 30 26 17 24 24 49 38 33 29 32 42 28 24 39 46 48 51 52 48
46 38 29 29 38 36 28 30 31 38 43 34 30 30 23 19 16 3 6 10 13 7 20 23 30 29 32 26 16 23 21 33 36 36 32 21 21 32 29 30 35 43 54 48 45
47 41 35 28 39 34 26 26 28 35 31 31 26 22 17 17 16 5 12 9 14 11 23 17 23 26 31 22 26 20 16 23 26 24 33 23 19 24 31 32 30 35 35 33 36
47 43 33 26 33 30 24 22 26 32 33 28 20 16 16 16 14 11 11 12 15 18 19 16 16 22 20 25 22 14 16 26 25 20 23 24 21 21 26 33 35 35 35 34 33
49 42 34 22 36 26 21 17 22 28 30 22 13 12 13 14 19 17 17 17 20 22 15 22 23 22 20 28 18 18 16 19 17 17 15 14 26 13 14 21 28 28 29 29 28
50 45 33 31 35 27 19 13 19 24 26 19 8 8 13 10 15 15 18 19 24 15 14 24 27 21 17 18 16 14 13 13 14 16 14 15 16 15 11 13 27 30 30 27 28
48 43 35 32 33 23 16 10 14 18 22 18 2 4 10 12 18 19 19 20 14 7 22 25 28 29 25 25 21 21 19 18 16 22 23 20 16 18 18 22 24 25 23 29 31
47 44 35 35 29 19 12 7 9 12 14 13 4 4 7 11 21 21 23 22 11 12 20 19 20 22 24 20 18 16 16 17 14 17 18 20 17 23 23 27 29 30 31 32 30
49 41 33 35 25 17 12 5 4 6 8 8 4 10 5 10 22 21 22 22 17 21 17 17 14 12 11 10 11 14 17 20 20 18 16 20 19 22 28 26 27 30 33 35 36
47 37 34 31 25 19 11 4 5 13 15 7 2 12 9 7 12 26 24 24 13 9 13 14 11 7 5 4 5 11 15 18 19 19 19 17 18 21 26 27 28 30 31 31 33
46 42 37 28 23 19 12 9 9 18 24 21 9 9 12 11 11 17 22 16 13 12 8 6 6 7 9 8 11 9 12 15 18 21 22 22 19 22 23 24 23 21 27 32 34
43 38 32 30 25 21 15 13 13 20 28 28 24 15 9 12 12 13 16 15 13 9 8 5 2 3 7 8 9 11 12 13 15 17 19 19 24 25 26 25 26 27 27 29 30
42 34 31 30 28 20 18 17 18 22 28 31 33 28 16 10 17 18 17 17 17 15 13 12 9 7 5 5 6 6 7 10 11 15 18 20 25 24 27 30 31 32 33 35 35
39 40 30 33 28 24 23 22 22 23 27 29 34 34 28 17 9 11 20 21 21 20 20 17 15 11 10 11 10 8 8 8 10 13 16 17 21 28 28 29 30 33 35 35 36

GFSSW_500_spd_090.txt.gz
Wind_Speed
49 44 41 40 42 43 43 44 43 42 43 43 45 46 51 56 60 63 66 67 67 65 61 60 59 56 60 64 66 62 64 66 69 61 59 54 55 59 60 61 57 61 48 55 64
44 51 48 43 41 42 43 45 44 44 44 44 45 48 52 57 61 65 67 70 67 64 63 51 46 45 50 53 67 71 68 63 66 57 46 64 49 57 57 60 60 61 46 53 48
44 45 47 49 45 41 42 45 46 45 44 45 45 50 54 59 62 64 69 67 62 61 39 30 28 28 32 37 50 68 69 58 61 55 61 56 56 49 57 58 61 59 57 56 55
41 41 42 40 49 45 40 42 44 46 44 46 48 52 56 62 63 68 66 63 58 38 25 19 23 25 26 35 46 53 62 58 59 45 60 57 55 53 52 54 62 54 58 58 56
43 42 41 37 43 46 42 41 41 44 45 48 49 53 58 62 62 64 61 58 43 25 24 24 25 26 23 29 40 48 57 56 59 67 37 59 58 44 59 51 56 54 60 53 50
46 43 40 38 36 41 45 43 42 44 45 49 51 54 60 61 61 59 56 48 28 26 25 26 23 23 28 30 32 42 54 55 61 61 38 43 60 56 61 55 51 52 55 51 44
48 45 42 40 39 38 43 43 44 43 45 50 51 53 58 57 56 55 50 28 23 34 32 23 19 19 20 29 30 45 50 56 66 68 33 49 58 60 60 57 52 52 49 51 54
47 47 46 42 43 33 40 43 46 44 46 49 50 53 54 53 52 48 39 19 20 17 5 8 12 25 19 23 35 44 44 57 70 73 21 46 57 61 61 56 56 53 49 46 48
46 46 45 44 45 35 37 42 44 42 45 48 49 53 51 48 45 41 26 13 14 4 7 21 19 20 10 25 39 41 43 55 66 49 13 59 58 57 62 60 57 55 52 46 48
51 45 46 45 44 37 34 39 47 44 46 47 48 49 47 44 40 34 20 8 7 6 17 17 14 12 19 30 37 39 40 49 68 38 32 44 53 54 57 62 57 56 54 48 40
54 50 46 46 45 41 32 29 45 46 41 45 45 50 43 38 36 27 14 8 6 7 16 13 2 7 19 25 30 36 40 49 54 18 41 34 52 53 55 60 57 56 53 51 47
54 53 48 47 44 40 29 29 43 44 42 44 46 39 39 35 34 23 12 12 9 6 25 20 14 4 27 20 26 29 41 45 44 27 13 41 43 56 54 59 60 57 51 49 44
55 52 50 47 46 42 29 31 40 42 41 42 44 35 32 34 29 20 10 9 9 7 24 22 12 5 20 24 24 28 37 41 30 30 14 39 28 54 50 55 58 58 54 46 41
60 53 53 45 46 35 29 31 41 39 40 45 30 30 28 33 25 17 7 8 7 3 10 13 17 12 12 22 19 24 27 35 42 20 18 30 43 29 49 49 54 52 56 51 47
66 55 54 46 44 32 23 25 38 38 42 33 33 26 26 29 25 14 6 8 7 8 3 16 16 22 19 17 17 15 16 26 41 16 15 12 25 35 18 50 37 56 52 45 44
54 59 55 47 40 30 25 25 37 36 38 34 26 19 25 26 21 8 9 9 8 4 10 14 16 21 17 16 15 14 9 16 38 22 9 13 13 22 24 23 52 42 41 37 40
55 61 58 42 36 31 29 29 33 32 32 30 21 14 23 22 8 11 14 15 9 18 15 14 21 25 19 21 19 16 16 17 17 19 16 13 11 11 21 17 22 31 46 46 43
62 64 54 42 34 25 24 27 29 29 31 27 13 11 17 14 15 20 17 17 17 11 19 13 12 25 19 19 13 22 24 24 20 15 16 16 13 12 13 32 22 25 34 34 32
66 62 50 41 28 23 25 23 24 26 26 23 7 6 10 6 12 18 17 18 16 10 16 20 18 19 15 16 14 18 21 22 21 18 17 18 18 12 11 15 17 20 23 25 22
63 57 47 38 34 27 25 18 23 20 23 17 5 2 6 11 14 17 16 15 12 14 19 21 21 15 16 14 12 17 14 14 20 13 10 13 16 18 14 14 22 23 24 26 28
60 54 46 41 37 30 17 17 18 17 18 13 4 2 4 15 16 15 14 12 19 22 20 22 18 13 16 14 11 13 15 14 12 13 15 17 14 14 13 15 15 25 31 30 31
57 52 45 40 32 21 16 17 9 12 14 8 4 5 7 18 20 19 13 15 17 16 15 16 16 14 14 11 8 7 8 10 12 14 15 16 15 14 17 19 19 20 20 22 24
54 49 43 36 27 17 15 13 6 8 9 8 5 11 10 20 19 17 12 10 14 17 14 14 11 12 9 8 8 7 7 6 11 13 13 12 17 15 16 21 23 26 29 29 29
52 50 42 33 22 17 17 9 5 2 4 5 6 13 14 17 25 16 14 18 17 15 15 10 4 3 2 2 2 2 4 6 10 12 11 14 15 16 18 23 26 27 27 29 31
51 44 32 25 19 19 16 10 6 5 3 6 10 15 16 13 11 26 19 17 10 8 7 9 6 5 2 1 3 6 6 4 6 8 10 12 16 18 18 21 26 32 34 34 35
43 38 31 26 24 22 15 13 11 10 7 19 17 16 17 18 17 21 25 23 14 12 12 8 4 2 1 1 2 3 4 5 7 9 11 13 15 17 20 24 24 26 29 33 36
38 32 29 24 24 20 18 19 18 18 22 25 24 20 17 14 19 20 20 19 16 14 14 13 10 8 7 5 4 4 4 3 3 4 7 9 14 18 20 23 26 28 31 34 35

GFSSW_500_spd_093.txt.gz
Wind_Speed
42 41 40 42 39 39 37 39 43 46 44 43 44 45 48 47 49 50 52 54 58 59 66 68 66 64 65 65 61 61 69 70 64 61 53 54 62 59 61 63 64 67 67 58 65
42 42 43 39 40 40 40 39 39 43 49 47 49 48 47 48 50 53 53 55 60 63 68 68 64 62 58 50 56 62 64 70 62 57 53 55 56 60 63 61 61 62 67 61 56
44 43 43 43 40 39 38 38 38 38 45 42 42 45 46 47 52 51 54 57 62 66 69 63 57 52 40 35 39 49 65 60 63 55 54 54 54 62 54 64 60 56 51 66 50
47 46 44 44 41 41 40 39 39 39 41 46 44 43 46 48 50 54 57 60 63 64 62 50 43 39 29 27 27 37 49 60 56 56 57 51 58 64 55 56 61 56 49 53 68
50 49 48 44 42 40 41 40 44 41 41 46 48 45 46 47 51 52 58 61 59 57 46 40 39 36 27 27 33 38 34 46 59 56 56 52 58 70 54 54 57 53 52 54 56
51 49 49 45 45 42 41 41 41 40 42 45 48 48 45 49 48 53 55 56 52 45 35 41 44 39 26 23 23 22 29 38 46 55 48 53 59 71 54 52 53 54 49 56 62
51 49 50 47 44 42 41 39 40 38 40 48 51 49 45 47 49 51 51 48 43 33 37 35 21 15 17 15 17 17 26 28 38 50 45 54 52 62 57 44 51 51 47 55 57
51 51 48 49 42 43 41 38 40 44 35 48 49 51 45 47 49 46 44 39 32 26 14 10 3 7 14 19 12 12 26 29 43 50 51 52 50 47 53 45 41 47 47 53 62
54 52 47 50 45 42 42 38 39 44 37 52 52 48 45 45 43 40 39 30 23 9 7 9 13 17 14 12 12 18 26 28 41 46 51 42 50 47 52 56 48 47 42 43 51
57 54 51 47 48 41 44 40 38 40 38 48 47 47 42 42 37 37 33 26 10 5 6 7 7 5 4 11 11 16 21 29 36 43 57 31 10 40 58 60 50 52 50 42 33
59 57 51 50 48 44 42 43 38 37 37 46 47 45 45 35 33 33 27 23 8 10 8 3 3 6 4 8 17 16 19 24 28 42 58 13 18 40 53 54 55 54 50 44 40
63 62 58 49 48 47 42 43 40 39 37 43 45 44 34 33 31 30 22 19 13 8 11 15 5 12 10 9 13 16 20 21 25 39 52 11 10 28 55 54 50 52 57 45 42
66 66 63 51 48 48 44 41 40 38 37 42 44 31 34 31 29 25 17 10 7 7 8 12 7 6 12 10 10 12 18 20 18 47 40 7 18 38 46 49 50 53 52 44 49
46 44 51 58 48 48 45 38 36 38 40 41 32 32 31 28 27 19 10 4 5 4 8 3 9 3 6 11 9 9 11 20 26 31 31 14 18 40 42 43 46 49 44 47 41
41 40 37 45 50 48 40 35 35 35 35 31 30 30 26 27 27 14 2 7 4 4 3 5 7 10 11 7 7 8 11 18 29 16 17 5 10 23 38 37 44 45 46 48 44
34 38 43 40 51 47 38 34 34 29 34 28 25 28 21 24 17 6 8 12 5 5 9 11 10 13 14 17 17 13 12 18 32 17 1 6 11 21 27 44 45 39 40 40 46
27 34 41 44 45 43 38 33 27 25 28 25 23 16 15 12 9 12 16 12 7 11 16 16 9 13 18 18 16 10 14 24 20 19 6 8 10 10 20 21 42 38 38 42 37
27 28 51 44 42 42 38 29 22 27 27 23 21 6 7 7 12 16 14 10 12 11 15 17 17 11 20 23 24 12 15 18 15 24 10 3 10 12 9 19 19 40 40 35 35
28 25 51 43 44 41 34 28 24 25 22 18 12 3 7 5 8 16 15 13 11 16 21 15 16 14 16 16 27 19 15 15 12 17 17 6 10 14 11 8 13 19 30 33 30
18 41 55 51 43 39 30 23 22 20 18 16 1 4 10 10 10 13 13 9 15 17 20 21 20 12 21 12 23 23 21 19 20 19 13 15 11 10 12 11 7 8 9 26 29
17 51 56 47 44 34 24 18 14 16 14 10 8 5 12 15 11 11 11 14 15 21 24 20 20 18 19 18 18 21 20 20 16 17 17 16 15 13 11 11 13 10 17 14 16
38 54 53 49 40 30 21 10 8 15 13 4 11 7 11 16 12 15 17 20 18 19 18 15 18 18 16 16 17 19 17 15 15 15 16 15 13 12 12 10 8 10 18 15 17
49 55 47 41 33 23 16 9 8 11 12 4 14 8 21 19 17 15 15 13 18 21 19 16 17 16 13 14 15 16 14 11 14 16 17 16 14 13 11 11 11 11 14 16 19
57 51 45 37 28 22 15 8 5 8 8 5 16 11 23 20 17 13 16 20 19 22 19 16 12 9 9 11 11 11 11 12 13 11 13 13 15 14 13 15 18 20 21 22 23
50 45 36 29 21 16 11 6 1 3 5 6 14 16 16 21 16 14 19 20 18 15 9 11 11 11 9 7 7 9 11 11 10 10 12 10 11 13 14 16 18 21 24 28 31
40 36 29 24 21 15 11 8 4 5 3 7 13 18 17 18 21 21 16 16 8 6 12 10 10 10 9 8 7 8 8 7 8 9 8 9 11 12 12 13 16 19 22 26 29
38 29 24 20 17 15 15 12 11 10 15 8 14 19 18 15 11 21 22 18 14 9 11 6 6 5 4 4 5 8 8 6 5 6 9 11 12 13 13 16 19 22 24 28 30

GFSSW_500_spd_096.txt.gz
Wind_Speed
42 41 42 44 44 43 43 41 39 37 38 40 34 35 42 46 51 49 49 50 51 53 52 52 54 58 59 64 67 69 72 72 70 68 61 53 60 53 53 57 64 77 80 78 71
43 42 43 44 46 46 44 42 41 38 37 39 40 37 38 40 40 45 46 49 50 52 53 53 57 60 64 66 67 66 66 65 60 60 63 57 63 49 55 61 65 71 82 77 72
44 47 49 49 47 47 47 43 44 42 40 39 40 39 39 39 44 42 42 45 46 49 49 53 58 62 67 63 56 58 61 49 49 56 59 62 64 53 60 64 65 67 73 72 72
47 48 52 53 52 50 47 45 43 41 41 43 40 39 41 43 46 44 43 42 43 47 49 54 60 64 61 56 53 52 42 39 39 52 58 60 61 59 61 63 61 63 66 64 67
52 52 53 54 54 50 48 46 44 41 40 41 37 33 42 45 46 48 44 42 42 45 49 54 57 57 52 50 48 43 33 36 33 45 56 56 59 57 55 61 62 62 64 53 59
54 54 55 56 54 52 46 45 42 40 38 37 38 44 40 47 49 44 42 41 39 42 46 48 50 49 44 41 40 34 33 36 37 35 50 55 56 56 53 62 63 59 61 54 53
58 57 55 53 53 51 45 43 41 40 37 36 36 41 43 50 48 47 41 37 37 37 41 41 39 37 24 13 16 23 23 27 27 32 46 48 54 51 52 58 61 56 56 55 44
63 59 56 51 46 46 42 43 41 39 36 34 36 39 44 51 50 43 34 31 31 30 29 22 18 3 4 6 7 5 6 3 13 25 40 47 43 45 56 59 66 52 55 51 44
60 59 57 52 43 42 41 41 39 40 36 35 35 39 46 46 41 33 31 27 23 20 12 6 10 10 8 2 3 10 7 4 13 20 38 43 41 48 56 64 67 44 51 52 39
54 56 54 50 44 42 41 38 39 39 35 34 35 39 44 50 37 29 26 24 19 10 8 7 6 4 9 6 9 2 4 10 10 24 35 43 36 47 48 57 60 35 49 50 42
46 49 50 47 44 42 40 38 38 39 34 33 35 39 43 39 30 28 23 20 15 11 11 7 4 8 7 5 7 8 9 12 9 26 34 33 36 38 36 51 43 38 44 48 34
49 55 54 49 46 47 43 41 39 35 34 32 33 37 42 29 26 24 23 17 12 14 18 14 8 14 4 6 7 7 9 12 6 18 30 34 37 22 38 56 40 34 46 51 37
47 51 52 53 54 51 46 42 41 33 32 31 33 42 28 26 22 22 18 13 7 10 11 9 5 4 5 8 5 10 9 7 6 22 41 13 1 19 41 43 48 43 41 49 37
33 28 32 31 37 48 50 45 37 33 29 29 33 25 23 18 20 18 12 3 3 5 2 2 3 4 5 8 9 10 6 11 7 17 22 24 13 11 39 46 45 44 42 46 44
19 13 15 25 29 29 43 43 35 28 26 24 27 15 12 18 17 8 1 7 6 2 7 7 3 8 11 11 8 13 13 25 18 22 23 7 4 22 30 47 45 44 43 44 37
21 15 12 18 28 28 30 34 31 25 20 20 14 9 11 16 15 9 13 10 7 8 13 10 7 13 13 14 10 16 23 24 26 18 7 4 15 16 35 37 41 43 38 35 35
28 22 26 22 32 25 27 28 25 20 14 12 9 7 8 16 20 18 14 7 10 15 17 14 16 17 17 15 16 20 19 18 18 14 17 14 17 17 30 28 32 33 35 34 30
35 35 30 24 32 26 23 25 21 14 14 8 11 7 8 16 13 12 9 13 12 16 17 11 18 12 18 16 19 17 19 22 21 7 11 17 21 15 21 29 28 31 30 24 24
10 18 20 30 31 27 25 21 19 14 10 7 13 8 11 11 9 12 14 12 18 18 16 13 12 29 22 17 21 22 23 16 17 10 7 16 20 20 13 16 20 25 27 22 26
2 16 27 33 30 29 26 22 16 4 5 14 16 12 14 10 10 9 12 17 20 18 16 16 18 20 22 22 24 27 23 19 14 16 8 17 21 24 23 13 15 14 26 30 23
4 15 35 37 33 31 27 20 10 5 14 18 17 19 13 12 9 12 16 18 22 20 20 14 20 17 28 24 24 26 24 20 16 11 13 18 19 19 19 15 14 13 14 18 19
27 28 44 38 34 30 23 13 13 9 11 19 18 23 16 11 14 21 21 27 26 21 20 21 20 24 22 27 25 24 25 20 16 17 16 15 17 18 17 16 14 11 10 12 13
35 48 42 38 32 27 17 15 9 13 11 21 19 23 17 16 19 20 22 21 19 20 24 22 21 19 24 24 23 22 23 21 20 17 16 12 14 16 16 16 15 14 14 13 12
48 42 38 35 29 20 15 12 9 10 17 23 19 26 22 19 15 17 22 25 24 23 24 21 19 18 18 17 18 19 19 19 22 20 17 13 9 10 10 10 10 10 9 9 12
43 38 31 24 19 16 11 8 10 12 21 23 24 26 23 19 17 21 22 24 21 15 12 15 17 17 15 17 16 16 17 17 17 17 17 17 15 13 14 14 13 12 12 15 17
35 30 25 20 17 14 6 7 12 15 22 23 24 27 22 21 20 24 24 17 11 10 15 15 14 14 14 13 16 16 17 18 18 17 15 14 15 16 15 14 14 16 18 19 22
27 21 16 13 13 8 6 14 17 18 17 19 24 28 21 18 16 16 15 10 5 7 11 11 12 12 13 12 12 12 11 10 12 12 11 12 14 15 15 15 14 15 18 20 23

GFSSW_500_spd_099.txt.gz
Wind_Speed
47 46 45 45 44 44 46 46 45 46 46 44 45 43 42 40 39 38 38 41 47 47 48 50 53 52 54 54 57 57 59 58 60 63 62 66 69 68 68 65 58 55 57 56 55
48 48 48 49 49 49 51 51 50 48 48 46 44 43 43 42 40 41 39 39 42 44 43 46 48 51 53 55 56 58 59 58 61 65 68 70 72 70 66 67 61 58 58 57 61
51 50 52 52 51 53 52 53 55 52 49 47 44 43 44 44 41 39 41 39 38 45 46 44 46 49 49 51 53 56 59 60 64 67 69 72 74 71 67 65 59 59 59 59 58
51 53 54 54 53 54 57 56 54 54 52 46 44 43 42 43 41 39 38 39 41 43 42 43 43 44 45 47 52 57 60 63 66 65 70 72 70 72 65 65 60 56 57 61 64
53 54 55 56 55 56 57 56 54 51 52 45 42 40 40 41 40 39 42 42 47 43 40 40 42 43 43 47 51 57 58 63 60 61 63 64 66 69 60 60 56 60 63 62 59
57 58 58 59 57 55 55 54 53 49 49 45 40 39 38 40 40 42 41 43 51 41 37 38 38 38 44 46 50 49 50 51 52 52 50 52 54 56 57 56 54 64 61 62 61
64 61 58 59 57 55 54 48 47 45 43 42 38 39 36 38 40 37 38 46 44 33 35 33 33 35 36 35 33 32 31 22 20 32 44 46 50 52 49 55 63 57 59 65 64
65 58 56 54 51 51 51 43 41 39 39 37 38 37 35 36 35 34 37 46 29 30 31 27 21 16 17 19 11 8 3 11 18 19 22 34 30 33 46 48 56 57 61 68 60
60 54 50 51 49 47 47 40 39 37 36 37 36 35 33 35 33 36 44 39 26 28 26 18 9 4 8 8 10 12 12 13 17 16 16 23 18 36 41 46 53 52 57 62 45
50 50 49 50 48 46 41 34 36 37 35 33 31 30 32 34 34 37 42 27 24 24 20 14 11 6 8 13 13 12 10 13 10 14 11 15 21 30 29 43 42 49 55 57 42
51 46 46 46 45 45 39 34 35 34 32 35 28 27 30 33 33 41 28 22 23 22 19 14 12 9 14 20 11 5 6 5 10 10 11 16 25 28 31 36 38 48 52 49 44
42 39 40 43 41 38 39 36 34 32 34 28 25 25 29 30 33 35 23 22 20 17 17 13 8 9 17 10 7 5 5 6 6 2 13 16 18 19 24 30 38 48 61 46 50
28 28 28 30 32 36 41 36 33 33 31 24 23 25 27 31 31 20 23 18 11 10 12 12 2 4 4 1 3 9 5 4 9 3 10 16 15 15 16 23 35 52 38 49 45
22 17 20 20 22 26 18 22 34 28 23 22 20 21 24 23 16 19 16 5 6 8 9 9 5 3 2 5 10 9 5 7 19 8 9 21 14 11 14 29 37 50 26 49 49
16 12 7 5 16 19 28 29 26 25 17 15 13 16 11 9 12 12 5 11 11 8 11 10 6 8 6 16 13 11 10 12 14 14 9 9 11 14 15 19 36 29 37 42 36
14 7 10 7 2 11 16 21 23 19 13 9 10 6 3 9 7 12 16 12 10 13 14 10 8 11 8 11 16 18 19 16 10 7 4 7 8 28 22 26 33 35 25 32 29
13 8 18 8 3 10 13 19 20 16 12 10 10 8 10 12 15 17 11 8 13 12 14 11 10 11 14 7 16 13 16 16 17 17 11 15 21 33 30 29 31 26 28 29 24
17 15 21 12 5 15 16 24 21 16 11 10 15 14 13 15 12 11 11 11 13 14 15 13 11 13 5 24 17 15 21 13 17 15 21 22 23 29 35 32 35 34 31 26 19
6 12 20 12 6 23 27 28 23 15 11 14 16 16 16 15 14 13 11 14 18 15 12 12 8 8 10 17 15 20 17 14 14 16 24 29 28 25 19 22 26 28 28 23 21
12 20 18 18 31 32 30 27 20 11 11 20 22 21 18 14 12 12 17 20 17 14 13 7 15 14 15 21 22 21 18 14 6 12 25 25 25 24 16 12 24 24 24 15 9
26 38 43 39 36 32 30 23 16 18 24 20 24 22 16 13 14 14 16 16 15 14 18 16 10 19 25 24 24 23 18 17 10 12 22 26 26 22 20 19 13 10 14 12 17
46 43 41 36 34 30 24 17 17 23 23 22 24 21 17 16 17 18 18 20 16 12 15 18 26 22 24 24 24 24 21 15 14 14 15 21 23 25 23 18 13 14 8 13 15
46 42 39 35 29 22 18 15 18 25 23 24 26 20 22 21 21 23 23 17 18 20 20 21 24 28 24 23 27 25 22 19 19 17 15 16 19 21 20 17 14 14 12 9 7
37 34 31 27 19 19 15 16 19 27 22 24 25 21 23 22 22 21 16 20 20 17 20 21 21 22 20 21 21 21 21 20 15 15 16 16 13 16 15 13 11 9 8 6 2
30 24 24 22 21 18 17 16 22 26 23 27 24 22 20 24 25 24 23 21 18 15 14 14 15 17 16 17 19 20 21 21 18 15 12 14 14 10 7 5 5 6 8 9 6
29 25 22 23 22 22 19 17 27 25 26 27 23 20 20 23 24 25 22 17 16 18 15 13 11 12 14 15 16 17 17 17 16 16 14 12 11 8 11 12 12 12 13 14 18
30 29 27 28 26 22 22 22 23 24 26 25 24 22 22 22 23 19 15 15 13 14 15 16 17 15 12 13 12 11 10 9 9 11 10 9 8 7 7 9 9 11 12 14 15

GFSSW_500_spd_102.txt.gz
Wind_Speed
56 55 55 53 50 51 50 49 50 52 52 49 47 46 45 46 46 45 45 46 43 42 37 36 40 46 47 52 54 54 53 53 51 53 51 54 59 57 60 61 59 58 57 59 61
56 56 56 54 53 53 53 53 52 53 55 54 53 51 48 45 45 46 47 45 44 41 38 34 30 38 42 44 51 55 55 56 54 56 58 58 60 61 62 64 64 63 60 60 67
59 58 57 56 55 55 56 55 54 54 54 56 55 51 50 46 45 44 47 46 45 43 42 36 33 35 36 43 45 51 49 54 55 57 59 62 63 62 67 67 66 66 64 62 67
61 59 60 57 56 56 57 57 54 54 55 56 55 51 49 44 44 44 45 44 43 42 40 39 38 37 34 37 42 44 46 50 52 55 59 62 65 68 71 70 70 68 70 72 72
62 62 61 60 58 57 57 57 56 56 55 55 54 50 44 43 42 42 43 43 41 42 41 39 37 36 37 37 41 42 44 49 54 58 61 63 66 69 71 73 71 69 72 72 77
60 62 62 60 59 59 57 57 56 56 53 51 52 46 42 40 38 40 42 41 40 39 38 35 34 33 34 39 39 38 36 37 40 47 51 59 61 67 69 70 74 73 73 74 76
65 63 64 63 60 58 54 54 54 50 45 46 48 45 44 37 36 38 38 36 36 34 34 36 34 33 36 39 35 30 31 33 38 38 41 47 57 63 65 66 70 64 66 60 59
63 63 61 60 59 54 50 49 50 47 44 33 42 40 34 33 31 34 34 34 34 33 35 36 33 32 36 31 25 24 26 21 27 25 26 38 43 44 53 57 60 52 55 50 52
52 49 48 46 44 42 42 41 41 40 38 39 37 30 30 29 28 32 33 33 32 33 34 33 31 32 28 18 16 16 15 15 13 15 19 31 30 30 35 41 43 48 54 44 53
50 49 41 37 33 32 37 39 36 32 32 36 30 28 28 26 25 28 30 31 28 32 28 29 30 29 20 16 15 11 9 7 9 11 22 23 13 10 9 14 26 42 48 37 42
32 36 35 37 33 31 31 34 33 20 25 25 28 28 23 22 23 26 26 25 32 30 27 27 28 21 15 15 18 8 6 6 7 17 13 12 7 14 13 17 25 30 27 33 46
32 30 22 16 22 29 27 33 31 33 27 19 19 18 19 22 23 24 24 29 28 26 28 26 19 12 12 12 9 5 5 4 4 15 8 6 6 11 7 8 25 33 22 39 41
13 7 7 11 6 11 13 21 19 29 29 26 16 15 18 18 19 23 24 23 23 23 22 13 10 5 5 3 4 6 6 5 4 6 6 4 4 6 8 10 15 20 26 35 41
6 7 4 8 9 13 15 15 13 16 19 16 14 13 14 15 18 20 20 20 16 12 10 15 9 7 5 4 8 7 4 4 1 6 4 9 3 5 11 10 16 17 28 34 46
4 5 3 5 7 20 21 20 16 13 12 10 10 10 11 10 10 14 17 10 8 10 16 14 8 8 5 10 11 5 2 3 6 2 7 9 11 12 6 15 14 15 41 45 41
7 14 18 13 13 21 20 31 17 20 13 9 7 6 10 4 3 7 8 15 12 12 16 10 9 9 9 7 9 8 11 13 9 4 10 2 2 10 11 13 12 26 46 41 26
7 14 16 20 20 21 19 23 26 18 14 9 8 15 10 10 14 16 14 13 10 14 12 8 6 8 12 8 17 16 16 17 19 12 9 7 13 22 16 9 20 19 23 38 30
9 15 14 17 24 31 34 32 25 19 16 9 19 16 13 13 14 11 10 11 13 13 11 10 7 9 4 17 16 11 13 10 13 20 25 24 21 38 23 12 13 18 19 19 13
25 19 18 26 32 42 33 26 25 19 11 24 20 17 18 18 15 14 16 14 12 12 10 10 8 9 18 17 16 12 18 18 16 27 34 25 26 36 16 15 14 16 13 14 14
35 39 37 37 43 36 26 26 18 11 20 27 23 20 18 19 20 18 17 13 10 13 9 6 10 11 11 15 19 17 17 17 21 33 32 26 27 17 22 24 26 21 18 14 7
50 44 40 38 37 30 25 21 16 15 26 22 21 20 19 19 18 18 15 13 15 17 8 11 12 13 19 21 18 17 17 17 24 28 28 27 26 22 19 19 15 16 12 9 10
47 42 38 35 29 24 17 13 19 26 26 23 22 21 22 19 18 15 13 13 13 11 7 15 20 20 19 24 20 19 17 19 23 23 23 24 30 24 23 20 20 17 11 7 9
37 32 28 23 20 16 12 22 26 27 28 24 25 23 23 24 20 19 13 21 17 17 22 18 21 20 17 21 22 20 23 23 19 23 22 23 29 27 24 22 19 15 12 9 5
38 33 29 24 17 15 17 24 26 29 25 26 26 26 26 25 20 19 19 21 20 20 19 20 20 19 18 22 24 21 18 19 19 19 20 22 25 25 24 23 19 18 16 14 12
42 38 33 30 25 22 25 26 25 27 26 26 23 22 22 19 21 24 22 18 16 17 19 19 19 21 19 19 19 18 19 18 19 15 17 14 17 16 19 17 14 13 13 10 7
52 48 42 34 28 26 27 26 26 25 24 22 23 23 22 22 22 20 19 18 17 17 15 13 12 13 14 15 16 15 15 16 15 17 15 12 11 11 12 14 15 11 7 8 7
52 50 47 40 33 29 27 27 25 22 19 18 21 22 23 21 19 21 19 18 17 18 17 14 11 11 11 11 12 11 10 8 8 6 8 9 8 7 9 8 7 7 10 8 8

GFSSW_500_spd_105.txt.gz
Wind_Speed
61 61 60 59 58 57 55 54 52 52 53 54 52 51 48 47 46 46 44 43 44 44 42 41 41 41 40 40 40 45 47 48 47 49 48 47 50 50 53 54 48 51 52 51 52
65 65 65 64 61 58 57 54 54 53 53 55 53 52 51 48 46 47 48 47 44 44 44 44 42 41 38 35 35 37 42 47 48 51 54 50 51 49 54 56 54 51 54 57 60
69 68 66 65 63 62 60 58 55 54 54 53 55 54 53 49 47 44 45 47 46 44 44 46 45 44 43 39 36 34 37 45 45 47 52 55 55 54 56 54 55 59 54 59 62
63 62 62 61 61 60 59 59 57 55 55 54 53 52 51 49 46 43 42 43 45 44 42 44 43 42 42 42 40 34 35 39 45 47 48 52 56 55 59 56 57 61 62 61 62
66 65 64 62 61 59 58 58 57 56 55 53 51 51 50 48 46 44 43 41 42 43 42 41 41 40 40 37 37 37 37 38 39 42 47 49 52 52 52 56 59 62 65 65 66
65 63 61 61 60 58 55 54 52 52 52 50 45 50 50 49 45 40 41 39 39 39 39 38 37 38 39 39 36 36 37 36 39 42 45 48 47 52 52 58 60 60 65 70 71
58 55 59 58 57 56 53 50 46 44 43 44 45 46 45 46 42 42 40 41 39 37 36 34 34 35 36 34 32 32 34 38 36 39 44 41 38 48 55 59 60 65 69 73 73
55 55 50 52 54 45 43 42 38 33 34 31 37 39 38 30 29 35 37 34 33 35 33 32 33 36 38 37 35 34 37 37 36 36 37 34 32 43 51 57 60 62 66 68 68
62 45 40 36 30 32 33 27 29 30 29 32 34 29 31 37 34 33 31 31 31 32 30 30 29 28 30 33 35 36 36 32 28 29 29 30 31 40 44 50 55 62 65 67 65
15 19 22 26 29 26 17 21 21 26 28 31 36 34 28 27 29 27 27 26 27 28 27 27 27 28 29 31 29 31 30 24 19 23 13 16 21 26 29 31 39 46 58 64 64
5 13 16 12 16 24 22 25 21 16 23 24 23 24 25 23 20 20 22 22 22 22 24 27 28 29 27 25 20 24 23 17 12 10 11 11 12 16 8 10 11 17 28 38 46
7 9 11 19 19 24 19 23 31 20 16 17 25 20 23 30 21 16 18 19 19 21 25 27 26 24 21 15 14 20 14 11 9 8 7 11 9 9 9 9 4 10 5 23 32
4 1 1 5 8 16 21 25 26 29 24 20 16 18 15 15 12 16 18 18 20 23 26 21 21 10 8 12 15 11 11 8 6 9 4 4 6 9 14 13 12 8 9 22 25
8 5 7 6 7 18 19 20 26 26 26 23 17 14 11 11 14 17 17 18 20 19 16 13 12 11 10 10 8 9 9 8 7 3 7 6 5 4 12 12 5 10 17 19 23
8 11 4 5 11 19 26 27 21 21 16 15 17 12 11 11 13 16 16 16 13 9 9 16 14 9 9 11 10 7 4 2 3 4 14 7 15 10 12 10 12 11 15 26 20
23 20 12 14 24 26 26 33 29 25 19 16 14 10 8 9 11 12 9 7 9 12 20 15 9 8 11 12 10 12 12 9 9 9 7 9 9 8 8 15 14 11 19 19 20
21 22 22 26 32 33 35 36 20 21 20 15 14 15 11 8 10 14 15 13 8 15 14 7 7 10 11 10 13 10 8 12 17 7 1 4 3 20 21 20 17 22 24 24 19
25 27 29 34 42 39 30 19 24 23 17 23 19 15 15 15 14 12 11 12 15 12 8 8 11 14 13 20 11 13 8 13 18 13 9 12 20 24 25 30 20 24 28 23 21
35 41 40 43 35 28 28 23 25 18 23 25 22 18 16 15 17 18 19 17 14 10 13 12 10 12 19 13 16 15 12 14 12 18 28 32 22 23 26 24 20 27 24 26 24
47 45 43 35 32 27 24 23 21 26 25 25 21 21 20 20 19 19 18 16 16 14 13 15 16 18 16 18 17 14 22 23 26 29 33 30 31 32 23 21 21 25 22 28 28
40 34 29 26 25 25 18 21 25 31 25 22 22 22 24 22 20 18 22 21 19 12 15 13 17 17 19 15 18 20 24 26 27 28 26 24 34 32 27 20 15 14 23 26 20
33 28 26 23 17 14 11 17 30 24 23 20 23 25 22 21 17 17 20 18 14 10 14 16 18 21 17 18 21 25 23 22 21 22 21 30 29 32 23 20 20 19 20 27 17
33 24 22 21 22 25 30 29 26 23 23 24 24 23 20 16 21 24 20 16 16 19 20 18 18 21 18 18 20 21 21 21 21 24 20 23 33 30 29 23 19 17 15 18 20
41 35 29 29 31 30 32 29 27 26 27 27 24 22 20 24 26 24 23 19 20 19 19 21 19 19 21 27 24 21 22 23 23 24 24 24 29 27 25 22 23 23 22 19 20
51 43 36 31 32 31 30 30 28 30 28 27 23 22 24 25 24 23 25 24 18 18 18 15 17 17 20 20 20 19 18 20 22 22 16 21 24 26 24 25 24 23 21 20 19
58 50 43 31 29 29 28 28 27 24 21 19 20 24 23 22 21 23 23 20 19 17 14 14 13 12 12 14 14 15 17 17 17 17 18 16 15 17 17 16 13 13 14 15 13
53 53 53 48 37 26 24 23 21 22 22 22 23 21 21 22 21 21 23 20 17 14 11 9 8 8 9 8 9 9 10 10 9 10 13 11 10 7 8 9 9 8 8 7 7

GFSSW_500_spd_108.txt.gz
Wind_Speed
68 67 67 67 67 66 65 63 62 57 57 53 51 50 49 50 49 49 47 46 46 42 40 39 38 39 42 42 42 43 44 41 42 43 48 46 50 49 49 47 47 49 49 50 53
70 67 67 67 66 64 65 64 62 58 56 54 52 52 50 50 49 48 47 47 47 45 44 41 39 39 42 44 43 42 42 40 38 39 45 49 52 49 51 51 46 50 52 51 53
62 61 61 59 59 62 61 58 58 58 59 58 55 53 49 49 47 46 47 47 47 46 46 44 42 40 41 44 45 44 41 41 41 43 42 43 50 53 53 53 50 50 53 52 53
50 52 56 57 55 56 56 57 55 53 52 54 53 53 51 49 46 44 45 45 44 44 43 42 41 40 40 43 46 44 41 42 42 43 43 41 45 49 53 53 56 53 55 57 55
59 57 55 54 55 50 49 48 48 48 47 49 51 51 50 49 45 45 43 41 42 41 41 41 42 40 41 44 45 43 41 40 40 42 43 44 44 46 51 54 56 59 57 58 60
56 55 55 54 51 55 49 45 44 42 41 44 43 41 47 47 46 43 40 39 41 42 43 41 42 41 40 42 43 41 41 43 41 41 42 42 41 46 48 56 53 56 60 62 63
53 48 49 43 40 40 42 45 42 37 35 31 41 43 43 40 41 41 40 39 38 39 40 40 40 39 38 39 38 37 38 38 38 40 41 41 37 51 53 54 56 57 57 62 64
49 46 41 42 35 37 39 27 26 32 28 37 38 36 29 39 39 36 35 33 35 38 38 38 38 36 36 36 36 38 40 40 38 40 45 43 37 48 54 54 52 55 59 60 63
29 27 20 26 26 30 29 32 30 25 24 26 27 29 26 27 27 25 29 31 31 29 33 34 33 32 34 34 34 36 37 43 44 43 44 46 39 38 52 50 52 57 60 61 62
14 17 8 12 12 13 16 18 24 25 32 33 27 25 29 27 29 30 26 25 25 27 29 30 29 30 32 32 32 34 37 40 42 40 46 36 40 36 45 51 53 58 61 65 67
14 9 5 7 4 14 14 19 16 29 34 32 30 30 23 23 27 31 29 24 24 25 26 27 27 30 31 33 35 36 37 32 25 32 28 24 22 28 31 42 46 53 59 65 67
9 3 5 5 10 12 13 23 21 32 29 27 26 30 29 20 19 19 21 22 21 22 24 25 29 30 30 31 32 32 25 22 19 17 13 18 14 15 16 19 17 18 27 40 55
18 12 7 3 9 9 4 28 25 28 20 18 16 12 13 21 21 19 18 17 21 24 27 27 28 25 26 24 17 17 18 14 15 11 10 11 11 9 14 19 19 19 16 20 28
16 14 14 10 9 11 17 18 35 28 25 21 17 17 15 17 19 20 19 22 25 25 25 24 20 17 12 10 9 11 10 11 9 9 13 18 11 13 13 18 21 20 16 11 8
17 16 17 21 29 27 24 31 29 27 28 22 19 18 16 16 16 18 20 21 21 21 19 15 10 12 8 7 6 9 8 6 6 10 7 11 14 10 15 16 13 7 3 5 5
29 24 22 32 38 33 29 25 22 20 21 21 15 16 14 12 13 14 15 17 15 11 10 14 12 8 6 9 9 9 6 0 4 6 7 11 17 4 3 8 5 5 5 14 7
39 34 33 40 42 40 34 28 23 24 25 21 16 11 8 8 11 11 9 9 8 10 14 10 9 8 11 9 7 8 4 9 5 9 10 6 9 10 7 12 18 20 18 24 21
47 47 46 43 36 30 30 29 29 24 19 18 14 13 12 12 15 15 13 15 15 12 10 11 8 9 10 14 7 7 8 8 5 4 1 11 19 21 16 23 25 22 26 22 19
41 38 31 30 29 28 27 23 23 24 21 18 20 17 15 18 19 18 20 19 14 14 11 10 12 12 15 11 12 11 8 6 6 9 12 15 16 14 11 13 22 18 19 20 25
36 32 31 28 26 22 18 22 31 22 20 19 20 22 22 22 20 18 18 16 16 13 11 12 14 16 11 12 15 16 11 12 16 17 20 22 24 26 26 26 32 27 30 25 19
30 28 21 22 23 26 22 31 25 23 23 26 26 25 24 20 19 18 16 12 14 17 18 18 17 15 10 15 21 16 18 23 19 17 19 20 26 21 23 32 32 34 27 26 27
35 31 29 30 29 32 26 24 24 26 29 28 24 22 19 19 21 23 22 18 17 21 19 18 17 11 14 16 22 22 17 20 16 14 23 25 22 18 18 21 23 23 27 23 22
42 40 39 37 32 26 27 28 29 29 28 26 24 23 26 25 23 24 22 23 22 22 22 20 14 11 14 18 21 20 20 19 20 25 22 26 26 21 17 16 21 21 19 23 27
45 40 41 39 38 37 35 33 31 30 28 27 28 27 27 23 23 24 24 22 22 21 20 16 12 13 16 20 20 18 19 19 20 21 18 21 25 22 24 27 26 28 23 25 27
47 42 38 39 38 36 34 32 29 28 28 27 27 27 26 25 23 21 20 20 21 18 17 14 16 17 16 16 16 17 17 20 21 21 20 20 24 25 28 24 23 21 22 23 20
50 47 41 35 32 33 29 24 22 23 24 23 24 23 23 23 21 21 19 19 16 17 17 15 15 13 11 12 14 15 16 16 14 17 17 18 17 20 20 20 19 20 21 19 18
45 46 45 43 35 33 29 27 24 23 21 21 22 21 23 22 19 15 14 12 14 15 16 14 15 12 9 10 11 12 13 12 13 14 13 11 14 13 14 14 14 13 11 12 12

GFSSW_500_spd_111.txt.gz
Wind_Speed
65 63 62 64 66 69 70 69 65 65 64 61 59 58 55 52 51 49 47 47 47 45 44 42 41 40 40 41 41 41 41 39 40 40 39 39 42 47 50 49 49 52 52 50 51
59 59 58 59 61 62 63 65 68 67 64 59 59 58 54 52 51 50 48 48 46 46 46 45 43 42 41 41 42 42 43 42 42 44 43 41 40 45 49 51 51 53 53 53 54
51 53 53 50 55 58 57 58 56 58 58 58 55 57 55 52 49 49 47 47 47 46 46 45 45 44 44 44 43 43 45 44 44 46 46 44 43 41 46 49 51 54 55 56 56
42 41 52 44 42 45 50 45 52 52 50 51 50 42 51 51 50 50 49 47 46 45 46 44 44 43 44 45 44 43 45 47 46 45 47 48 47 47 45 43 49 54 56 58 58
32 40 46 47 44 37 44 44 35 42 49 44 48 49 46 47 48 48 47 44 43 42 43 43 42 43 43 43 44 44 45 46 47 45 47 49 49 49 46 51 44 49 58 61 63
53 40 48 51 50 41 40 44 44 28 37 46 45 43 46 44 43 44 44 43 42 41 40 39 39 40 41 42 44 43 44 44 44 43 44 47 47 50 49 50 49 48 53 60 65
28 37 41 41 37 38 30 25 36 36 28 33 33 34 38 42 39 40 38 39 40 40 37 38 37 38 39 39 40 43 45 44 43 42 44 46 44 45 50 51 49 48 51 57 61
24 18 21 32 36 29 25 24 16 22 28 21 26 24 31 31 35 35 37 37 37 37 37 36 35 33 34 35 38 40 42 41 41 41 45 46 43 47 54 54 52 52 51 53 61
12 22 19 14 21 22 24 21 21 13 24 21 27 30 29 29 31 36 36 35 31 31 32 30 30 30 31 34 36 38 38 38 40 43 45 48 45 47 54 55 53 54 54 57 58
18 17 18 15 19 18 20 12 19 19 22 26 34 35 35 33 29 28 28 31 29 29 27 25 25 28 30 32 34 35 36 37 39 44 43 42 42 52 59 58 57 56 57 57 59
12 21 17 16 11 13 25 13 23 22 33 34 32 25 30 36 25 20 22 18 17 19 20 23 25 27 29 31 33 35 37 38 42 45 44 47 48 45 44 51 48 51 55 58 57
17 10 17 17 13 14 20 25 25 30 30 25 27 26 27 25 20 24 22 18 20 22 23 24 25 26 28 30 33 36 38 40 40 41 43 36 30 22 27 28 38 41 42 52 60
23 17 11 17 15 22 22 33 27 30 25 28 28 27 25 20 19 20 21 21 22 22 20 23 25 26 28 33 34 35 37 33 33 34 18 15 13 17 22 24 28 28 27 28 31
27 24 20 13 17 33 26 36 27 22 24 20 16 16 19 19 19 19 18 18 20 21 23 24 25 26 29 32 29 25 25 21 14 11 13 18 13 16 28 26 26 23 27 30 28
44 47 37 30 34 31 33 31 27 25 24 22 20 17 16 19 19 19 20 23 24 23 23 22 24 26 24 19 15 10 7 5 9 13 12 16 21 9 25 30 28 22 14 15 12
45 42 38 32 30 29 27 26 25 23 19 20 17 17 15 16 16 17 18 18 17 18 19 21 19 13 12 9 9 7 4 5 8 11 10 13 16 9 11 11 10 12 11 9 8
38 32 29 26 24 21 22 23 21 19 21 15 13 11 8 8 8 9 11 12 13 13 11 10 11 9 10 10 7 5 1 2 6 7 8 8 6 4 4 5 16 19 17 13 13
34 30 30 28 26 21 17 16 12 15 13 12 10 7 4 3 4 5 6 6 7 12 13 12 11 11 11 10 7 1 4 4 3 3 2 8 3 5 16 23 25 27 22 12 8
34 33 30 28 26 22 18 13 17 18 17 15 11 11 15 18 18 20 19 17 15 14 12 9 11 10 11 6 4 2 1 2 2 2 3 3 2 5 4 10 9 11 11 15 7
28 31 29 26 24 28 19 22 23 21 22 26 25 26 22 21 20 20 19 17 14 13 12 13 13 12 9 7 4 3 4 3 6 3 3 10 15 12 17 21 15 7 12 8 12
39 37 40 39 37 29 32 37 35 32 28 25 24 23 20 19 15 10 9 13 16 15 15 16 12 10 10 9 7 5 6 8 6 8 17 19 20 22 24 19 21 22 23 23 28
44 41 41 40 35 35 33 34 32 31 28 25 25 26 26 25 24 23 22 24 21 17 14 13 10 17 16 15 12 5 10 7 10 15 15 18 17 20 20 23 20 20 24 25 29
43 42 44 44 40 37 36 33 30 30 30 30 31 30 31 30 31 30 29 23 18 16 16 18 20 20 18 17 17 14 7 6 11 12 11 15 21 14 15 14 25 27 24 26 26
45 38 37 39 36 36 34 32 33 33 32 32 33 29 28 29 29 29 22 21 20 17 15 18 20 17 17 17 16 14 15 18 16 20 14 12 14 14 14 16 22 28 27 24 23
43 43 40 32 29 29 30 31 30 30 28 28 30 30 27 27 25 23 22 19 15 12 17 17 17 14 14 15 15 17 17 14 17 16 18 16 21 21 20 20 17 16 19 19 18
39 39 40 36 31 28 26 24 25 25 25 26 27 25 23 23 21 20 18 13 11 14 14 13 11 11 10 12 12 14 14 15 14 16 17 20 18 21 21 19 18 16 15 14 14
37 37 35 38 34 31 28 25 24 23 23 24 23 22 20 19 16 15 13 9 7 8 9 8 3 3 4 5 4 4 5 5 9 9 11 10 11 13 13 13 13 15 13 12 10

GFSSW_500_spd_114.txt.gz
Wind_Speed
54 48 55 59 57 59 64 59 65 68 66 63 62 62 62 61 59 56 54 50 49 48 46 45 44 43 44 43 42 41 39 37 36 37 37 36 34 33 33 37 44 49 51 50 51
44 43 38 46 56 54 56 57 57 57 64 66 61 61 62 61 59 57 55 52 50 48 48 46 46 46 46 46 44 43 42 41 41 41 41 41 39 39 38 38 40 46 50 53 52
35 35 35 41 38 51 54 50 53 55 55 59 62 61 61 59 59 58 55 54 50 48 46 46 45 46 47 46 46 45 43 43 43 44 44 43 42 42 43 42 43 45 49 53 55
44 38 31 32 36 39 36 47 45 50 53 53 53 59 58 58 56 56 55 53 50 48 47 45 45 44 44 47 45 45 45 44 44 46 46 46 45 46 46 45 46 46 47 52 56
31 38 24 25 30 35 39 30 40 40 46 50 50 48 51 51 46 54 54 52 50 47 45 44 43 44 44 44 45 45 46 46 47 46 49 49 48 48 47 52 51 50 51 51 54
27 33 26 22 30 33 34 31 26 35 28 44 47 39 47 50 37 46 48 46 46 46 45 43 41 42 42 42 42 41 41 44 46 49 50 50 48 48 51 53 54 55 53 56 57
17 22 20 28 28 35 41 30 30 32 39 27 45 42 41 41 44 44 43 44 44 43 42 41 40 39 38 38 39 40 41 43 47 48 50 49 47 48 53 54 57 58 56 56 56
14 15 14 19 23 27 32 27 30 34 40 30 41 50 46 44 45 40 37 36 37 36 36 36 37 37 36 36 37 38 40 39 44 45 48 49 47 49 54 55 58 60 59 57 58
21 21 18 14 18 23 25 26 23 28 32 35 30 39 43 42 45 34 33 33 31 30 29 30 32 32 32 33 34 33 36 36 39 44 46 47 46 45 51 55 54 57 58 56 54
25 27 24 22 26 26 24 28 25 26 21 28 26 24 31 32 31 29 28 28 27 25 24 25 27 29 30 29 29 30 32 35 38 43 46 44 41 42 49 53 51 56 59 58 59
27 29 25 23 25 26 25 25 24 33 30 27 25 24 27 31 25 27 32 29 28 26 24 25 25 26 25 26 27 29 31 34 38 44 42 42 38 43 50 52 56 57 59 61 61
28 34 31 21 26 26 21 27 28 25 23 24 24 22 25 23 21 21 22 25 21 20 20 20 19 19 21 24 28 30 32 35 35 42 42 44 43 46 47 52 52 53 54 57 59
45 39 37 23 23 22 31 24 24 24 31 27 24 19 25 27 21 18 18 20 15 15 14 14 17 19 22 27 28 30 31 35 37 40 42 45 43 40 38 40 35 35 35 32 36
44 41 39 36 37 34 31 34 29 27 31 26 21 23 20 19 18 17 18 15 13 14 15 16 18 21 25 27 27 29 31 32 33 37 36 27 29 16 25 33 37 35 31 28 28
35 35 34 32 26 26 29 26 22 21 23 19 16 20 19 17 17 16 15 15 15 17 18 19 21 24 24 24 24 26 25 24 18 16 16 20 26 21 25 29 35 37 32 30 30
29 27 28 29 23 21 19 21 22 17 17 17 17 15 14 15 16 16 16 17 19 20 20 20 19 20 19 19 19 15 10 10 11 15 18 19 24 18 18 16 22 23 21 21 24
32 28 26 23 22 18 18 18 16 14 18 14 12 11 10 11 12 13 13 14 12 12 13 14 15 14 13 8 5 2 5 9 10 11 12 15 14 9 11 10 6 5 8 10 8
27 28 28 26 25 20 15 12 9 15 16 12 9 7 6 5 5 4 4 6 6 8 10 8 5 5 6 3 3 3 7 8 6 9 8 6 14 11 3 10 11 9 7 6 7
35 35 36 35 29 25 26 16 21 18 15 12 11 14 14 13 11 10 6 5 6 7 7 8 10 7 6 3 2 3 3 6 5 5 11 13 9 7 4 4 6 9 16 7 9
43 45 48 44 41 39 31 41 37 33 32 30 27 27 24 23 20 17 16 15 14 14 14 13 11 8 4 0 4 5 6 4 4 8 9 10 11 13 12 12 12 11 11 16 19
39 40 44 41 39 36 34 33 30 29 26 24 23 22 18 14 15 19 21 21 20 20 17 13 10 6 5 6 8 8 7 5 8 9 11 14 18 19 23 18 19 16 18 14 19
40 36 40 40 37 33 33 31 32 30 27 28 31 27 25 25 27 27 26 26 22 17 13 9 11 10 10 8 8 7 10 10 11 10 12 18 17 16 16 21 22 21 22 24 24
36 31 34 36 34 36 37 36 35 35 36 36 34 34 34 33 31 27 24 22 21 20 19 17 15 16 13 12 10 7 10 8 10 10 16 17 17 17 12 15 14 16 24 23 26
40 33 29 30 29 29 33 36 35 35 34 36 36 34 31 27 24 24 23 22 20 21 22 20 18 16 15 15 12 11 11 7 7 8 12 13 15 14 17 18 19 26 26 20 28
38 37 34 27 29 30 28 31 32 32 34 34 33 30 27 26 24 21 19 17 19 19 19 18 18 18 17 16 16 14 11 8 5 7 13 12 12 12 12 15 14 10 9 11 12
35 35 36 33 28 26 28 26 27 26 27 27 27 26 24 23 20 17 16 16 13 12 12 14 14 14 13 12 11 13 11 7 8 11 10 9 9 9 7 6 7 6 5 6 6
30 31 31 32 32 29 28 26 23 20 20 19 19 18 18 18 16 13 11 12 11 7 5 5 5 5 5 5 6 8 6 4 3 4 3 3 3 2 1 1 1 3 3 3 1

GFSSW_500_spd_117.txt.gz
Wind_Speed
41 35 36 44 44 43 54 62 54 62 59 65 61 60 64 59 57 57 56 54 50 46 45 43 43 42 42 42 40 39 35 35 35 35 33 33 32 30 28 28 28 32 38 42 44
38 34 38 35 31 31 42 53 62 51 56 56 64 61 62 57 58 57 56 55 53 49 46 46 45 44 42 41 41 39 38 39 39 39 39 37 36 33 32 33 33 33 34 38 43
26 47 39 27 31 25 26 37 47 56 48 52 41 36 60 59 56 56 56 56 53 50 49 48 48 48 45 43 42 40 41 42 43 43 42 41 40 38 37 36 38 38 39 38 37
14 25 42 32 30 26 21 28 39 53 48 45 49 53 54 58 49 58 52 51 52 50 48 48 47 48 47 45 43 43 44 45 45 45 45 45 43 42 40 39 42 40 41 41 41
9 5 25 31 34 34 35 32 26 35 47 44 45 44 32 43 53 55 54 50 49 49 48 47 46 45 46 45 44 44 43 44 45 47 46 47 45 45 42 46 44 44 43 43 44
17 19 16 16 29 36 36 37 33 25 32 40 41 39 43 42 40 43 49 54 52 48 47 46 45 45 44 43 43 42 42 43 43 46 46 48 48 47 45 47 47 47 47 48 47
26 18 15 17 14 22 31 34 33 31 19 25 35 38 40 41 42 40 47 46 49 50 48 47 45 42 40 40 40 40 41 42 43 44 45 47 47 48 50 50 50 50 49 50 51
27 18 17 17 15 16 21 31 33 24 23 22 25 31 37 41 42 38 33 35 39 42 44 44 42 41 41 41 40 40 40 40 39 41 43 45 44 46 48 50 51 50 52 53 54
30 29 26 17 18 22 20 25 25 22 22 25 20 31 36 32 35 47 38 35 34 35 38 39 39 38 36 36 36 36 37 37 39 39 41 44 43 41 47 50 51 54 56 58 58
36 31 28 27 22 23 27 25 19 21 24 16 15 32 40 38 34 35 34 30 29 29 27 27 28 29 29 29 30 31 31 32 34 36 39 40 42 44 46 50 54 56 59 62 63
43 31 37 27 27 25 24 23 22 24 32 22 21 25 37 32 31 31 29 26 25 25 25 23 22 22 23 24 25 25 26 28 31 35 37 41 44 45 50 53 53 52 54 58 62
47 43 29 30 20 22 24 19 20 24 30 23 22 29 31 27 19 20 26 25 22 20 20 20 19 18 19 19 20 21 22 28 31 36 41 44 44 46 50 51 48 52 58 59 56
37 48 45 39 29 23 24 33 32 27 27 25 22 24 24 23 19 18 21 20 18 16 16 16 16 15 15 16 17 22 25 29 33 36 38 43 39 42 45 42 47 52 53 53 55
42 38 40 38 39 36 36 33 35 34 34 30 27 27 24 22 19 15 11 15 17 17 15 14 13 14 14 17 22 25 26 28 31 32 35 35 35 26 27 31 37 43 44 38 34
35 36 34 33 31 29 30 27 28 25 31 27 25 24 22 18 14 14 17 17 14 14 12 11 13 16 18 19 21 20 22 24 26 29 30 26 29 26 28 28 29 33 38 41 38
36 32 29 30 31 27 23 21 17 16 24 22 21 21 19 17 16 16 14 12 12 12 14 14 15 15 16 14 16 20 21 22 21 18 18 22 24 17 18 18 19 21 21 17 17
34 30 30 27 22 21 25 23 17 18 23 19 16 13 12 13 11 11 12 13 13 12 10 10 10 10 11 12 12 9 7 6 10 12 17 17 18 22 16 5 6 5 2 5 12
43 36 31 32 31 26 20 16 12 21 20 19 16 13 10 8 6 7 8 9 9 5 5 5 5 4 3 3 1 2 6 8 8 10 12 18 21 15 13 13 18 17 10 10 14
44 44 43 41 38 35 29 14 21 19 17 17 17 17 13 11 10 10 10 10 7 4 4 3 6 11 8 3 3 6 6 6 9 12 12 9 7 8 8 7 6 11 12 8 13
41 39 36 37 36 35 27 37 38 37 35 32 30 28 25 22 19 17 15 15 15 15 16 15 11 8 5 6 7 7 8 7 5 7 9 11 16 14 8 7 6 11 11 7 13
38 39 40 38 41 31 31 33 30 28 26 22 22 24 27 27 26 26 26 24 21 18 15 11 9 7 7 10 13 11 10 11 12 12 13 13 19 20 19 13 13 7 9 4 9
36 36 40 41 41 36 39 40 42 39 37 36 36 35 34 33 32 29 25 22 20 16 13 12 13 16 15 12 11 13 11 13 16 15 15 16 16 17 15 17 15 14 13 9 3
36 35 34 36 35 38 39 41 42 42 40 39 37 34 32 31 30 28 24 22 20 19 19 20 19 18 18 16 13 11 11 13 11 13 12 16 16 17 14 12 9 13 11 20 15
36 35 33 31 30 33 35 36 36 35 33 34 33 32 30 28 27 27 25 25 24 24 23 22 21 22 22 21 18 14 13 12 12 10 10 15 14 15 12 8 11 13 13 13 18
31 32 35 30 26 24 27 30 30 30 31 31 29 28 26 24 23 22 22 22 22 21 21 22 22 22 21 19 18 17 14 15 14 11 13 12 13 12 11 10 12 17 20 21 21
27 27 29 30 27 23 20 20 21 22 24 24 23 23 22 21 20 19 16 16 15 15 15 16 14 15 14 13 14 14 13 13 11 10 12 13 10 8 7 10 11 12 13 15 17
21 22 23 24 26 25 19 15 13 13 15 16 15 14 15 14 11 11 10 8 9 8 8 8 8 5 5 6 4 6 5 4 3 3 4 5 5 8 10 11 13 14 16 15 15

GFSSW_500_spd_120.txt.gz
Wind_Speed
22 40 34 29 36 38 39 41 43 56 49 53 56 56 60 55 55 55 52 50 47 44 42 41 39 39 39 39 38 37 35 34 33 32 30 31 30 28 27 26 26 28 32 38 43
18 17 32 25 24 30 29 32 36 40 47 46 48 52 55 56 57 57 54 50 49 47 45 42 40 39 39 38 38 37 37 37 37 35 34 35 34 33 31 30 31 30 30 30 32
22 8 43 23 27 26 27 20 30 34 48 42 45 43 47 45 56 55 54 51 50 47 45 44 42 41 41 39 37 37 38 38 38 38 37 37 37 36 36 35 36 33 32 33 33
20 17 27 25 31 27 28 25 19 26 36 48 40 43 49 53 57 54 51 50 49 47 45 44 43 42 40 40 40 38 38 39 38 38 38 39 39 39 37 39 39 39 37 36 37
26 20 1 31 17 26 25 21 23 21 23 36 41 46 42 37 35 40 54 52 51 47 45 44 42 42 41 39 41 40 40 41 41 42 40 41 42 42 42 44 42 43 43 41 40
23 15 17 15 20 27 26 26 26 15 14 22 41 38 43 38 42 35 40 51 54 47 46 44 43 42 42 40 41 41 42 42 43 44 43 43 43 43 43 44 46 46 45 44 44
30 22 14 9 26 33 34 22 16 12 12 15 31 43 51 41 33 37 43 40 40 49 48 43 43 42 42 40 41 41 42 42 43 44 45 45 44 45 46 46 48 48 48 48 49
35 37 22 10 18 22 35 31 20 17 15 9 18 39 34 38 28 22 30 33 34 35 40 44 45 41 39 39 39 40 41 41 41 43 45 46 45 44 45 46 47 49 50 50 51
46 48 34 16 19 17 21 30 24 21 21 16 20 27 37 43 26 28 27 26 25 24 30 35 38 38 39 39 39 40 40 41 42 42 44 44 44 40 44 47 48 48 50 52 54
43 49 43 28 27 21 20 30 29 20 19 15 20 32 35 39 40 31 29 26 25 25 26 27 30 31 33 35 37 38 38 38 38 39 40 41 40 40 39 45 47 50 52 54 56
47 45 37 32 20 25 18 21 24 19 12 8 12 24 27 31 41 37 34 27 21 20 21 23 26 27 29 30 33 33 32 33 33 35 34 35 36 37 43 46 50 54 57 59 61
49 45 48 33 29 27 18 19 16 16 14 12 10 24 31 29 28 30 29 32 25 21 18 18 20 22 23 24 25 25 25 26 25 27 29 32 33 41 47 52 55 59 62 65 67
46 46 47 45 41 33 25 24 28 18 14 14 14 20 20 19 20 20 21 21 18 14 15 16 17 19 19 19 19 19 19 19 24 27 33 39 41 41 47 48 49 51 54 55 56
42 40 39 41 39 41 39 32 29 29 30 27 26 26 23 20 17 17 18 17 17 15 15 16 16 15 14 14 14 16 20 23 27 31 33 35 34 33 34 36 38 39 42 45 47
36 36 36 34 30 31 32 29 30 31 35 30 27 26 23 19 20 20 17 17 15 13 13 13 12 11 12 15 17 20 23 23 23 22 24 25 25 18 21 25 31 32 30 33 34
37 32 28 30 27 25 22 26 24 24 29 24 21 21 17 16 15 16 19 17 15 14 12 12 12 13 16 18 18 17 18 17 17 17 16 16 16 20 27 28 22 24 22 22 23
44 42 35 26 24 25 23 23 18 19 26 23 21 18 17 16 17 16 15 13 13 13 12 11 13 14 13 12 11 9 6 6 7 9 12 16 20 25 24 23 25 23 21 24 21
44 38 38 41 26 23 22 18 13 21 22 22 20 18 16 15 14 13 14 14 12 10 9 10 10 9 9 6 3 1 4 5 4 6 11 17 19 16 17 17 17 20 22 21 20
48 42 39 37 39 38 23 12 17 19 18 16 15 13 11 8 8 8 7 9 9 9 8 7 5 9 8 4 1 1 2 4 5 9 6 7 9 11 12 13 14 13 15 17 23
48 46 49 46 39 33 28 32 31 25 21 17 14 14 12 11 11 11 10 10 11 13 16 15 11 7 5 6 7 7 7 9 9 8 9 11 14 14 14 14 14 16 20 15 20
39 40 47 49 49 40 45 46 40 37 32 30 29 28 26 25 24 24 24 22 19 16 13 11 9 7 10 10 12 12 12 12 10 9 9 8 10 14 17 16 17 21 17 16 17
35 35 39 41 40 39 40 41 42 42 41 39 36 34 32 30 27 24 22 18 16 17 18 19 18 15 13 12 17 14 12 11 9 8 10 8 9 11 18 20 21 30 24 19 17
30 29 32 35 34 34 36 36 36 37 36 35 34 32 30 27 27 26 26 26 27 25 23 22 21 20 19 17 14 12 12 11 10 9 10 10 12 13 17 19 22 8 17 29 18
28 25 24 25 26 27 30 31 32 33 32 32 32 31 31 29 27 27 26 27 25 24 25 24 23 23 22 19 17 15 13 13 13 12 11 13 15 15 20 22 24 28 23 22 24
24 24 24 20 19 20 22 25 26 26 27 27 27 27 25 23 23 23 22 21 21 21 21 20 19 18 18 17 16 15 15 14 12 13 11 12 12 14 17 18 20 22 24 24 27
19 20 21 20 17 17 17 16 17 19 20 20 21 21 20 19 17 16 15 14 14 13 12 11 11 11 11 9 7 7 7 7 7 7 7 6 9 11 12 17 19 20 21 22 23
13 15 16 16 17 17 16 15 13 12 14 13 11 11 11 11 11 10 10 9 9 6 6 8 6 6 3 3 3 4 4 3 4 5 7 10 11 14 17 18 19 20 18 20 21

GFSSW_500_spd_123.txt.gz
Wind_Speed
25 18 18 49 32 32 39 32 32 50 50 54 54 53 55 56 56 56 54 51 48 45 43 40 40 39 39 37 35 34 33 32 30 30 27 26 25 25 25 25 27 31 36 42 43
27 21 16 33 34 27 35 31 28 31 42 45 48 45 50 55 56 56 54 52 51 48 44 41 39 39 39 39 40 36 34 36 33 33 33 31 30 29 28 27 28 28 30 30 33
26 26 4 33 21 21 27 29 19 25 34 42 41 37 38 47 56 53 53 53 51 49 45 42 40 38 35 37 38 38 37 33 36 36 37 36 35 35 33 34 34 32 32 32 31
27 21 13 36 28 24 26 25 19 19 24 41 38 34 36 39 47 51 52 51 50 48 45 43 41 40 36 36 35 36 36 35 35 37 39 40 39 38 36 38 36 35 35 36 35
29 19 2 26 23 22 26 19 16 16 22 35 48 44 48 42 41 42 51 50 47 46 45 43 41 39 39 38 36 38 37 37 37 35 36 38 39 38 39 39 40 39 39 39 39
39 15 1 21 24 20 22 19 17 11 13 29 47 48 40 34 35 42 40 47 48 49 46 44 41 40 39 39 39 37 38 38 39 38 36 37 39 40 40 41 43 44 44 45 44
43 8 10 20 19 16 13 19 17 16 13 24 43 46 44 42 34 36 41 41 42 43 44 42 42 40 39 39 39 38 39 39 40 39 39 40 41 42 43 44 45 47 47 47 48
46 24 23 24 25 26 29 28 17 15 10 17 35 36 39 37 35 31 32 36 40 46 42 41 42 40 39 39 39 39 39 41 41 42 42 43 42 44 44 46 46 48 49 50 50
48 36 30 30 29 29 16 8 11 9 10 14 29 35 40 29 41 39 28 26 28 32 40 45 43 40 39 38 39 39 40 40 42 42 44 44 44 43 46 46 47 48 49 51 53
50 35 29 31 22 25 14 12 10 8 8 9 22 42 32 26 32 31 24 24 28 26 26 27 31 35 36 37 40 40 37 38 40 40 42 44 45 45 43 45 46 46 47 49 52
53 46 25 25 20 18 16 15 8 4 1 16 24 35 25 35 34 28 22 22 21 22 22 21 22 24 28 31 31 32 33 35 37 39 39 41 42 38 38 39 42 44 47 50 53
52 51 37 19 17 16 11 15 13 13 12 13 23 25 27 35 26 26 24 19 17 16 14 15 16 18 22 25 27 28 30 31 32 33 34 33 33 33 35 39 42 47 51 55 59
42 44 42 33 14 4 13 18 12 9 3 18 25 24 21 21 23 25 21 17 17 9 12 12 12 14 16 18 20 22 23 25 26 26 28 29 30 33 40 47 49 53 55 57 62
35 32 36 37 34 28 25 19 16 18 14 20 22 24 22 21 18 20 19 15 16 14 12 13 14 15 16 17 18 19 20 20 20 23 26 32 37 37 39 42 44 37 34 37 44
35 32 29 34 31 32 28 26 26 25 29 26 23 23 21 18 16 16 17 16 16 14 14 15 14 13 13 13 12 12 15 19 24 29 32 31 33 29 28 29 26 29 34 32 35
45 28 28 29 28 28 30 26 27 28 27 24 22 20 18 17 17 18 19 19 18 16 13 12 11 9 8 9 12 16 21 26 29 25 24 25 25 18 21 26 31 33 36 37 39
44 41 27 27 26 28 26 24 21 24 25 22 22 21 20 18 19 19 17 16 15 13 12 9 7 7 11 16 19 18 18 20 20 18 17 16 18 19 21 22 24 25 27 30 31
50 45 38 25 25 24 21 21 18 21 23 24 21 21 19 18 18 16 15 14 13 12 10 9 11 12 11 12 12 11 9 10 10 9 10 12 13 14 15 15 17 18 19 25 29
48 50 50 48 32 20 19 15 15 21 20 20 18 15 14 11 10 9 9 9 7 8 9 9 9 9 7 7 7 6 5 5 4 2 3 5 6 10 12 11 10 13 17 29 23
40 42 45 48 47 33 19 16 18 17 16 14 10 9 8 7 6 5 5 7 6 7 7 7 11 10 8 8 7 5 4 4 4 1 1 3 7 12 14 13 15 22 26 30 23
33 34 39 42 44 41 40 43 41 34 27 20 17 14 12 10 9 8 8 10 12 13 12 10 9 9 8 8 8 7 6 5 3 5 5 4 6 9 16 12 25 27 31 30 28
30 30 34 36 36 35 36 36 36 36 34 32 31 29 26 24 22 19 17 15 15 15 14 14 12 11 15 13 12 10 7 6 6 9 9 8 7 7 10 28 26 31 28 31 25
25 26 26 29 30 31 32 33 32 32 32 31 30 31 31 31 30 29 26 24 22 21 20 18 16 17 13 11 11 8 7 8 8 9 11 10 12 14 18 22 25 27 32 32 34
24 23 23 23 23 25 27 28 27 28 28 28 27 27 27 26 26 26 25 24 23 22 21 20 18 16 14 12 11 10 9 8 9 9 9 10 13 17 20 21 22 22 24 26 26
19 20 20 20 19 18 20 21 21 22 22 22 21 21 21 20 20 19 18 16 15 14 13 13 11 10 10 9 8 8 7 6 7 9 10 13 16 19 23 25 24 22 19 22 23
14 15 15 17 18 16 16 16 16 14 13 14 15 15 16 15 14 12 11 9 8 6 5 5 3 3 2 2 2 3 3 5 6 8 11 13 16 17 19 21 24 24 23 20 20
12 11 11 11 12 13 14 14 13 12 12 11 10 10 9 11 11 9 9 7 6 6 7 9 10 10 10 10 9 8 10 10 10 12 14 17 19 21 22 22 20 23 25 23 20